<?xml version='1.0' encoding='UTF-8'?><gpx version="1.1" creator="JPX - https://github.com/jenetics/jpx" xmlns="http://www.topografix.com/GPX/1/1"><trk><trkseg><trkpt lat="45.19907785518778" lon="7.900287666322723"><ele>188.75</ele><time>2026-04-18T14:45:51.967Z</time></trkpt><trkpt lat="45.198959104236" lon="7.900316504111503"><ele>188.5</ele><time>2026-04-18T14:45:53.967Z</time></trkpt><trkpt lat="45.19885201863879" lon="7.9003369668041215"><ele>188.25</ele><time>2026-04-18T14:45:55.967Z</time></trkpt><trkpt lat="45.19874665766691" lon="7.90030454518423"><ele>188.0</ele><time>2026-04-18T14:45:57.967Z</time></trkpt><trkpt lat="45.19862011845118" lon="7.900340141338012"><ele>188.0</ele><time>2026-04-18T14:45:59.967Z</time></trkpt><trkpt lat="45.19856165342839" lon="7.900392816891256"><ele>188.0</ele><time>2026-04-18T14:46:00.967Z</time></trkpt><trkpt lat="45.19852263351015" lon="7.900487284307797"><ele>188.0</ele><time>2026-04-18T14:46:01.967Z</time></trkpt><trkpt lat="45.198512894223434" lon="7.9005964307002765"><ele>188.0</ele><time>2026-04-18T14:46:02.967Z</time></trkpt><trkpt lat="45.19853149723635" lon="7.900706534657814"><ele>188.0</ele><time>2026-04-18T14:46:03.967Z</time></trkpt><trkpt lat="45.19856952456161" lon="7.900833227940005"><ele>188.0</ele><time>2026-04-18T14:46:04.967Z</time></trkpt><trkpt lat="45.1985900050057" lon="7.900972120829538"><ele>187.75</ele><time>2026-04-18T14:46:05.967Z</time></trkpt><trkpt lat="45.19859722988952" lon="7.9011310278748486"><ele>187.5</ele><time>2026-04-18T14:46:06.967Z</time></trkpt><trkpt lat="45.19857888345889" lon="7.901296429489834"><ele>187.25</ele><time>2026-04-18T14:46:07.967Z</time></trkpt><trkpt lat="45.19855531675151" lon="7.90147766433822"><ele>187.0</ele><time>2026-04-18T14:46:08.967Z</time></trkpt><trkpt lat="45.19853126450578" lon="7.901667695959577"><ele>186.75</ele><time>2026-04-18T14:46:09.967Z</time></trkpt><trkpt lat="45.198506304362" lon="7.901841666529062"><ele>186.5</ele><time>2026-04-18T14:46:10.967Z</time></trkpt><trkpt lat="45.198486171783614" lon="7.90201041199475"><ele>186.25</ele><time>2026-04-18T14:46:11.967Z</time></trkpt><trkpt lat="45.1984600087087" lon="7.902194772833177"><ele>186.0</ele><time>2026-04-18T14:46:12.967Z</time></trkpt><trkpt lat="45.19843267199587" lon="7.902393769713775"><ele>186.33333333333334</ele><time>2026-04-18T14:46:13.967Z</time></trkpt><trkpt lat="45.19840527586988" lon="7.9025992414277715"><ele>186.66666666666669</ele><time>2026-04-18T14:46:14.967Z</time></trkpt><trkpt lat="45.19838350490032" lon="7.902816880218449"><ele>187.0</ele><time>2026-04-18T14:46:15.967Z</time></trkpt><trkpt lat="45.19836835434816" lon="7.903043960962609"><ele>187.0</ele><time>2026-04-18T14:46:16.967Z</time></trkpt><trkpt lat="45.19834087453165" lon="7.903264304355172"><ele>187.0</ele><time>2026-04-18T14:46:17.967Z</time></trkpt><trkpt lat="45.1983249345587" lon="7.903476781069594"><ele>187.0</ele><time>2026-04-18T14:46:18.967Z</time></trkpt><trkpt lat="45.19832560388681" lon="7.903675168376232"><ele>187.0</ele><time>2026-04-18T14:46:19.967Z</time></trkpt><trkpt lat="45.19831229566176" lon="7.903863671738422"><ele>187.0</ele><time>2026-04-18T14:46:20.967Z</time></trkpt><trkpt lat="45.198282018780645" lon="7.904053981553296"><ele>187.0</ele><time>2026-04-18T14:46:21.967Z</time></trkpt><trkpt lat="45.19823863883746" lon="7.9042314120112165"><ele>187.0</ele><time>2026-04-18T14:46:22.967Z</time></trkpt><trkpt lat="45.19817315075003" lon="7.90440173338887"><ele>187.0</ele><time>2026-04-18T14:46:23.967Z</time></trkpt><trkpt lat="45.1980824974576" lon="7.904545210602757"><ele>187.0</ele><time>2026-04-18T14:46:24.967Z</time></trkpt><trkpt lat="45.19799130384761" lon="7.904681238571918"><ele>187.0</ele><time>2026-04-18T14:46:25.967Z</time></trkpt><trkpt lat="45.19788946357017" lon="7.90479076279962"><ele>187.0</ele><time>2026-04-18T14:46:26.967Z</time></trkpt><trkpt lat="45.19778059948341" lon="7.904862622634981"><ele>187.0</ele><time>2026-04-18T14:46:27.967Z</time></trkpt><trkpt lat="45.197674739759975" lon="7.904895394064621"><ele>187.0</ele><time>2026-04-18T14:46:28.967Z</time></trkpt><trkpt lat="45.19757624742349" lon="7.904904678553821"><ele>187.0</ele><time>2026-04-18T14:46:29.967Z</time></trkpt><trkpt lat="45.19748003206487" lon="7.904865042293459"><ele>187.0</ele><time>2026-04-18T14:46:30.967Z</time></trkpt><trkpt lat="45.19738303443245" lon="7.90480471272479"><ele>187.0</ele><time>2026-04-18T14:46:31.967Z</time></trkpt><trkpt lat="45.197286386577595" lon="7.904779632382953"><ele>187.0</ele><time>2026-04-18T14:46:32.967Z</time></trkpt><trkpt lat="45.19719329016761" lon="7.9048129599017"><ele>187.0</ele><time>2026-04-18T14:46:33.967Z</time></trkpt><trkpt lat="45.197113273193125" lon="7.904894669350908"><ele>187.0</ele><time>2026-04-18T14:46:34.967Z</time></trkpt><trkpt lat="45.197069095645865" lon="7.905032652750023"><ele>187.0</ele><time>2026-04-18T14:46:35.967Z</time></trkpt><trkpt lat="45.19695461841131" lon="7.905111379179235"><ele>187.0</ele><time>2026-04-18T14:46:36.967Z</time></trkpt><trkpt lat="45.19683677903313" lon="7.905167169822115"><ele>186.5</ele><time>2026-04-18T14:46:37.967Z</time></trkpt><trkpt lat="45.196707216091774" lon="7.905234749886301"><ele>186.0</ele><time>2026-04-18T14:46:38.967Z</time></trkpt><trkpt lat="45.19655749909492" lon="7.905238770755892"><ele>185.5</ele><time>2026-04-18T14:46:39.967Z</time></trkpt><trkpt lat="45.196401284440896" lon="7.905263980022391"><ele>185.0</ele><time>2026-04-18T14:46:40.967Z</time></trkpt><trkpt lat="45.19623991184076" lon="7.905304431655554"><ele>183.66666666666666</ele><time>2026-04-18T14:46:41.967Z</time></trkpt><trkpt lat="45.1960777110568" lon="7.905344817669388"><ele>182.33333333333334</ele><time>2026-04-18T14:46:42.967Z</time></trkpt><trkpt lat="45.19591706196937" lon="7.905381441865466"><ele>181.0</ele><time>2026-04-18T14:46:43.967Z</time></trkpt><trkpt lat="45.195771527503354" lon="7.90541653517154"><ele>181.33333333333334</ele><time>2026-04-18T14:46:44.965Z</time></trkpt><trkpt lat="45.19562530657079" lon="7.905451766566135"><ele>181.66666666666666</ele><time>2026-04-18T14:46:45.965Z</time></trkpt><trkpt lat="45.19547496306786" lon="7.905487707917823"><ele>182.0</ele><time>2026-04-18T14:46:46.965Z</time></trkpt><trkpt lat="45.19531834488809" lon="7.905528573405039"><ele>182.0</ele><time>2026-04-18T14:46:47.965Z</time></trkpt><trkpt lat="45.19515782810158" lon="7.9055653942919095"><ele>182.0</ele><time>2026-04-18T14:46:48.965Z</time></trkpt><trkpt lat="45.19499868840687" lon="7.905599265778267"><ele>182.0</ele><time>2026-04-18T14:46:49.965Z</time></trkpt><trkpt lat="45.19484402132921" lon="7.905631683837311"><ele>181.75</ele><time>2026-04-18T14:46:50.965Z</time></trkpt><trkpt lat="45.194694192235566" lon="7.905664634805974"><ele>181.5</ele><time>2026-04-18T14:46:51.964Z</time></trkpt><trkpt lat="45.194561445498536" lon="7.905694857908344"><ele>181.25</ele><time>2026-04-18T14:46:52.964Z</time></trkpt><trkpt lat="45.19442964334688" lon="7.905723208380255"><ele>181.0</ele><time>2026-04-18T14:46:53.965Z</time></trkpt><trkpt lat="45.194321413567785" lon="7.905746932043383"><ele>181.0</ele><time>2026-04-18T14:46:54.965Z</time></trkpt><trkpt lat="45.19423613681813" lon="7.905768853400744"><ele>181.0</ele><time>2026-04-18T14:46:55.965Z</time></trkpt><trkpt lat="45.19414599882391" lon="7.9057872533582145"><ele>181.0</ele><time>2026-04-18T14:46:56.965Z</time></trkpt><trkpt lat="45.19405216109457" lon="7.905816708401566"><ele>181.0</ele><time>2026-04-18T14:46:58.964Z</time></trkpt><trkpt lat="45.193982677133455" lon="7.905833162677616"><ele>181.0</ele><time>2026-04-18T14:47:01.964Z</time></trkpt><trkpt lat="45.193907679213986" lon="7.90585186632146"><ele>181.0</ele><time>2026-04-18T14:47:05.964Z</time></trkpt><trkpt lat="45.19384365835035" lon="7.905823766726505"><ele>181.5</ele><time>2026-04-18T14:47:13.964Z</time></trkpt><trkpt lat="45.1937586807588" lon="7.905718796603769"><ele>182.0</ele><time>2026-04-18T14:47:15.964Z</time></trkpt><trkpt lat="45.19365156333118" lon="7.905649074759205"><ele>182.5</ele><time>2026-04-18T14:47:17.964Z</time></trkpt><trkpt lat="45.19358421892923" lon="7.9056542353013715"><ele>183.0</ele><time>2026-04-18T14:47:18.965Z</time></trkpt><trkpt lat="45.19352720192577" lon="7.9057097608863955"><ele>183.5</ele><time>2026-04-18T14:47:19.965Z</time></trkpt><trkpt lat="45.19349098881924" lon="7.9058080180154535"><ele>184.0</ele><time>2026-04-18T14:47:20.965Z</time></trkpt><trkpt lat="45.19348160835292" lon="7.905921696890431"><ele>184.0</ele><time>2026-04-18T14:47:21.965Z</time></trkpt><trkpt lat="45.19348955828442" lon="7.906045350993195"><ele>184.0</ele><time>2026-04-18T14:47:22.965Z</time></trkpt><trkpt lat="45.193515691376916" lon="7.906174473711997"><ele>184.0</ele><time>2026-04-18T14:47:23.965Z</time></trkpt><trkpt lat="45.19355757007088" lon="7.906297819196149"><ele>184.0</ele><time>2026-04-18T14:47:24.965Z</time></trkpt><trkpt lat="45.193592589559906" lon="7.906392907851199"><ele>184.0</ele><time>2026-04-18T14:47:25.965Z</time></trkpt><trkpt lat="45.19362845042359" lon="7.9064846053723805"><ele>184.0</ele><time>2026-04-18T14:47:27.965Z</time></trkpt><trkpt lat="45.193654168199" lon="7.906589202591769"><ele>184.0</ele><time>2026-04-18T14:47:31.965Z</time></trkpt><trkpt lat="45.19367348206266" lon="7.906678305743139"><ele>184.0</ele><time>2026-04-18T14:47:33.965Z</time></trkpt><trkpt lat="45.19370116226056" lon="7.9068316249658235"><ele>184.0</ele><time>2026-04-18T14:47:35.965Z</time></trkpt><trkpt lat="45.19372741972994" lon="7.9070081773932595"><ele>184.0</ele><time>2026-04-18T14:47:37.965Z</time></trkpt><trkpt lat="45.193745155494014" lon="7.907106763423566"><ele>184.0</ele><time>2026-04-18T14:47:38.965Z</time></trkpt><trkpt lat="45.19376646624554" lon="7.907212058983753"><ele>183.6</ele><time>2026-04-18T14:47:39.965Z</time></trkpt><trkpt lat="45.19379034847688" lon="7.907330277916894"><ele>183.2</ele><time>2026-04-18T14:47:40.965Z</time></trkpt><trkpt lat="45.19381274819909" lon="7.907451161650475"><ele>182.79999999999998</ele><time>2026-04-18T14:47:41.965Z</time></trkpt><trkpt lat="45.193829349709155" lon="7.907601862301297"><ele>182.39999999999998</ele><time>2026-04-18T14:47:42.965Z</time></trkpt><trkpt lat="45.19383800443893" lon="7.907771424071775"><ele>182.0</ele><time>2026-04-18T14:47:43.965Z</time></trkpt><trkpt lat="45.19384921765794" lon="7.907952742175817"><ele>181.75</ele><time>2026-04-18T14:47:44.965Z</time></trkpt><trkpt lat="45.193900078550364" lon="7.90814680082498"><ele>181.5</ele><time>2026-04-18T14:47:45.965Z</time></trkpt><trkpt lat="45.19390490392281" lon="7.907911071751048"><ele>181.25</ele><time>2026-04-18T14:47:46.965Z</time></trkpt><trkpt lat="45.19392896024119" lon="7.908044270061269"><ele>181.0</ele><time>2026-04-18T14:47:48.965Z</time></trkpt><trkpt lat="45.19394059145046" lon="7.9081558001043435"><ele>181.0</ele><time>2026-04-18T14:47:50.965Z</time></trkpt><trkpt lat="45.193962306211525" lon="7.908252190116924"><ele>181.0</ele><time>2026-04-18T14:47:52.965Z</time></trkpt><trkpt lat="45.193971622356365" lon="7.908340823385422"><ele>181.0</ele><time>2026-04-18T14:47:54.965Z</time></trkpt><trkpt lat="45.19399161938304" lon="7.908450231409251"><ele>181.0</ele><time>2026-04-18T14:47:56.965Z</time></trkpt><trkpt lat="45.19401322748051" lon="7.908544136310221"><ele>181.0</ele><time>2026-04-18T14:47:57.965Z</time></trkpt><trkpt lat="45.194041344440265" lon="7.908657511839445"><ele>181.0</ele><time>2026-04-18T14:47:58.965Z</time></trkpt><trkpt lat="45.19406607058772" lon="7.908789824925945"><ele>181.60000000000002</ele><time>2026-04-18T14:47:59.965Z</time></trkpt><trkpt lat="45.19409166489443" lon="7.908919103589835"><ele>182.2</ele><time>2026-04-18T14:48:00.965Z</time></trkpt><trkpt lat="45.19411238864069" lon="7.90903965172331"><ele>182.8</ele><time>2026-04-18T14:48:01.965Z</time></trkpt><trkpt lat="45.19413661566517" lon="7.909178203104482"><ele>183.39999999999998</ele><time>2026-04-18T14:48:02.965Z</time></trkpt><trkpt lat="45.194164770751854" lon="7.909331133610947"><ele>184.0</ele><time>2026-04-18T14:48:03.965Z</time></trkpt><trkpt lat="45.19419858899779" lon="7.9094950635009"><ele>184.25</ele><time>2026-04-18T14:48:04.965Z</time></trkpt><trkpt lat="45.194229489663314" lon="7.909668604288275"><ele>184.5</ele><time>2026-04-18T14:48:05.965Z</time></trkpt><trkpt lat="45.194272882751775" lon="7.909846376006434"><ele>184.75</ele><time>2026-04-18T14:48:06.965Z</time></trkpt><trkpt lat="45.19429465127357" lon="7.910014517840193"><ele>185.0</ele><time>2026-04-18T14:48:07.965Z</time></trkpt><trkpt lat="45.194324022040554" lon="7.910172696367221"><ele>185.0</ele><time>2026-04-18T14:48:08.965Z</time></trkpt><trkpt lat="45.19435108729578" lon="7.910352523512322"><ele>185.0</ele><time>2026-04-18T14:48:09.965Z</time></trkpt><trkpt lat="45.1943813406422" lon="7.910533228113426"><ele>185.0</ele><time>2026-04-18T14:48:10.965Z</time></trkpt><trkpt lat="45.19443093647673" lon="7.910706739942355"><ele>185.0</ele><time>2026-04-18T14:48:11.965Z</time></trkpt><trkpt lat="45.19446179601228" lon="7.910899044679187"><ele>184.0</ele><time>2026-04-18T14:48:12.965Z</time></trkpt><trkpt lat="45.194495207843175" lon="7.91108871806968"><ele>183.0</ele><time>2026-04-18T14:48:13.965Z</time></trkpt><trkpt lat="45.1945307455937" lon="7.911283214230275"><ele>182.0</ele><time>2026-04-18T14:48:14.965Z</time></trkpt><trkpt lat="45.1945688228665" lon="7.9114810365147745"><ele>181.0</ele><time>2026-04-18T14:48:15.965Z</time></trkpt><trkpt lat="45.194606901279016" lon="7.9116796266393115"><ele>180.5</ele><time>2026-04-18T14:48:16.965Z</time></trkpt><trkpt lat="45.19464539176835" lon="7.911871718161652"><ele>180.0</ele><time>2026-04-18T14:48:17.965Z</time></trkpt><trkpt lat="45.19467339540923" lon="7.912042932538289"><ele>179.5</ele><time>2026-04-18T14:48:18.965Z</time></trkpt><trkpt lat="45.194700919755654" lon="7.91219816337062"><ele>179.0</ele><time>2026-04-18T14:48:19.965Z</time></trkpt><trkpt lat="45.19472795674398" lon="7.912357866425326"><ele>179.0</ele><time>2026-04-18T14:48:20.965Z</time></trkpt><trkpt lat="45.19474841694694" lon="7.9125258950240385"><ele>179.0</ele><time>2026-04-18T14:48:21.965Z</time></trkpt><trkpt lat="45.19478032323537" lon="7.912697149007647"><ele>179.0</ele><time>2026-04-18T14:48:22.965Z</time></trkpt><trkpt lat="45.19481516701945" lon="7.912859522186486"><ele>179.0</ele><time>2026-04-18T14:48:23.965Z</time></trkpt><trkpt lat="45.19483715045387" lon="7.913000758988185"><ele>179.5</ele><time>2026-04-18T14:48:24.965Z</time></trkpt><trkpt lat="45.19486435904869" lon="7.913126750864457"><ele>180.0</ele><time>2026-04-18T14:48:25.965Z</time></trkpt><trkpt lat="45.194882760977286" lon="7.913235088051431"><ele>180.5</ele><time>2026-04-18T14:48:26.965Z</time></trkpt><trkpt lat="45.19490542755844" lon="7.913338138500738"><ele>181.0</ele><time>2026-04-18T14:48:27.965Z</time></trkpt><trkpt lat="45.194929325007266" lon="7.9134391619679345"><ele>181.5</ele><time>2026-04-18T14:48:28.965Z</time></trkpt><trkpt lat="45.194952743838904" lon="7.913543260929476"><ele>182.0</ele><time>2026-04-18T14:48:29.965Z</time></trkpt><trkpt lat="45.19497025945446" lon="7.913633392448187"><ele>182.0</ele><time>2026-04-18T14:48:30.965Z</time></trkpt><trkpt lat="45.19497774787768" lon="7.913773649721828"><ele>182.0</ele><time>2026-04-18T14:48:32.965Z</time></trkpt><trkpt lat="45.194883944257185" lon="7.913856946696637"><ele>182.0</ele><time>2026-04-18T14:48:34.965Z</time></trkpt><trkpt lat="45.19484666676454" lon="7.913930952909828"><ele>182.0</ele><time>2026-04-18T14:48:35.965Z</time></trkpt><trkpt lat="45.19470575122621" lon="7.9138911836536465"><ele>182.0</ele><time>2026-04-18T14:48:36.965Z</time></trkpt><trkpt lat="45.19461024090881" lon="7.913898429012409"><ele>182.0</ele><time>2026-04-18T14:48:37.965Z</time></trkpt><trkpt lat="45.19449995072852" lon="7.9139120471560425"><ele>182.0</ele><time>2026-04-18T14:48:38.965Z</time></trkpt><trkpt lat="45.19438316655772" lon="7.913927594628748"><ele>182.0</ele><time>2026-04-18T14:48:39.965Z</time></trkpt><trkpt lat="45.19425973054411" lon="7.913957566350305"><ele>182.0</ele><time>2026-04-18T14:48:40.965Z</time></trkpt><trkpt lat="45.19416495665097" lon="7.913974695206846"><ele>182.0</ele><time>2026-04-18T14:48:41.965Z</time></trkpt><trkpt lat="45.19408228741231" lon="7.913981650137516"><ele>182.0</ele><time>2026-04-18T14:48:42.965Z</time></trkpt><trkpt lat="45.19400717347913" lon="7.913975804517641"><ele>182.0</ele><time>2026-04-18T14:48:43.965Z</time></trkpt><trkpt lat="45.19394242109815" lon="7.913963484230332"><ele>182.0</ele><time>2026-04-18T14:48:44.965Z</time></trkpt><trkpt lat="45.19386573140535" lon="7.913944043830284"><ele>182.0</ele><time>2026-04-18T14:48:46.965Z</time></trkpt><trkpt lat="45.193984796756745" lon="7.914164799936852"><ele>182.0</ele><time>2026-04-18T14:48:52.962Z</time></trkpt><trkpt lat="45.19406853958419" lon="7.914158911680405"><ele>182.0</ele><time>2026-04-18T14:48:53.962Z</time></trkpt><trkpt lat="45.194140184188235" lon="7.914154838345441"><ele>182.0</ele><time>2026-04-18T14:48:54.963Z</time></trkpt><trkpt lat="45.19423128846941" lon="7.914149316271116"><ele>182.0</ele><time>2026-04-18T14:48:56.962Z</time></trkpt><trkpt lat="45.1943114961843" lon="7.914140999943512"><ele>182.0</ele><time>2026-04-18T14:48:58.962Z</time></trkpt><trkpt lat="45.19444103607113" lon="7.914127568868917"><ele>182.0</ele><time>2026-04-18T14:49:00.963Z</time></trkpt><trkpt lat="45.19452102636046" lon="7.91411927524774"><ele>182.0</ele><time>2026-04-18T14:49:01.963Z</time></trkpt><trkpt lat="45.194593752652644" lon="7.914111734778158"><ele>182.0</ele><time>2026-04-18T14:49:02.962Z</time></trkpt><trkpt lat="45.19470338134153" lon="7.9141003681595015"><ele>182.0</ele><time>2026-04-18T14:49:04.963Z</time></trkpt><trkpt lat="45.19478359913944" lon="7.914100660172099"><ele>182.0</ele><time>2026-04-18T14:49:07.963Z</time></trkpt><trkpt lat="45.19483447382302" lon="7.9141597059086"><ele>182.0</ele><time>2026-04-18T14:49:11.963Z</time></trkpt><trkpt lat="45.19483190553516" lon="7.914290460669351"><ele>182.0</ele><time>2026-04-18T14:49:14.963Z</time></trkpt><trkpt lat="45.19484117569013" lon="7.91441077550229"><ele>181.85714285714286</ele><time>2026-04-18T14:49:16.963Z</time></trkpt><trkpt lat="45.194897989983396" lon="7.914457382898203"><ele>181.71428571428572</ele><time>2026-04-18T14:49:17.963Z</time></trkpt><trkpt lat="45.19492491143991" lon="7.914547650747153"><ele>181.57142857142856</ele><time>2026-04-18T14:49:18.963Z</time></trkpt><trkpt lat="45.19493840920674" lon="7.9146690209842365"><ele>181.42857142857144</ele><time>2026-04-18T14:49:19.963Z</time></trkpt><trkpt lat="45.19495792874343" lon="7.914775204837179"><ele>181.28571428571428</ele><time>2026-04-18T14:49:20.963Z</time></trkpt><trkpt lat="45.19496815118712" lon="7.914878208111525"><ele>181.14285714285714</ele><time>2026-04-18T14:49:21.963Z</time></trkpt><trkpt lat="45.194995608827355" lon="7.914977371973691"><ele>181.0</ele><time>2026-04-18T14:49:22.963Z</time></trkpt><trkpt lat="45.1950564486684" lon="7.915083288373974"><ele>180.33333333333334</ele><time>2026-04-18T14:49:23.963Z</time></trkpt><trkpt lat="45.195079775709125" lon="7.9152091063518935"><ele>179.66666666666669</ele><time>2026-04-18T14:49:24.963Z</time></trkpt><trkpt lat="45.19510127614006" lon="7.915317558422124"><ele>179.0</ele><time>2026-04-18T14:49:25.963Z</time></trkpt><trkpt lat="45.19512226138869" lon="7.915425094430847"><ele>178.33333333333334</ele><time>2026-04-18T14:49:26.963Z</time></trkpt><trkpt lat="45.19513176627288" lon="7.915596164293965"><ele>177.66666666666666</ele><time>2026-04-18T14:49:28.963Z</time></trkpt><trkpt lat="45.19510077175212" lon="7.9156757488323946"><ele>177.0</ele><time>2026-04-18T14:49:29.963Z</time></trkpt><trkpt lat="45.1950294064779" lon="7.915717898539597"><ele>177.0</ele><time>2026-04-18T14:49:30.963Z</time></trkpt><trkpt lat="45.19494975001589" lon="7.9157469735138095"><ele>177.0</ele><time>2026-04-18T14:49:31.963Z</time></trkpt><trkpt lat="45.19485815124384" lon="7.915749373292813"><ele>177.0</ele><time>2026-04-18T14:49:32.963Z</time></trkpt><trkpt lat="45.194756930177114" lon="7.915766356312215"><ele>177.0</ele><time>2026-04-18T14:49:33.963Z</time></trkpt><trkpt lat="45.194649633662834" lon="7.915795886897382"><ele>177.0</ele><time>2026-04-18T14:49:34.963Z</time></trkpt><trkpt lat="45.194530205433836" lon="7.9158245145711525"><ele>177.0</ele><time>2026-04-18T14:49:35.963Z</time></trkpt><trkpt lat="45.1944190525856" lon="7.915845889964944"><ele>177.0</ele><time>2026-04-18T14:49:36.963Z</time></trkpt><trkpt lat="45.19432439642776" lon="7.915857190638464"><ele>177.0</ele><time>2026-04-18T14:49:37.963Z</time></trkpt><trkpt lat="45.194238346747156" lon="7.915877227212476"><ele>177.0</ele><time>2026-04-18T14:49:38.963Z</time></trkpt><trkpt lat="45.1941574121786" lon="7.915905697702299"><ele>177.0</ele><time>2026-04-18T14:49:39.963Z</time></trkpt><trkpt lat="45.19409582225862" lon="7.915953441507085"><ele>177.0</ele><time>2026-04-18T14:49:40.963Z</time></trkpt><trkpt lat="45.19407102354404" lon="7.916049630585738"><ele>178.2</ele><time>2026-04-18T14:49:41.963Z</time></trkpt><trkpt lat="45.19409993760477" lon="7.916174715894539"><ele>179.39999999999998</ele><time>2026-04-18T14:49:42.963Z</time></trkpt><trkpt lat="45.19411388318473" lon="7.916311638078012"><ele>180.60000000000002</ele><time>2026-04-18T14:49:43.963Z</time></trkpt><trkpt lat="45.194110131478524" lon="7.916463803136835"><ele>181.8</ele><time>2026-04-18T14:49:44.963Z</time></trkpt><trkpt lat="45.19412012387376" lon="7.916583507128074"><ele>183.0</ele><time>2026-04-18T14:49:45.963Z</time></trkpt><trkpt lat="45.194136941533785" lon="7.916686724329"><ele>182.5</ele><time>2026-04-18T14:49:46.963Z</time></trkpt><trkpt lat="45.19414568188854" lon="7.91681277148052"><ele>182.0</ele><time>2026-04-18T14:49:48.963Z</time></trkpt><trkpt lat="45.193988875968955" lon="7.916868733602275"><ele>181.5</ele><time>2026-04-18T14:49:50.963Z</time></trkpt><trkpt lat="45.19388196780507" lon="7.916884373854195"><ele>181.0</ele><time>2026-04-18T14:49:51.963Z</time></trkpt><trkpt lat="45.19376202058157" lon="7.916906411331104"><ele>181.0</ele><time>2026-04-18T14:49:52.963Z</time></trkpt><trkpt lat="45.19363883110331" lon="7.9169308646703636"><ele>181.0</ele><time>2026-04-18T14:49:53.963Z</time></trkpt><trkpt lat="45.1935078566542" lon="7.916955157217132"><ele>181.0</ele><time>2026-04-18T14:49:54.963Z</time></trkpt><trkpt lat="45.193392103675" lon="7.91697341073999"><ele>181.0</ele><time>2026-04-18T14:49:55.963Z</time></trkpt><trkpt lat="45.193302988870684" lon="7.916984345021476"><ele>181.0</ele><time>2026-04-18T14:49:56.963Z</time></trkpt><trkpt lat="45.19320219988061" lon="7.916959324524362"><ele>181.0</ele><time>2026-04-18T14:49:58.963Z</time></trkpt><trkpt lat="45.19315949722179" lon="7.917196951942142"><ele>181.0</ele><time>2026-04-18T14:50:00.963Z</time></trkpt><trkpt lat="45.19316768249567" lon="7.917328939311908"><ele>181.0</ele><time>2026-04-18T14:50:01.963Z</time></trkpt><trkpt lat="45.1931844309588" lon="7.917484828411861"><ele>180.75</ele><time>2026-04-18T14:50:02.963Z</time></trkpt><trkpt lat="45.19320163289451" lon="7.91766397313009"><ele>180.5</ele><time>2026-04-18T14:50:03.963Z</time></trkpt><trkpt lat="45.19322520573056" lon="7.91785771141151"><ele>180.25</ele><time>2026-04-18T14:50:04.963Z</time></trkpt><trkpt lat="45.19325142317608" lon="7.91805232230782"><ele>180.0</ele><time>2026-04-18T14:50:05.963Z</time></trkpt><trkpt lat="45.19326897555699" lon="7.91822212714982"><ele>180.0</ele><time>2026-04-18T14:50:06.963Z</time></trkpt><trkpt lat="45.19328012817405" lon="7.918370581176492"><ele>180.0</ele><time>2026-04-18T14:50:07.963Z</time></trkpt><trkpt lat="45.19328750143111" lon="7.918491601493958"><ele>180.0</ele><time>2026-04-18T14:50:08.963Z</time></trkpt><trkpt lat="45.193313391511296" lon="7.918633411840757"><ele>180.0</ele><time>2026-04-18T14:50:10.963Z</time></trkpt><trkpt lat="45.19337394804803" lon="7.918689248611642"><ele>180.0</ele><time>2026-04-18T14:50:13.963Z</time></trkpt><trkpt lat="45.193461397662915" lon="7.9187327859082455"><ele>180.0</ele><time>2026-04-18T14:50:16.963Z</time></trkpt><trkpt lat="45.19355174185737" lon="7.918747564581654"><ele>180.0</ele><time>2026-04-18T14:50:19.963Z</time></trkpt><trkpt lat="45.19362373233973" lon="7.918739810255909"><ele>180.0</ele><time>2026-04-18T14:50:22.963Z</time></trkpt><trkpt lat="45.19369543852312" lon="7.91873712234511"><ele>180.0</ele><time>2026-04-18T14:50:24.963Z</time></trkpt><trkpt lat="45.193801641116295" lon="7.918747080936264"><ele>180.0</ele><time>2026-04-18T14:50:26.963Z</time></trkpt><trkpt lat="45.19388763573321" lon="7.9187548360293"><ele>180.0</ele><time>2026-04-18T14:50:28.963Z</time></trkpt><trkpt lat="45.193790663215395" lon="7.918687324166727"><ele>180.0</ele><time>2026-04-18T14:50:33.963Z</time></trkpt><trkpt lat="45.19366612474445" lon="7.918693236520191"><ele>180.0</ele><time>2026-04-18T14:50:35.963Z</time></trkpt><trkpt lat="45.19360185018013" lon="7.918693001696996"><ele>180.0</ele><time>2026-04-18T14:50:36.963Z</time></trkpt><trkpt lat="45.193536754802544" lon="7.918695392933182"><ele>180.0</ele><time>2026-04-18T14:50:37.963Z</time></trkpt><trkpt lat="45.19341597976946" lon="7.918675838683255"><ele>180.0</ele><time>2026-04-18T14:50:39.963Z</time></trkpt><trkpt lat="45.19334063578529" lon="7.918574490397215"><ele>180.0</ele><time>2026-04-18T14:50:41.963Z</time></trkpt><trkpt lat="45.193303065585226" lon="7.9184230681066445"><ele>180.0</ele><time>2026-04-18T14:50:43.963Z</time></trkpt><trkpt lat="45.193296446587304" lon="7.9182529169345885"><ele>180.0</ele><time>2026-04-18T14:50:45.963Z</time></trkpt><trkpt lat="45.19328483758888" lon="7.9181001117274254"><ele>180.0</ele><time>2026-04-18T14:50:47.963Z</time></trkpt><trkpt lat="45.19326016727942" lon="7.918009051321312"><ele>180.0</ele><time>2026-04-18T14:50:49.963Z</time></trkpt><trkpt lat="45.19319446147694" lon="7.918032908424321"><ele>180.0</ele><time>2026-04-18T14:50:52.963Z</time></trkpt><trkpt lat="45.1931930330314" lon="7.91816193096379"><ele>180.0</ele><time>2026-04-18T14:50:54.963Z</time></trkpt><trkpt lat="45.1932096811811" lon="7.91824961240126"><ele>180.0</ele><time>2026-04-18T14:50:55.963Z</time></trkpt><trkpt lat="45.19321661249362" lon="7.918344116702078"><ele>180.0</ele><time>2026-04-18T14:50:56.96Z</time></trkpt><trkpt lat="45.19322658734065" lon="7.9184436783598695"><ele>180.0</ele><time>2026-04-18T14:50:57.96Z</time></trkpt><trkpt lat="45.193232906936224" lon="7.9185468830196415"><ele>180.0</ele><time>2026-04-18T14:50:58.96Z</time></trkpt><trkpt lat="45.19323609272283" lon="7.918654349212823"><ele>180.0</ele><time>2026-04-18T14:50:59.96Z</time></trkpt><trkpt lat="45.19324192696927" lon="7.918759150384591"><ele>180.0</ele><time>2026-04-18T14:51:00.96Z</time></trkpt><trkpt lat="45.19324893395312" lon="7.918861057255888"><ele>180.0</ele><time>2026-04-18T14:51:01.96Z</time></trkpt><trkpt lat="45.193256573563126" lon="7.918968864840064"><ele>180.0</ele><time>2026-04-18T14:51:02.96Z</time></trkpt><trkpt lat="45.193259670411166" lon="7.9190742124774784"><ele>180.0</ele><time>2026-04-18T14:51:03.959Z</time></trkpt><trkpt lat="45.19326699778036" lon="7.919180704851026"><ele>180.0</ele><time>2026-04-18T14:51:04.959Z</time></trkpt><trkpt lat="45.193276347247455" lon="7.919294058481829"><ele>180.0</ele><time>2026-04-18T14:51:05.959Z</time></trkpt><trkpt lat="45.19328410452488" lon="7.919405280976326"><ele>180.0</ele><time>2026-04-18T14:51:06.959Z</time></trkpt><trkpt lat="45.193294546657405" lon="7.919513048256047"><ele>180.0</ele><time>2026-04-18T14:51:07.959Z</time></trkpt><trkpt lat="45.19330789441146" lon="7.919621219035442"><ele>180.0</ele><time>2026-04-18T14:51:08.96Z</time></trkpt><trkpt lat="45.193322895875596" lon="7.919726879139524"><ele>180.0</ele><time>2026-04-18T14:51:09.96Z</time></trkpt><trkpt lat="45.193335411947274" lon="7.919815610493232"><ele>180.0</ele><time>2026-04-18T14:51:10.96Z</time></trkpt><trkpt lat="45.19334993625539" lon="7.9199686525469355"><ele>180.0</ele><time>2026-04-18T14:51:12.96Z</time></trkpt><trkpt lat="45.19336556930376" lon="7.920128315450156"><ele>179.7142857142857</ele><time>2026-04-18T14:51:16.96Z</time></trkpt><trkpt lat="45.193382913393094" lon="7.920216229084473"><ele>179.42857142857144</ele><time>2026-04-18T14:51:29.96Z</time></trkpt><trkpt lat="45.19334943029527" lon="7.920296565672444"><ele>179.14285714285714</ele><time>2026-04-18T14:51:31.96Z</time></trkpt><trkpt lat="45.19325274617164" lon="7.920317022938708"><ele>178.85714285714283</ele><time>2026-04-18T14:51:33.96Z</time></trkpt><trkpt lat="45.193187739604866" lon="7.920323881565854"><ele>178.57142857142856</ele><time>2026-04-18T14:51:34.96Z</time></trkpt><trkpt lat="45.19311744901789" lon="7.920338455771189"><ele>178.28571428571428</ele><time>2026-04-18T14:51:35.96Z</time></trkpt><trkpt lat="45.19304408090484" lon="7.920295499158433"><ele>178.0</ele><time>2026-04-18T14:51:36.96Z</time></trkpt><trkpt lat="45.192929168652" lon="7.9203188208087365"><ele>178.0</ele><time>2026-04-18T14:51:38.96Z</time></trkpt><trkpt lat="45.19283548242752" lon="7.920373452462895"><ele>178.0</ele><time>2026-04-18T14:51:40.96Z</time></trkpt><trkpt lat="45.192816361543755" lon="7.920479427021749"><ele>178.0</ele><time>2026-04-18T14:51:44.96Z</time></trkpt><trkpt lat="45.19285204255755" lon="7.920635150978649"><ele>178.0</ele><time>2026-04-18T14:51:46.96Z</time></trkpt><trkpt lat="45.19285225800072" lon="7.9207407603120075"><ele>178.0</ele><time>2026-04-18T14:51:47.96Z</time></trkpt><trkpt lat="45.192860430915175" lon="7.920849682867528"><ele>178.0</ele><time>2026-04-18T14:51:48.96Z</time></trkpt><trkpt lat="45.1928721672907" lon="7.92096355497549"><ele>177.83333333333334</ele><time>2026-04-18T14:51:49.96Z</time></trkpt><trkpt lat="45.192885534365864" lon="7.921072231259307"><ele>177.66666666666669</ele><time>2026-04-18T14:51:50.96Z</time></trkpt><trkpt lat="45.192896544822744" lon="7.921174789396443"><ele>177.5</ele><time>2026-04-18T14:51:51.96Z</time></trkpt><trkpt lat="45.19290458773171" lon="7.921277326696388"><ele>177.33333333333334</ele><time>2026-04-18T14:51:52.96Z</time></trkpt><trkpt lat="45.19291328909686" lon="7.921374310090909"><ele>177.16666666666666</ele><time>2026-04-18T14:51:53.96Z</time></trkpt><trkpt lat="45.192925866897596" lon="7.921547447182004"><ele>177.0</ele><time>2026-04-18T14:51:55.96Z</time></trkpt><trkpt lat="45.19294146707227" lon="7.921684574040178"><ele>177.0</ele><time>2026-04-18T14:51:57.96Z</time></trkpt><trkpt lat="45.1929489428358" lon="7.9218176917236915"><ele>177.0</ele><time>2026-04-18T14:51:59.96Z</time></trkpt><trkpt lat="45.192969389961405" lon="7.921953041892986"><ele>177.0</ele><time>2026-04-18T14:52:01.96Z</time></trkpt><trkpt lat="45.192980333873656" lon="7.922112390240686"><ele>177.0</ele><time>2026-04-18T14:52:03.96Z</time></trkpt><trkpt lat="45.192993231779624" lon="7.922280865666439"><ele>177.0</ele><time>2026-04-18T14:52:05.96Z</time></trkpt><trkpt lat="45.193001444315044" lon="7.922372722334907"><ele>177.0</ele><time>2026-04-18T14:52:06.96Z</time></trkpt><trkpt lat="45.193012699617654" lon="7.9224664117208405"><ele>177.0</ele><time>2026-04-18T14:52:07.96Z</time></trkpt><trkpt lat="45.19302306411478" lon="7.922569990897254"><ele>177.0</ele><time>2026-04-18T14:52:08.96Z</time></trkpt><trkpt lat="45.193033728317054" lon="7.922671358225528"><ele>177.0</ele><time>2026-04-18T14:52:09.96Z</time></trkpt><trkpt lat="45.19304089313585" lon="7.922772518206573"><ele>177.0</ele><time>2026-04-18T14:52:10.96Z</time></trkpt><trkpt lat="45.19304884746804" lon="7.922873105786461"><ele>177.0</ele><time>2026-04-18T14:52:11.96Z</time></trkpt><trkpt lat="45.1930584923167" lon="7.922970961229468"><ele>177.0</ele><time>2026-04-18T14:52:12.96Z</time></trkpt><trkpt lat="45.19306696475966" lon="7.9230747816320575"><ele>177.33333333333334</ele><time>2026-04-18T14:52:13.96Z</time></trkpt><trkpt lat="45.19307631022835" lon="7.923180754051942"><ele>177.66666666666666</ele><time>2026-04-18T14:52:14.96Z</time></trkpt><trkpt lat="45.19308599799483" lon="7.9232929246148345"><ele>178.0</ele><time>2026-04-18T14:52:15.96Z</time></trkpt><trkpt lat="45.19309888507001" lon="7.923408207244805"><ele>178.33333333333331</ele><time>2026-04-18T14:52:16.96Z</time></trkpt><trkpt lat="45.193101365854304" lon="7.9235240708872565"><ele>178.66666666666666</ele><time>2026-04-18T14:52:17.96Z</time></trkpt><trkpt lat="45.19311283395516" lon="7.923641784026779"><ele>179.0</ele><time>2026-04-18T14:52:18.96Z</time></trkpt><trkpt lat="45.19313169232077" lon="7.923742253561724"><ele>179.16666666666666</ele><time>2026-04-18T14:52:19.96Z</time></trkpt><trkpt lat="45.19314310848159" lon="7.923849581665945"><ele>179.33333333333331</ele><time>2026-04-18T14:52:20.96Z</time></trkpt><trkpt lat="45.193151333039225" lon="7.923961991437155"><ele>179.5</ele><time>2026-04-18T14:52:21.96Z</time></trkpt><trkpt lat="45.193157542156726" lon="7.924073140449747"><ele>179.66666666666666</ele><time>2026-04-18T14:52:22.96Z</time></trkpt><trkpt lat="45.193174361206744" lon="7.924181896769945"><ele>179.83333333333334</ele><time>2026-04-18T14:52:23.96Z</time></trkpt><trkpt lat="45.193185870614414" lon="7.924277212143745"><ele>180.0</ele><time>2026-04-18T14:52:24.96Z</time></trkpt><trkpt lat="45.19319021789179" lon="7.924377788173205"><ele>179.66666666666666</ele><time>2026-04-18T14:52:25.96Z</time></trkpt><trkpt lat="45.19320360019083" lon="7.924484997193214"><ele>179.33333333333334</ele><time>2026-04-18T14:52:26.96Z</time></trkpt><trkpt lat="45.19321561893652" lon="7.92458969464042"><ele>179.0</ele><time>2026-04-18T14:52:27.96Z</time></trkpt><trkpt lat="45.193226729166746" lon="7.924708035610605"><ele>178.66666666666669</ele><time>2026-04-18T14:52:28.96Z</time></trkpt><trkpt lat="45.19324184607943" lon="7.924819757965115"><ele>178.33333333333334</ele><time>2026-04-18T14:52:29.96Z</time></trkpt><trkpt lat="45.193256768539506" lon="7.924933533007151"><ele>178.0</ele><time>2026-04-18T14:52:30.96Z</time></trkpt><trkpt lat="45.193266258917554" lon="7.925047119159434"><ele>177.5</ele><time>2026-04-18T14:52:31.96Z</time></trkpt><trkpt lat="45.19327742209043" lon="7.9251712199567255"><ele>177.0</ele><time>2026-04-18T14:52:32.96Z</time></trkpt><trkpt lat="45.19328763200283" lon="7.925286371708356"><ele>176.5</ele><time>2026-04-18T14:52:33.96Z</time></trkpt><trkpt lat="45.19330385362392" lon="7.9254007837691205"><ele>176.0</ele><time>2026-04-18T14:52:34.96Z</time></trkpt><trkpt lat="45.193314369232446" lon="7.925511077244448"><ele>175.5</ele><time>2026-04-18T14:52:35.96Z</time></trkpt><trkpt lat="45.193327860523695" lon="7.925634294972617"><ele>175.0</ele><time>2026-04-18T14:52:36.96Z</time></trkpt><trkpt lat="45.19333775304028" lon="7.925746888937162"><ele>175.0</ele><time>2026-04-18T14:52:37.96Z</time></trkpt><trkpt lat="45.19334769077243" lon="7.925869352989118"><ele>175.0</ele><time>2026-04-18T14:52:38.96Z</time></trkpt><trkpt lat="45.1933624321552" lon="7.92602510000096"><ele>175.0</ele><time>2026-04-18T14:52:39.96Z</time></trkpt><trkpt lat="45.19338194539202" lon="7.926162911529725"><ele>175.0</ele><time>2026-04-18T14:52:40.96Z</time></trkpt><trkpt lat="45.193388517254924" lon="7.92629804650016"><ele>175.0</ele><time>2026-04-18T14:52:41.96Z</time></trkpt><trkpt lat="45.19339874642525" lon="7.926423540863469"><ele>175.0</ele><time>2026-04-18T14:52:42.96Z</time></trkpt><trkpt lat="45.193412006696406" lon="7.926535544684514"><ele>175.0</ele><time>2026-04-18T14:52:43.96Z</time></trkpt><trkpt lat="45.19342311170175" lon="7.9266382665234785"><ele>175.0</ele><time>2026-04-18T14:52:44.96Z</time></trkpt><trkpt lat="45.193428632394365" lon="7.926736251075492"><ele>175.0</ele><time>2026-04-18T14:52:45.96Z</time></trkpt><trkpt lat="45.193438098410766" lon="7.926838186727718"><ele>175.0</ele><time>2026-04-18T14:52:46.96Z</time></trkpt><trkpt lat="45.19344853765936" lon="7.926946798833412"><ele>175.0</ele><time>2026-04-18T14:52:47.96Z</time></trkpt><trkpt lat="45.193458387985345" lon="7.927060526145793"><ele>175.16666666666669</ele><time>2026-04-18T14:52:48.96Z</time></trkpt><trkpt lat="45.19347180884082" lon="7.92716914407058"><ele>175.33333333333334</ele><time>2026-04-18T14:52:49.96Z</time></trkpt><trkpt lat="45.19348022801672" lon="7.927275773422397"><ele>175.5</ele><time>2026-04-18T14:52:50.96Z</time></trkpt><trkpt lat="45.19348812912109" lon="7.9273831281371345"><ele>175.66666666666666</ele><time>2026-04-18T14:52:51.96Z</time></trkpt><trkpt lat="45.19349355315279" lon="7.927492642903323"><ele>175.83333333333331</ele><time>2026-04-18T14:52:52.96Z</time></trkpt><trkpt lat="45.19350266298643" lon="7.927605302799101"><ele>176.0</ele><time>2026-04-18T14:52:53.96Z</time></trkpt><trkpt lat="45.19351364160307" lon="7.927717108571835"><ele>176.0</ele><time>2026-04-18T14:52:54.96Z</time></trkpt><trkpt lat="45.19352455930811" lon="7.927832762424422"><ele>176.0</ele><time>2026-04-18T14:52:55.96Z</time></trkpt><trkpt lat="45.193536243921564" lon="7.927951835702006"><ele>176.0</ele><time>2026-04-18T14:52:56.96Z</time></trkpt><trkpt lat="45.193546583941405" lon="7.9280672522432365"><ele>176.0</ele><time>2026-04-18T14:52:57.96Z</time></trkpt><trkpt lat="45.19355465532914" lon="7.928182469383668"><ele>176.0</ele><time>2026-04-18T14:52:58.96Z</time></trkpt><trkpt lat="45.19356491544473" lon="7.928293022757927"><ele>176.0</ele><time>2026-04-18T14:52:59.96Z</time></trkpt><trkpt lat="45.19357132639351" lon="7.928402308354952"><ele>176.16666666666666</ele><time>2026-04-18T14:53:00.96Z</time></trkpt><trkpt lat="45.19358193842743" lon="7.9285164214108335"><ele>176.33333333333331</ele><time>2026-04-18T14:53:01.96Z</time></trkpt><trkpt lat="45.193592883647895" lon="7.928630824628458"><ele>176.5</ele><time>2026-04-18T14:53:02.957Z</time></trkpt><trkpt lat="45.1936021107325" lon="7.9287385879003"><ele>176.66666666666666</ele><time>2026-04-18T14:53:03.957Z</time></trkpt><trkpt lat="45.193606469611694" lon="7.928841678966549"><ele>176.83333333333334</ele><time>2026-04-18T14:53:04.957Z</time></trkpt><trkpt lat="45.19361545404059" lon="7.92894062078406"><ele>177.0</ele><time>2026-04-18T14:53:05.958Z</time></trkpt><trkpt lat="45.19362298222471" lon="7.929037538082718"><ele>177.0</ele><time>2026-04-18T14:53:06.957Z</time></trkpt><trkpt lat="45.193632321844674" lon="7.929131631049519"><ele>177.0</ele><time>2026-04-18T14:53:07.957Z</time></trkpt><trkpt lat="45.1936442600609" lon="7.929232665883975"><ele>177.0</ele><time>2026-04-18T14:53:08.957Z</time></trkpt><trkpt lat="45.19365288002543" lon="7.929334731797321"><ele>177.0</ele><time>2026-04-18T14:53:09.958Z</time></trkpt><trkpt lat="45.19366192305838" lon="7.929438585405478"><ele>177.0</ele><time>2026-04-18T14:53:10.958Z</time></trkpt><trkpt lat="45.19367085592774" lon="7.929539706529213"><ele>177.0</ele><time>2026-04-18T14:53:11.957Z</time></trkpt><trkpt lat="45.19367809842429" lon="7.92963519503212"><ele>177.0</ele><time>2026-04-18T14:53:12.957Z</time></trkpt><trkpt lat="45.1936851131157" lon="7.929738699207473"><ele>177.2</ele><time>2026-04-18T14:53:13.957Z</time></trkpt><trkpt lat="45.193695361402305" lon="7.929837142389996"><ele>177.39999999999998</ele><time>2026-04-18T14:53:14.957Z</time></trkpt><trkpt lat="45.19371063919698" lon="7.929931748277633"><ele>177.60000000000002</ele><time>2026-04-18T14:53:15.957Z</time></trkpt><trkpt lat="45.193720163310935" lon="7.9301042164609346"><ele>177.8</ele><time>2026-04-18T14:53:17.957Z</time></trkpt><trkpt lat="45.19373119533738" lon="7.930255706790313"><ele>178.0</ele><time>2026-04-18T14:53:19.957Z</time></trkpt><trkpt lat="45.19374303272527" lon="7.930414630094831"><ele>177.66666666666669</ele><time>2026-04-18T14:53:21.957Z</time></trkpt><trkpt lat="45.19375568102503" lon="7.9305727795994825"><ele>177.33333333333334</ele><time>2026-04-18T14:53:23.957Z</time></trkpt><trkpt lat="45.19375996584116" lon="7.9306625219883955"><ele>177.0</ele><time>2026-04-18T14:53:24.957Z</time></trkpt><trkpt lat="45.193769464398834" lon="7.930758644578113"><ele>176.66666666666666</ele><time>2026-04-18T14:53:25.957Z</time></trkpt><trkpt lat="45.19378172348916" lon="7.93086496915353"><ele>176.33333333333331</ele><time>2026-04-18T14:53:26.957Z</time></trkpt><trkpt lat="45.19378950388512" lon="7.9309814711859365"><ele>176.0</ele><time>2026-04-18T14:53:27.957Z</time></trkpt><trkpt lat="45.193810595701" lon="7.931101311129489"><ele>176.0</ele><time>2026-04-18T14:53:28.957Z</time></trkpt><trkpt lat="45.19382691067598" lon="7.931229441032438"><ele>176.0</ele><time>2026-04-18T14:53:29.957Z</time></trkpt><trkpt lat="45.19383624678166" lon="7.931372946412343"><ele>176.0</ele><time>2026-04-18T14:53:30.957Z</time></trkpt><trkpt lat="45.193852400309694" lon="7.931516595147379"><ele>176.0</ele><time>2026-04-18T14:53:31.957Z</time></trkpt><trkpt lat="45.19386597412979" lon="7.931650278334722"><ele>176.0</ele><time>2026-04-18T14:53:32.957Z</time></trkpt><trkpt lat="45.193878008970806" lon="7.931789034510788"><ele>176.0</ele><time>2026-04-18T14:53:33.957Z</time></trkpt><trkpt lat="45.1938943965897" lon="7.931915885058404"><ele>176.0</ele><time>2026-04-18T14:53:34.957Z</time></trkpt><trkpt lat="45.193904769375976" lon="7.932035904110454"><ele>176.0</ele><time>2026-04-18T14:53:35.957Z</time></trkpt><trkpt lat="45.193914115541965" lon="7.932144449826425"><ele>176.0</ele><time>2026-04-18T14:53:36.957Z</time></trkpt><trkpt lat="45.19392543040792" lon="7.932244786549761"><ele>176.0</ele><time>2026-04-18T14:53:37.957Z</time></trkpt><trkpt lat="45.19393452951526" lon="7.932351569374537"><ele>176.0</ele><time>2026-04-18T14:53:38.957Z</time></trkpt><trkpt lat="45.19394475847795" lon="7.932455715403206"><ele>176.0</ele><time>2026-04-18T14:53:39.957Z</time></trkpt><trkpt lat="45.193955594926216" lon="7.932566724040822"><ele>176.0</ele><time>2026-04-18T14:53:40.957Z</time></trkpt><trkpt lat="45.19396478479047" lon="7.932675143896568"><ele>176.0</ele><time>2026-04-18T14:53:41.957Z</time></trkpt><trkpt lat="45.193977815256346" lon="7.932784162598765"><ele>176.0</ele><time>2026-04-18T14:53:42.957Z</time></trkpt><trkpt lat="45.19399317960376" lon="7.932887396650931"><ele>176.0</ele><time>2026-04-18T14:53:43.957Z</time></trkpt><trkpt lat="45.19400335143381" lon="7.932981981317411"><ele>176.0</ele><time>2026-04-18T14:53:44.957Z</time></trkpt><trkpt lat="45.19400964923281" lon="7.933074279114416"><ele>176.0</ele><time>2026-04-18T14:53:45.957Z</time></trkpt><trkpt lat="45.19400943142248" lon="7.933224953776242"><ele>175.83333333333331</ele><time>2026-04-18T14:53:47.957Z</time></trkpt><trkpt lat="45.19399242991442" lon="7.933321284482546"><ele>175.66666666666666</ele><time>2026-04-18T14:53:49.957Z</time></trkpt><trkpt lat="45.19395831045033" lon="7.9334314297257755"><ele>175.5</ele><time>2026-04-18T14:53:51.957Z</time></trkpt><trkpt lat="45.19387343184781" lon="7.933431925777539"><ele>175.33333333333334</ele><time>2026-04-18T14:53:53.957Z</time></trkpt><trkpt lat="45.193809623158906" lon="7.933386776370142"><ele>175.16666666666669</ele><time>2026-04-18T14:53:54.957Z</time></trkpt><trkpt lat="45.193724866540315" lon="7.933327250845204"><ele>175.0</ele><time>2026-04-18T14:53:55.957Z</time></trkpt><trkpt lat="45.19362546055019" lon="7.933253085579352"><ele>175.0</ele><time>2026-04-18T14:53:56.957Z</time></trkpt><trkpt lat="45.19351872227605" lon="7.9331831258582035"><ele>175.0</ele><time>2026-04-18T14:53:57.957Z</time></trkpt><trkpt lat="45.19342158165088" lon="7.93312402473581"><ele>175.0</ele><time>2026-04-18T14:53:58.957Z</time></trkpt><trkpt lat="45.19332131539652" lon="7.9330023380166965"><ele>175.0</ele><time>2026-04-18T14:53:59.957Z</time></trkpt><trkpt lat="45.19319485831055" lon="7.932956006411853"><ele>175.25</ele><time>2026-04-18T14:54:00.957Z</time></trkpt><trkpt lat="45.19306064475335" lon="7.932909970697067"><ele>175.5</ele><time>2026-04-18T14:54:01.957Z</time></trkpt><trkpt lat="45.19291504824696" lon="7.9328650700308385"><ele>175.75</ele><time>2026-04-18T14:54:02.957Z</time></trkpt><trkpt lat="45.19276555371992" lon="7.932821014877997"><ele>176.0</ele><time>2026-04-18T14:54:03.957Z</time></trkpt><trkpt lat="45.19260943901341" lon="7.932788706198345"><ele>176.0</ele><time>2026-04-18T14:54:04.957Z</time></trkpt><trkpt lat="45.19245964240008" lon="7.93271915256339"><ele>176.0</ele><time>2026-04-18T14:54:05.957Z</time></trkpt><trkpt lat="45.19231256201747" lon="7.932665169730675"><ele>176.0</ele><time>2026-04-18T14:54:06.957Z</time></trkpt><trkpt lat="45.19217345145382" lon="7.932613793916047"><ele>176.0</ele><time>2026-04-18T14:54:07.957Z</time></trkpt><trkpt lat="45.192038133629076" lon="7.932561787642288"><ele>176.0</ele><time>2026-04-18T14:54:08.957Z</time></trkpt><trkpt lat="45.19191251984544" lon="7.932512175205632"><ele>176.0</ele><time>2026-04-18T14:54:09.957Z</time></trkpt><trkpt lat="45.1917882102738" lon="7.932463077917669"><ele>176.0</ele><time>2026-04-18T14:54:10.957Z</time></trkpt><trkpt lat="45.19165703931357" lon="7.932412748026339"><ele>175.5</ele><time>2026-04-18T14:54:11.957Z</time></trkpt><trkpt lat="45.19152502403819" lon="7.9323638849774625"><ele>175.0</ele><time>2026-04-18T14:54:12.957Z</time></trkpt><trkpt lat="45.191396633418414" lon="7.932316363531301"><ele>174.5</ele><time>2026-04-18T14:54:13.957Z</time></trkpt><trkpt lat="45.191285037392646" lon="7.932269805768807"><ele>174.0</ele><time>2026-04-18T14:54:14.957Z</time></trkpt><trkpt lat="45.19118978803004" lon="7.932232908971384"><ele>174.0</ele><time>2026-04-18T14:54:15.957Z</time></trkpt><trkpt lat="45.19111646471358" lon="7.9322306001979435"><ele>174.0</ele><time>2026-04-18T14:54:16.957Z</time></trkpt><trkpt lat="45.19102869823345" lon="7.932334062161709"><ele>174.0</ele><time>2026-04-18T14:54:18.957Z</time></trkpt><trkpt lat="45.19102100281353" lon="7.932432095495005"><ele>174.0</ele><time>2026-04-18T14:54:19.957Z</time></trkpt><trkpt lat="45.19101286164071" lon="7.932549263529443"><ele>174.0</ele><time>2026-04-18T14:54:20.957Z</time></trkpt><trkpt lat="45.19099387997879" lon="7.932688927112411"><ele>174.0</ele><time>2026-04-18T14:54:21.957Z</time></trkpt><trkpt lat="45.19094913596542" lon="7.932829429056207"><ele>174.0</ele><time>2026-04-18T14:54:22.957Z</time></trkpt><trkpt lat="45.19087909524941" lon="7.932961301027913"><ele>174.0</ele><time>2026-04-18T14:54:23.957Z</time></trkpt><trkpt lat="45.19079352579341" lon="7.9330585367801065"><ele>174.0</ele><time>2026-04-18T14:54:24.957Z</time></trkpt><trkpt lat="45.190679294949085" lon="7.933110682952705"><ele>174.0</ele><time>2026-04-18T14:54:25.957Z</time></trkpt><trkpt lat="45.19054885014674" lon="7.933151139619581"><ele>173.75</ele><time>2026-04-18T14:54:26.957Z</time></trkpt><trkpt lat="45.19041329559922" lon="7.933193859214564"><ele>173.5</ele><time>2026-04-18T14:54:27.957Z</time></trkpt><trkpt lat="45.19027163035547" lon="7.933254225296642"><ele>173.25</ele><time>2026-04-18T14:54:28.957Z</time></trkpt><trkpt lat="45.19012145830212" lon="7.933321927749148"><ele>173.0</ele><time>2026-04-18T14:54:29.957Z</time></trkpt><trkpt lat="45.18996648420514" lon="7.933396377464293"><ele>173.66666666666666</ele><time>2026-04-18T14:54:30.957Z</time></trkpt><trkpt lat="45.18981092311591" lon="7.933475100174464"><ele>174.33333333333334</ele><time>2026-04-18T14:54:31.957Z</time></trkpt><trkpt lat="45.189670263419856" lon="7.933559738202572"><ele>175.0</ele><time>2026-04-18T14:54:32.957Z</time></trkpt><trkpt lat="45.18953978310846" lon="7.933640408865148"><ele>175.0</ele><time>2026-04-18T14:54:33.957Z</time></trkpt><trkpt lat="45.189408986213365" lon="7.933715257694598"><ele>175.0</ele><time>2026-04-18T14:54:34.957Z</time></trkpt><trkpt lat="45.18927696098142" lon="7.933793618449866"><ele>175.0</ele><time>2026-04-18T14:54:35.957Z</time></trkpt><trkpt lat="45.189145507584335" lon="7.933872034400328"><ele>175.0</ele><time>2026-04-18T14:54:36.957Z</time></trkpt><trkpt lat="45.18901406904405" lon="7.933942299662462"><ele>174.75</ele><time>2026-04-18T14:54:37.957Z</time></trkpt><trkpt lat="45.1888839454974" lon="7.933997420350222"><ele>174.5</ele><time>2026-04-18T14:54:38.957Z</time></trkpt><trkpt lat="45.18875680479532" lon="7.934050107123354"><ele>174.25</ele><time>2026-04-18T14:54:39.957Z</time></trkpt><trkpt lat="45.188635050050095" lon="7.934049235833832"><ele>174.0</ele><time>2026-04-18T14:54:40.957Z</time></trkpt><trkpt lat="45.18852195459392" lon="7.934046238917886"><ele>174.0</ele><time>2026-04-18T14:54:41.957Z</time></trkpt><trkpt lat="45.18845009429548" lon="7.93405230272494"><ele>174.0</ele><time>2026-04-18T14:54:42.957Z</time></trkpt><trkpt lat="45.18835034829649" lon="7.93407588754943"><ele>174.0</ele><time>2026-04-18T14:54:44.957Z</time></trkpt><trkpt lat="45.188239574727106" lon="7.934057713306894"><ele>174.0</ele><time>2026-04-18T14:54:46.957Z</time></trkpt><trkpt lat="45.188135374205885" lon="7.934038941791379"><ele>174.0</ele><time>2026-04-18T14:54:48.957Z</time></trkpt><trkpt lat="45.188015431121606" lon="7.9340098507106145"><ele>174.14285714285714</ele><time>2026-04-18T14:54:50.957Z</time></trkpt><trkpt lat="45.18794478983587" lon="7.933992768209856"><ele>174.28571428571428</ele><time>2026-04-18T14:54:51.957Z</time></trkpt><trkpt lat="45.18787619990215" lon="7.933962538050701"><ele>174.42857142857144</ele><time>2026-04-18T14:54:52.957Z</time></trkpt><trkpt lat="45.1878075234076" lon="7.933926062825688"><ele>174.57142857142856</ele><time>2026-04-18T14:54:53.957Z</time></trkpt><trkpt lat="45.18774294271816" lon="7.933891230037783"><ele>174.71428571428572</ele><time>2026-04-18T14:54:54.957Z</time></trkpt><trkpt lat="45.18767517079669" lon="7.933861258074433"><ele>174.85714285714286</ele><time>2026-04-18T14:54:55.957Z</time></trkpt><trkpt lat="45.18760517022154" lon="7.933841745058148"><ele>175.0</ele><time>2026-04-18T14:54:56.957Z</time></trkpt><trkpt lat="45.18753879132288" lon="7.933822507194147"><ele>175.0</ele><time>2026-04-18T14:54:57.957Z</time></trkpt><trkpt lat="45.18747348951064" lon="7.933809026666331"><ele>175.0</ele><time>2026-04-18T14:54:58.957Z</time></trkpt><trkpt lat="45.18740122189354" lon="7.933791454001725"><ele>175.0</ele><time>2026-04-18T14:54:59.957Z</time></trkpt><trkpt lat="45.18734084371352" lon="7.9337650363129475"><ele>175.0</ele><time>2026-04-18T14:55:00.957Z</time></trkpt><trkpt lat="45.187225987722485" lon="7.933703709305691"><ele>175.0</ele><time>2026-04-18T14:55:02.957Z</time></trkpt><trkpt lat="45.18711043304016" lon="7.933653865811413"><ele>175.0</ele><time>2026-04-18T14:55:04.957Z</time></trkpt><trkpt lat="45.18704484857012" lon="7.933645454835225"><ele>175.42857142857142</ele><time>2026-04-18T14:55:05.957Z</time></trkpt><trkpt lat="45.18697474708532" lon="7.933638449838935"><ele>175.85714285714286</ele><time>2026-04-18T14:55:06.957Z</time></trkpt><trkpt lat="45.186908976606865" lon="7.933645605291455"><ele>176.28571428571428</ele><time>2026-04-18T14:55:07.957Z</time></trkpt><trkpt lat="45.1868436009581" lon="7.93365338224518"><ele>176.71428571428572</ele><time>2026-04-18T14:55:08.954Z</time></trkpt><trkpt lat="45.18677514987318" lon="7.9336561488053485"><ele>177.14285714285714</ele><time>2026-04-18T14:55:09.955Z</time></trkpt><trkpt lat="45.18670310552251" lon="7.9336578975960865"><ele>177.57142857142856</ele><time>2026-04-18T14:55:10.955Z</time></trkpt><trkpt lat="45.18663631842297" lon="7.933666328373723"><ele>178.0</ele><time>2026-04-18T14:55:11.954Z</time></trkpt><trkpt lat="45.186517488533305" lon="7.933701085594285"><ele>177.4</ele><time>2026-04-18T14:55:13.954Z</time></trkpt><trkpt lat="45.18640434372476" lon="7.933774897244041"><ele>176.8</ele><time>2026-04-18T14:55:15.955Z</time></trkpt><trkpt lat="45.186316559365174" lon="7.933888524283956"><ele>176.2</ele><time>2026-04-18T14:55:17.955Z</time></trkpt><trkpt lat="45.18625166423124" lon="7.934034643240424"><ele>175.6</ele><time>2026-04-18T14:55:19.954Z</time></trkpt><trkpt lat="45.186225053335534" lon="7.934118016467469"><ele>175.0</ele><time>2026-04-18T14:55:20.955Z</time></trkpt><trkpt lat="45.186197404814074" lon="7.934208304914796"><ele>175.33333333333334</ele><time>2026-04-18T14:55:21.955Z</time></trkpt><trkpt lat="45.18617199448131" lon="7.9342995827687"><ele>175.66666666666669</ele><time>2026-04-18T14:55:22.955Z</time></trkpt><trkpt lat="45.18614126231471" lon="7.934383636541627"><ele>176.0</ele><time>2026-04-18T14:55:23.955Z</time></trkpt><trkpt lat="45.18608258469324" lon="7.934518076709116"><ele>176.33333333333334</ele><time>2026-04-18T14:55:25.955Z</time></trkpt><trkpt lat="45.18602012999202" lon="7.934605517847472"><ele>176.66666666666666</ele><time>2026-04-18T14:55:27.955Z</time></trkpt><trkpt lat="45.18594332903885" lon="7.93465815401726"><ele>177.0</ele><time>2026-04-18T14:55:29.955Z</time></trkpt><trkpt lat="45.18587294819537" lon="7.934716398740586"><ele>177.0</ele><time>2026-04-18T14:55:31.955Z</time></trkpt><trkpt lat="45.18580773683263" lon="7.934764182919369"><ele>177.0</ele><time>2026-04-18T14:55:33.956Z</time></trkpt><trkpt lat="45.18572338864185" lon="7.934806072973844"><ele>177.0</ele><time>2026-04-18T14:55:36.959Z</time></trkpt><trkpt lat="45.185649872927115" lon="7.934813454631933"><ele>177.0</ele><time>2026-04-18T14:55:38.961Z</time></trkpt><trkpt lat="45.18556631277929" lon="7.934799810707909"><ele>177.0</ele><time>2026-04-18T14:55:41.964Z</time></trkpt><trkpt lat="45.18548134652569" lon="7.934767203798283"><ele>177.0</ele><time>2026-04-18T14:55:43.965Z</time></trkpt><trkpt lat="45.1853905736224" lon="7.9347304434492125"><ele>176.2</ele><time>2026-04-18T14:55:45.967Z</time></trkpt><trkpt lat="45.185309704929914" lon="7.934688823402894"><ele>175.39999999999998</ele><time>2026-04-18T14:55:47.968Z</time></trkpt><trkpt lat="45.185240838036854" lon="7.934633360219966"><ele>174.60000000000002</ele><time>2026-04-18T14:55:49.969Z</time></trkpt><trkpt lat="45.18514696482655" lon="7.934561672273177"><ele>173.8</ele><time>2026-04-18T14:55:51.97Z</time></trkpt><trkpt lat="45.18504782564101" lon="7.934523721848733"><ele>173.0</ele><time>2026-04-18T14:55:53.97Z</time></trkpt><trkpt lat="45.184958859622725" lon="7.934552921869266"><ele>173.0</ele><time>2026-04-18T14:55:55.971Z</time></trkpt><trkpt lat="45.184872225016726" lon="7.934664283898819"><ele>173.0</ele><time>2026-04-18T14:55:57.972Z</time></trkpt><trkpt lat="45.18483498873347" lon="7.934740778993216"><ele>173.0</ele><time>2026-04-18T14:55:58.972Z</time></trkpt><trkpt lat="45.184797790028334" lon="7.934818551178607"><ele>173.0</ele><time>2026-04-18T14:55:59.972Z</time></trkpt><trkpt lat="45.18472066904926" lon="7.934904526474331"><ele>173.0</ele><time>2026-04-18T14:56:01.973Z</time></trkpt><trkpt lat="45.18465417046001" lon="7.934944749921272"><ele>173.0</ele><time>2026-04-18T14:56:03.973Z</time></trkpt><trkpt lat="45.184545674685786" lon="7.934980448262655"><ele>173.0</ele><time>2026-04-18T14:56:05.973Z</time></trkpt><trkpt lat="45.184473593441126" lon="7.93510022461133"><ele>173.0</ele><time>2026-04-18T14:56:07.974Z</time></trkpt><trkpt lat="45.18443146549381" lon="7.935180310444915"><ele>173.0</ele><time>2026-04-18T14:56:08.974Z</time></trkpt><trkpt lat="45.1843994487579" lon="7.935278968773845"><ele>173.0</ele><time>2026-04-18T14:56:09.974Z</time></trkpt><trkpt lat="45.184359021358894" lon="7.935380261079382"><ele>173.0</ele><time>2026-04-18T14:56:10.974Z</time></trkpt><trkpt lat="45.18432033911108" lon="7.935481231494294"><ele>173.0</ele><time>2026-04-18T14:56:11.974Z</time></trkpt><trkpt lat="45.184282240357874" lon="7.935569243310441"><ele>173.0</ele><time>2026-04-18T14:56:12.974Z</time></trkpt><trkpt lat="45.184246858766926" lon="7.935656261293141"><ele>173.0</ele><time>2026-04-18T14:56:13.975Z</time></trkpt><trkpt lat="45.184199238496724" lon="7.935731736135015"><ele>173.0</ele><time>2026-04-18T14:56:14.975Z</time></trkpt><trkpt lat="45.18415477898417" lon="7.935813177725713"><ele>173.0</ele><time>2026-04-18T14:56:15.975Z</time></trkpt><trkpt lat="45.18411102054265" lon="7.935889398326959"><ele>173.0</ele><time>2026-04-18T14:56:16.975Z</time></trkpt><trkpt lat="45.1840754362852" lon="7.935973390533077"><ele>173.0</ele><time>2026-04-18T14:56:17.975Z</time></trkpt><trkpt lat="45.184038007795614" lon="7.9360523937704635"><ele>173.0</ele><time>2026-04-18T14:56:18.975Z</time></trkpt><trkpt lat="45.184002133678526" lon="7.9361289570963125"><ele>173.16666666666666</ele><time>2026-04-18T14:56:19.975Z</time></trkpt><trkpt lat="45.18396193251035" lon="7.936206293782291"><ele>173.33333333333331</ele><time>2026-04-18T14:56:20.975Z</time></trkpt><trkpt lat="45.18387928786193" lon="7.936326789542476"><ele>173.5</ele><time>2026-04-18T14:56:22.975Z</time></trkpt><trkpt lat="45.18378175338394" lon="7.936407025048"><ele>173.66666666666666</ele><time>2026-04-18T14:56:24.975Z</time></trkpt><trkpt lat="45.18372146849989" lon="7.936446676070778"><ele>173.83333333333334</ele><time>2026-04-18T14:56:25.976Z</time></trkpt><trkpt lat="45.18365866191282" lon="7.936465201031716"><ele>174.0</ele><time>2026-04-18T14:56:26.976Z</time></trkpt><trkpt lat="45.18354356944594" lon="7.936499009786688"><ele>174.0</ele><time>2026-04-18T14:56:28.976Z</time></trkpt><trkpt lat="45.183436400322165" lon="7.93652619534404"><ele>174.0</ele><time>2026-04-18T14:56:30.976Z</time></trkpt><trkpt lat="45.183303341801015" lon="7.936545462341216"><ele>174.0</ele><time>2026-04-18T14:56:32.976Z</time></trkpt><trkpt lat="45.18323404526998" lon="7.936555099175845"><ele>174.0</ele><time>2026-04-18T14:56:33.976Z</time></trkpt><trkpt lat="45.18311769375243" lon="7.936574379784574"><ele>174.0</ele><time>2026-04-18T14:56:35.976Z</time></trkpt><trkpt lat="45.183048794942245" lon="7.936617546115892"><ele>174.33333333333334</ele><time>2026-04-18T14:56:37.976Z</time></trkpt><trkpt lat="45.182950065980656" lon="7.936680822564062"><ele>174.66666666666666</ele><time>2026-04-18T14:57:27.973Z</time></trkpt><trkpt lat="45.18287454834897" lon="7.93673860508658"><ele>175.0</ele><time>2026-04-18T14:57:28.973Z</time></trkpt><trkpt lat="45.18281916652969" lon="7.936785998089402"><ele>175.33333333333331</ele><time>2026-04-18T14:57:29.973Z</time></trkpt><trkpt lat="45.18275875458046" lon="7.936831102132898"><ele>175.66666666666666</ele><time>2026-04-18T14:57:31.973Z</time></trkpt><trkpt lat="45.1826769931664" lon="7.936901958897558"><ele>176.0</ele><time>2026-04-18T14:57:34.973Z</time></trkpt><trkpt lat="45.182611447130434" lon="7.9369213325113375"><ele>176.0</ele><time>2026-04-18T14:57:37.973Z</time></trkpt><trkpt lat="45.182521099580036" lon="7.936998166369064"><ele>176.0</ele><time>2026-04-18T14:57:48.973Z</time></trkpt><trkpt lat="45.182424457162824" lon="7.937084001271233"><ele>176.0</ele><time>2026-04-18T14:57:50.973Z</time></trkpt><trkpt lat="45.18231414084428" lon="7.937098259115039"><ele>176.0</ele><time>2026-04-18T14:57:52.973Z</time></trkpt><trkpt lat="45.18219140461536" lon="7.937100824512729"><ele>175.85714285714286</ele><time>2026-04-18T14:57:54.973Z</time></trkpt><trkpt lat="45.182120965992844" lon="7.93710660157158"><ele>175.71428571428572</ele><time>2026-04-18T14:57:55.973Z</time></trkpt><trkpt lat="45.182051310733314" lon="7.937101488108898"><ele>175.57142857142856</ele><time>2026-04-18T14:57:56.973Z</time></trkpt><trkpt lat="45.18197326795173" lon="7.937107223160764"><ele>175.42857142857144</ele><time>2026-04-18T14:57:57.973Z</time></trkpt><trkpt lat="45.181902722298275" lon="7.9371072914443515"><ele>175.28571428571428</ele><time>2026-04-18T14:57:58.973Z</time></trkpt><trkpt lat="45.18183098534036" lon="7.937108058378241"><ele>175.14285714285714</ele><time>2026-04-18T14:57:59.973Z</time></trkpt><trkpt lat="45.1817619212778" lon="7.9371015702899035"><ele>175.0</ele><time>2026-04-18T14:58:00.973Z</time></trkpt><trkpt lat="45.18166129351935" lon="7.937094144029964"><ele>175.0</ele><time>2026-04-18T14:58:02.973Z</time></trkpt><trkpt lat="45.18158937973001" lon="7.937109898697363"><ele>175.0</ele><time>2026-04-18T14:58:06.973Z</time></trkpt><trkpt lat="45.181488686575555" lon="7.93713431677642"><ele>175.0</ele><time>2026-04-18T14:58:54.974Z</time></trkpt><trkpt lat="45.1814193520349" lon="7.937196933510856"><ele>175.0</ele><time>2026-04-18T14:58:56.974Z</time></trkpt><trkpt lat="45.181380294480206" lon="7.93731510902395"><ele>175.0</ele><time>2026-04-18T14:58:58.974Z</time></trkpt><trkpt lat="45.18139246026816" lon="7.937472783891062"><ele>174.6</ele><time>2026-04-18T14:59:00.974Z</time></trkpt><trkpt lat="45.18142063008644" lon="7.9376336887117835"><ele>174.2</ele><time>2026-04-18T14:59:02.974Z</time></trkpt><trkpt lat="45.18141590974514" lon="7.937722995987562"><ele>173.8</ele><time>2026-04-18T14:59:03.974Z</time></trkpt><trkpt lat="45.18140721232542" lon="7.937875654012705"><ele>173.4</ele><time>2026-04-18T14:59:05.974Z</time></trkpt><trkpt lat="45.18139891076601" lon="7.938029066299259"><ele>173.0</ele><time>2026-04-18T14:59:07.974Z</time></trkpt><trkpt lat="45.18136760270332" lon="7.938176950219416"><ele>173.0</ele><time>2026-04-18T14:59:09.974Z</time></trkpt><trkpt lat="45.18133069212817" lon="7.938346505626618"><ele>173.0</ele><time>2026-04-18T14:59:11.974Z</time></trkpt><trkpt lat="45.18130057476378" lon="7.938488184950185"><ele>173.0</ele><time>2026-04-18T14:59:13.974Z</time></trkpt><trkpt lat="45.1812883282418" lon="7.9386412491136875"><ele>173.0</ele><time>2026-04-18T14:59:15.974Z</time></trkpt><trkpt lat="45.18130735064324" lon="7.938801601584513"><ele>173.60000000000002</ele><time>2026-04-18T14:59:17.974Z</time></trkpt><trkpt lat="45.181286855191935" lon="7.938970528919357"><ele>174.20000000000002</ele><time>2026-04-18T14:59:19.974Z</time></trkpt><trkpt lat="45.18126756223821" lon="7.93906290456946"><ele>174.8</ele><time>2026-04-18T14:59:20.971Z</time></trkpt><trkpt lat="45.18125369711159" lon="7.939151534509891"><ele>175.4</ele><time>2026-04-18T14:59:21.971Z</time></trkpt><trkpt lat="45.181219395168974" lon="7.939299820548972"><ele>176.0</ele><time>2026-04-18T14:59:23.97Z</time></trkpt><trkpt lat="45.18116846304473" lon="7.939458689239591"><ele>175.57142857142858</ele><time>2026-04-18T14:59:25.97Z</time></trkpt><trkpt lat="45.181147243825336" lon="7.939546391425586"><ele>175.14285714285714</ele><time>2026-04-18T14:59:26.971Z</time></trkpt><trkpt lat="45.18112064371779" lon="7.93963135470989"><ele>174.71428571428572</ele><time>2026-04-18T14:59:27.97Z</time></trkpt><trkpt lat="45.18109309699829" lon="7.939714194052201"><ele>174.28571428571428</ele><time>2026-04-18T14:59:28.97Z</time></trkpt><trkpt lat="45.18106654131876" lon="7.939795825866594"><ele>173.85714285714286</ele><time>2026-04-18T14:59:29.97Z</time></trkpt><trkpt lat="45.18102191393421" lon="7.939954009218286"><ele>173.42857142857142</ele><time>2026-04-18T14:59:31.971Z</time></trkpt><trkpt lat="45.18099419104922" lon="7.940041753694516"><ele>173.0</ele><time>2026-04-18T14:59:32.971Z</time></trkpt><trkpt lat="45.18096566894223" lon="7.940126657087464"><ele>173.0</ele><time>2026-04-18T14:59:33.97Z</time></trkpt><trkpt lat="45.18093675693281" lon="7.940206676205617"><ele>173.0</ele><time>2026-04-18T14:59:34.97Z</time></trkpt><trkpt lat="45.18089551717056" lon="7.940345538498401"><ele>173.0</ele><time>2026-04-18T14:59:36.97Z</time></trkpt><trkpt lat="45.180864830085554" lon="7.940513966071586"><ele>173.0</ele><time>2026-04-18T14:59:38.97Z</time></trkpt><trkpt lat="45.18083770403161" lon="7.940610244934865"><ele>173.0</ele><time>2026-04-18T14:59:39.97Z</time></trkpt><trkpt lat="45.180806507471054" lon="7.9407027333412685"><ele>173.0</ele><time>2026-04-18T14:59:40.97Z</time></trkpt><trkpt lat="45.180778631714794" lon="7.940800079572828"><ele>172.83333333333331</ele><time>2026-04-18T14:59:41.97Z</time></trkpt><trkpt lat="45.18075327053427" lon="7.940894929529207"><ele>172.66666666666666</ele><time>2026-04-18T14:59:42.97Z</time></trkpt><trkpt lat="45.18072261447395" lon="7.94098930100688"><ele>172.5</ele><time>2026-04-18T14:59:43.97Z</time></trkpt><trkpt lat="45.18069443525085" lon="7.941081268371897"><ele>172.33333333333334</ele><time>2026-04-18T14:59:44.97Z</time></trkpt><trkpt lat="45.180669402181834" lon="7.941169815776187"><ele>172.16666666666669</ele><time>2026-04-18T14:59:45.97Z</time></trkpt><trkpt lat="45.18062924860846" lon="7.941327728585558"><ele>172.0</ele><time>2026-04-18T14:59:47.97Z</time></trkpt><trkpt lat="45.180589337484044" lon="7.9414548874035775"><ele>172.0</ele><time>2026-04-18T14:59:49.97Z</time></trkpt><trkpt lat="45.1805524911037" lon="7.941594960813723"><ele>172.0</ele><time>2026-04-18T14:59:51.97Z</time></trkpt><trkpt lat="45.18051439460905" lon="7.941720187559307"><ele>172.0</ele><time>2026-04-18T14:59:53.97Z</time></trkpt><trkpt lat="45.18048675678262" lon="7.941827677594309"><ele>172.0</ele><time>2026-04-18T14:59:55.97Z</time></trkpt><trkpt lat="45.18045596237434" lon="7.941940675614628"><ele>172.0</ele><time>2026-04-18T14:59:57.97Z</time></trkpt><trkpt lat="45.180418813945856" lon="7.942052056501478"><ele>172.2</ele><time>2026-04-18T14:59:59.97Z</time></trkpt><trkpt lat="45.18038617243657" lon="7.9421814034763445"><ele>172.39999999999998</ele><time>2026-04-18T15:00:01.97Z</time></trkpt><trkpt lat="45.18034643258403" lon="7.9423254567972865"><ele>172.60000000000002</ele><time>2026-04-18T15:00:03.97Z</time></trkpt><trkpt lat="45.180312316633824" lon="7.942481833691575"><ele>172.8</ele><time>2026-04-18T15:00:05.97Z</time></trkpt><trkpt lat="45.18027024492521" lon="7.942617976156513"><ele>173.0</ele><time>2026-04-18T15:00:07.97Z</time></trkpt><trkpt lat="45.18022476626167" lon="7.942709421480631"><ele>172.4</ele><time>2026-04-18T15:00:10.97Z</time></trkpt><trkpt lat="45.180196088996794" lon="7.942810513775964"><ele>171.8</ele><time>2026-04-18T15:00:13.97Z</time></trkpt><trkpt lat="45.180170219690545" lon="7.942900460561996"><ele>171.2</ele><time>2026-04-18T15:00:15.97Z</time></trkpt><trkpt lat="45.18013151683416" lon="7.943041710949104"><ele>170.6</ele><time>2026-04-18T15:00:17.97Z</time></trkpt><trkpt lat="45.18009363886217" lon="7.943182845112428"><ele>170.0</ele><time>2026-04-18T15:00:19.97Z</time></trkpt><trkpt lat="45.18004468560908" lon="7.943344033302352"><ele>169.83333333333331</ele><time>2026-04-18T15:00:21.97Z</time></trkpt><trkpt lat="45.17999984877342" lon="7.94350386694585"><ele>169.66666666666666</ele><time>2026-04-18T15:00:23.97Z</time></trkpt><trkpt lat="45.179974208034366" lon="7.943591200787399"><ele>169.5</ele><time>2026-04-18T15:00:24.97Z</time></trkpt><trkpt lat="45.17992777181065" lon="7.943752266241811"><ele>169.33333333333334</ele><time>2026-04-18T15:00:26.97Z</time></trkpt><trkpt lat="45.17990428451243" lon="7.943842235350999"><ele>169.16666666666669</ele><time>2026-04-18T15:00:27.97Z</time></trkpt><trkpt lat="45.179878943558926" lon="7.9439272406138155"><ele>169.0</ele><time>2026-04-18T15:00:28.97Z</time></trkpt><trkpt lat="45.179852965761086" lon="7.944010498694531"><ele>168.79999999999998</ele><time>2026-04-18T15:00:29.97Z</time></trkpt><trkpt lat="45.179822315568565" lon="7.944096583640119"><ele>168.6</ele><time>2026-04-18T15:00:30.97Z</time></trkpt><trkpt lat="45.17979578398406" lon="7.944179268344855"><ele>168.4</ele><time>2026-04-18T15:00:31.97Z</time></trkpt><trkpt lat="45.179757398991384" lon="7.944335000705759"><ele>168.2</ele><time>2026-04-18T15:00:33.97Z</time></trkpt><trkpt lat="45.179715841868465" lon="7.944494793581681"><ele>168.0</ele><time>2026-04-18T15:00:35.971Z</time></trkpt><trkpt lat="45.17966820124284" lon="7.944651682735232"><ele>168.0</ele><time>2026-04-18T15:00:37.971Z</time></trkpt><trkpt lat="45.179643340022785" lon="7.944736487178876"><ele>168.0</ele><time>2026-04-18T15:00:38.971Z</time></trkpt><trkpt lat="45.17962343662384" lon="7.944821762789045"><ele>168.0</ele><time>2026-04-18T15:00:39.971Z</time></trkpt><trkpt lat="45.17960193832261" lon="7.944905757002016"><ele>168.0</ele><time>2026-04-18T15:00:40.971Z</time></trkpt><trkpt lat="45.17958170038693" lon="7.944994624622373"><ele>168.0</ele><time>2026-04-18T15:00:41.971Z</time></trkpt><trkpt lat="45.17953102628549" lon="7.945157915012601"><ele>168.0</ele><time>2026-04-18T15:00:43.971Z</time></trkpt><trkpt lat="45.179504510020834" lon="7.945248270129049"><ele>168.16666666666666</ele><time>2026-04-18T15:00:44.971Z</time></trkpt><trkpt lat="45.17947877259686" lon="7.945337560356801"><ele>168.33333333333334</ele><time>2026-04-18T15:00:45.971Z</time></trkpt><trkpt lat="45.17945417890807" lon="7.945428782225021"><ele>168.5</ele><time>2026-04-18T15:00:46.971Z</time></trkpt><trkpt lat="45.17942648370293" lon="7.945515382994279"><ele>168.66666666666669</ele><time>2026-04-18T15:00:47.971Z</time></trkpt><trkpt lat="45.1793805821516" lon="7.945676211299937"><ele>168.83333333333334</ele><time>2026-04-18T15:00:49.971Z</time></trkpt><trkpt lat="45.17935702989819" lon="7.945759423275851"><ele>169.0</ele><time>2026-04-18T15:00:50.971Z</time></trkpt><trkpt lat="45.17931920325317" lon="7.945909172137706"><ele>168.6</ele><time>2026-04-18T15:00:52.971Z</time></trkpt><trkpt lat="45.17927157118271" lon="7.946057054237904"><ele>168.2</ele><time>2026-04-18T15:00:54.971Z</time></trkpt><trkpt lat="45.17922955492967" lon="7.946209520421604"><ele>167.79999999999998</ele><time>2026-04-18T15:00:56.971Z</time></trkpt><trkpt lat="45.179184518563574" lon="7.946368050428021"><ele>167.39999999999998</ele><time>2026-04-18T15:00:58.971Z</time></trkpt><trkpt lat="45.179161469851934" lon="7.946454152421435"><ele>167.0</ele><time>2026-04-18T15:00:59.971Z</time></trkpt><trkpt lat="45.1791360094273" lon="7.946537005763931"><ele>167.0</ele><time>2026-04-18T15:01:00.971Z</time></trkpt><trkpt lat="45.1791074698245" lon="7.946626547340836"><ele>167.0</ele><time>2026-04-18T15:01:01.971Z</time></trkpt><trkpt lat="45.1790788992755" lon="7.946715650221619"><ele>167.0</ele><time>2026-04-18T15:01:02.971Z</time></trkpt><trkpt lat="45.179031296970116" lon="7.94687268330993"><ele>167.0</ele><time>2026-04-18T15:01:04.971Z</time></trkpt><trkpt lat="45.1789865961418" lon="7.947020540391958"><ele>167.0</ele><time>2026-04-18T15:01:06.971Z</time></trkpt><trkpt lat="45.178935948970405" lon="7.947182007193571"><ele>167.6</ele><time>2026-04-18T15:01:08.971Z</time></trkpt><trkpt lat="45.17888918156278" lon="7.947328206409305"><ele>168.2</ele><time>2026-04-18T15:01:10.971Z</time></trkpt><trkpt lat="45.178846910747474" lon="7.947466172821931"><ele>168.8</ele><time>2026-04-18T15:01:12.971Z</time></trkpt><trkpt lat="45.17882130311259" lon="7.947555678860422"><ele>169.4</ele><time>2026-04-18T15:01:13.971Z</time></trkpt><trkpt lat="45.17877284573372" lon="7.947706173919969"><ele>170.0</ele><time>2026-04-18T15:01:15.971Z</time></trkpt><trkpt lat="45.17872533014379" lon="7.947872140735246"><ele>170.0</ele><time>2026-04-18T15:01:17.971Z</time></trkpt><trkpt lat="45.17869906163395" lon="7.947961146901322"><ele>170.0</ele><time>2026-04-18T15:01:18.971Z</time></trkpt><trkpt lat="45.178632791845196" lon="7.948098335314222"><ele>170.0</ele><time>2026-04-18T15:01:20.971Z</time></trkpt><trkpt lat="45.17857243873238" lon="7.948159738108791"><ele>170.0</ele><time>2026-04-18T15:01:22.971Z</time></trkpt><trkpt lat="45.17849966536802" lon="7.948181602205754"><ele>170.0</ele><time>2026-04-18T15:02:02.968Z</time></trkpt><trkpt lat="45.178412004812365" lon="7.948080992782289"><ele>170.0</ele><time>2026-04-18T15:02:04.968Z</time></trkpt><trkpt lat="45.17835754106523" lon="7.947943649244139"><ele>170.0</ele><time>2026-04-18T15:02:05.968Z</time></trkpt><trkpt lat="45.17830251327588" lon="7.94782701403561"><ele>170.0</ele><time>2026-04-18T15:02:06.968Z</time></trkpt><trkpt lat="45.178240418349226" lon="7.947718084591111"><ele>170.0</ele><time>2026-04-18T15:02:07.968Z</time></trkpt><trkpt lat="45.1781633811636" lon="7.9475935734306775"><ele>170.0</ele><time>2026-04-18T15:02:08.968Z</time></trkpt><trkpt lat="45.17807322802773" lon="7.94745386810883"><ele>170.0</ele><time>2026-04-18T15:02:09.968Z</time></trkpt><trkpt lat="45.177968804269575" lon="7.947305744394586"><ele>169.66666666666666</ele><time>2026-04-18T15:02:10.968Z</time></trkpt><trkpt lat="45.17785455156047" lon="7.947155263412485"><ele>169.33333333333334</ele><time>2026-04-18T15:02:11.968Z</time></trkpt><trkpt lat="45.17774404047782" lon="7.947023648078669"><ele>169.0</ele><time>2026-04-18T15:02:12.968Z</time></trkpt><trkpt lat="45.17762549588792" lon="7.946878312855051"><ele>169.0</ele><time>2026-04-18T15:02:13.968Z</time></trkpt><trkpt lat="45.17749276392339" lon="7.946718790883344"><ele>169.0</ele><time>2026-04-18T15:02:14.968Z</time></trkpt><trkpt lat="45.17735104824873" lon="7.946553843702487"><ele>169.0</ele><time>2026-04-18T15:02:15.968Z</time></trkpt><trkpt lat="45.17721213065363" lon="7.946385701724656"><ele>169.0</ele><time>2026-04-18T15:02:16.968Z</time></trkpt><trkpt lat="45.177087861790824" lon="7.946231093698422"><ele>169.0</ele><time>2026-04-18T15:02:17.968Z</time></trkpt><trkpt lat="45.17696363794202" lon="7.946076118971855"><ele>169.0</ele><time>2026-04-18T15:02:18.968Z</time></trkpt><trkpt lat="45.17683286170847" lon="7.9459151564921315"><ele>169.33333333333334</ele><time>2026-04-18T15:02:19.968Z</time></trkpt><trkpt lat="45.17669463072531" lon="7.945753800342959"><ele>169.66666666666666</ele><time>2026-04-18T15:02:20.968Z</time></trkpt><trkpt lat="45.17655342366516" lon="7.945587539431362"><ele>170.0</ele><time>2026-04-18T15:02:21.968Z</time></trkpt><trkpt lat="45.176406178651064" lon="7.9454157871949365"><ele>170.33333333333331</ele><time>2026-04-18T15:02:22.968Z</time></trkpt><trkpt lat="45.17626103977017" lon="7.945240864244"><ele>170.66666666666666</ele><time>2026-04-18T15:02:23.968Z</time></trkpt><trkpt lat="45.17611124469454" lon="7.945059735802893"><ele>171.0</ele><time>2026-04-18T15:02:24.968Z</time></trkpt><trkpt lat="45.17596005730051" lon="7.944879961814262"><ele>171.0</ele><time>2026-04-18T15:02:25.968Z</time></trkpt><trkpt lat="45.175808959431" lon="7.944697483708224"><ele>171.0</ele><time>2026-04-18T15:02:26.968Z</time></trkpt><trkpt lat="45.17565631105948" lon="7.944517080308289"><ele>171.0</ele><time>2026-04-18T15:02:27.968Z</time></trkpt><trkpt lat="45.17551539503059" lon="7.944346645842707"><ele>171.33333333333334</ele><time>2026-04-18T15:02:28.968Z</time></trkpt><trkpt lat="45.1753860385903" lon="7.944187049450532"><ele>171.66666666666669</ele><time>2026-04-18T15:02:29.968Z</time></trkpt><trkpt lat="45.17525886184326" lon="7.944037219983549"><ele>172.0</ele><time>2026-04-18T15:02:30.968Z</time></trkpt><trkpt lat="45.17513135070244" lon="7.943890347521573"><ele>172.0</ele><time>2026-04-18T15:02:31.968Z</time></trkpt><trkpt lat="45.174998419827794" lon="7.943747978063074"><ele>172.0</ele><time>2026-04-18T15:02:32.968Z</time></trkpt><trkpt lat="45.17485956960136" lon="7.943618895517903"><ele>172.0</ele><time>2026-04-18T15:02:33.968Z</time></trkpt><trkpt lat="45.174716972859144" lon="7.943495669787351"><ele>172.0</ele><time>2026-04-18T15:02:34.968Z</time></trkpt><trkpt lat="45.17457011382646" lon="7.943380943942649"><ele>172.0</ele><time>2026-04-18T15:02:35.968Z</time></trkpt><trkpt lat="45.17441880434312" lon="7.943293954613034"><ele>172.0</ele><time>2026-04-18T15:02:36.968Z</time></trkpt><trkpt lat="45.1742605799936" lon="7.94323408128152"><ele>172.33333333333334</ele><time>2026-04-18T15:02:37.968Z</time></trkpt><trkpt lat="45.174094698777466" lon="7.943187259429028"><ele>172.66666666666666</ele><time>2026-04-18T15:02:38.968Z</time></trkpt><trkpt lat="45.17392217208673" lon="7.943149318195396"><ele>173.0</ele><time>2026-04-18T15:02:39.968Z</time></trkpt><trkpt lat="45.17374737220314" lon="7.943112934349443"><ele>172.0</ele><time>2026-04-18T15:02:40.968Z</time></trkpt><trkpt lat="45.17356785800298" lon="7.943076300536425"><ele>171.0</ele><time>2026-04-18T15:02:41.968Z</time></trkpt><trkpt lat="45.17338724447759" lon="7.943040074428167"><ele>170.0</ele><time>2026-04-18T15:02:42.968Z</time></trkpt><trkpt lat="45.173207475239245" lon="7.9430062736385265"><ele>170.0</ele><time>2026-04-18T15:02:43.968Z</time></trkpt><trkpt lat="45.17302392012932" lon="7.942968864404723"><ele>170.0</ele><time>2026-04-18T15:02:44.968Z</time></trkpt><trkpt lat="45.172837091642656" lon="7.942935620900768"><ele>170.0</ele><time>2026-04-18T15:02:45.968Z</time></trkpt><trkpt lat="45.17265049144779" lon="7.9428987045158905"><ele>170.0</ele><time>2026-04-18T15:02:46.968Z</time></trkpt><trkpt lat="45.172465587133125" lon="7.9428650024723915"><ele>170.0</ele><time>2026-04-18T15:02:47.968Z</time></trkpt><trkpt lat="45.172277654633454" lon="7.942827245130588"><ele>170.0</ele><time>2026-04-18T15:02:48.968Z</time></trkpt><trkpt lat="45.17209174123417" lon="7.942787807978935"><ele>170.66666666666666</ele><time>2026-04-18T15:02:49.968Z</time></trkpt><trkpt lat="45.171908051438194" lon="7.942746642804127"><ele>171.33333333333334</ele><time>2026-04-18T15:02:50.968Z</time></trkpt><trkpt lat="45.17172925648466" lon="7.942705020498399"><ele>172.0</ele><time>2026-04-18T15:02:51.968Z</time></trkpt><trkpt lat="45.1715589187913" lon="7.94265710229538"><ele>172.0</ele><time>2026-04-18T15:02:52.968Z</time></trkpt><trkpt lat="45.171400779927424" lon="7.942607480141531"><ele>172.0</ele><time>2026-04-18T15:02:53.968Z</time></trkpt><trkpt lat="45.17125052984038" lon="7.942549548582277"><ele>172.0</ele><time>2026-04-18T15:02:54.968Z</time></trkpt><trkpt lat="45.171111012109726" lon="7.942480040368777"><ele>172.0</ele><time>2026-04-18T15:02:55.968Z</time></trkpt><trkpt lat="45.17100099138679" lon="7.942406550913682"><ele>172.0</ele><time>2026-04-18T15:02:56.968Z</time></trkpt><trkpt lat="45.170905884736484" lon="7.942334435768904"><ele>172.0</ele><time>2026-04-18T15:02:57.968Z</time></trkpt><trkpt lat="45.17083423212506" lon="7.942266110525487"><ele>172.0</ele><time>2026-04-18T15:02:58.968Z</time></trkpt><trkpt lat="45.17078416717716" lon="7.9422107830390365"><ele>172.0</ele><time>2026-04-18T15:02:59.968Z</time></trkpt><trkpt lat="45.170745331772665" lon="7.942137753730588"><ele>172.0</ele><time>2026-04-18T15:03:00.968Z</time></trkpt><trkpt lat="45.170720929607064" lon="7.942030200967914"><ele>171.8</ele><time>2026-04-18T15:03:01.968Z</time></trkpt><trkpt lat="45.17065498896483" lon="7.941942262020137"><ele>171.6</ele><time>2026-04-18T15:03:02.968Z</time></trkpt><trkpt lat="45.17059693471826" lon="7.941838187775334"><ele>171.4</ele><time>2026-04-18T15:03:03.968Z</time></trkpt><trkpt lat="45.17049460183594" lon="7.941810414518076"><ele>171.20000000000002</ele><time>2026-04-18T15:03:04.968Z</time></trkpt><trkpt lat="45.17040711405372" lon="7.941812926074422"><ele>171.0</ele><time>2026-04-18T15:03:05.968Z</time></trkpt><trkpt lat="45.1703236516009" lon="7.94185742708729"><ele>171.0</ele><time>2026-04-18T15:03:06.968Z</time></trkpt><trkpt lat="45.17025375462727" lon="7.941940871304932"><ele>171.0</ele><time>2026-04-18T15:03:07.968Z</time></trkpt><trkpt lat="45.170209101715734" lon="7.942057317928531"><ele>171.0</ele><time>2026-04-18T15:03:08.968Z</time></trkpt><trkpt lat="45.170196302070394" lon="7.942191485042042"><ele>171.0</ele><time>2026-04-18T15:03:09.968Z</time></trkpt><trkpt lat="45.17021153553412" lon="7.942325076363917"><ele>171.0</ele><time>2026-04-18T15:03:10.968Z</time></trkpt><trkpt lat="45.1702570917952" lon="7.942454079874422"><ele>171.0</ele><time>2026-04-18T15:03:11.968Z</time></trkpt><trkpt lat="45.17030994719574" lon="7.942595557801204"><ele>171.0</ele><time>2026-04-18T15:03:12.968Z</time></trkpt><trkpt lat="45.17034647862941" lon="7.942763571215633"><ele>171.0</ele><time>2026-04-18T15:03:13.968Z</time></trkpt><trkpt lat="45.17034581884204" lon="7.942951237945819"><ele>171.0</ele><time>2026-04-18T15:03:14.968Z</time></trkpt><trkpt lat="45.17032248349591" lon="7.943155509922207"><ele>171.0</ele><time>2026-04-18T15:03:15.968Z</time></trkpt><trkpt lat="45.17030346474632" lon="7.9433425660116"><ele>171.0</ele><time>2026-04-18T15:03:16.968Z</time></trkpt><trkpt lat="45.170285067792314" lon="7.943531490125955"><ele>171.0</ele><time>2026-04-18T15:03:17.968Z</time></trkpt><trkpt lat="45.17026473577082" lon="7.943738877787165"><ele>171.0</ele><time>2026-04-18T15:03:18.968Z</time></trkpt><trkpt lat="45.17024061362831" lon="7.943957275105514"><ele>171.66666666666666</ele><time>2026-04-18T15:03:19.968Z</time></trkpt><trkpt lat="45.17021377086506" lon="7.9441893383976705"><ele>172.33333333333331</ele><time>2026-04-18T15:03:20.968Z</time></trkpt><trkpt lat="45.17017995528416" lon="7.944425599269696"><ele>173.0</ele><time>2026-04-18T15:03:21.968Z</time></trkpt><trkpt lat="45.17015001404291" lon="7.9446597785618"><ele>173.0</ele><time>2026-04-18T15:03:22.968Z</time></trkpt><trkpt lat="45.170114754925685" lon="7.94488128114684"><ele>173.0</ele><time>2026-04-18T15:03:23.969Z</time></trkpt><trkpt lat="45.170091597767595" lon="7.9451215309671195"><ele>173.0</ele><time>2026-04-18T15:03:24.969Z</time></trkpt><trkpt lat="45.17006649360713" lon="7.945368519840862"><ele>173.0</ele><time>2026-04-18T15:03:25.969Z</time></trkpt><trkpt lat="45.17004213128164" lon="7.945594498818706"><ele>173.0</ele><time>2026-04-18T15:03:26.969Z</time></trkpt><trkpt lat="45.170015101921976" lon="7.945779068838935"><ele>173.0</ele><time>2026-04-18T15:03:27.969Z</time></trkpt><trkpt lat="45.16998753092566" lon="7.945902602693262"><ele>173.0</ele><time>2026-04-18T15:03:28.969Z</time></trkpt><trkpt lat="45.16995512340408" lon="7.946010406629711"><ele>172.8</ele><time>2026-04-18T15:03:29.969Z</time></trkpt><trkpt lat="45.16993762730078" lon="7.946098345322669"><ele>172.60000000000002</ele><time>2026-04-18T15:03:30.969Z</time></trkpt><trkpt lat="45.16984845286886" lon="7.946098075916077"><ele>172.39999999999998</ele><time>2026-04-18T15:03:32.965Z</time></trkpt><trkpt lat="45.16991811494246" lon="7.946254694234279"><ele>172.2</ele><time>2026-04-18T15:03:35.965Z</time></trkpt><trkpt lat="45.16993964034803" lon="7.94639512806433"><ele>172.0</ele><time>2026-04-18T15:03:37.964Z</time></trkpt><trkpt lat="45.169939475995776" lon="7.946517589847187"><ele>172.0</ele><time>2026-04-18T15:03:38.965Z</time></trkpt><trkpt lat="45.1699207104659" lon="7.946660065150066"><ele>172.0</ele><time>2026-04-18T15:03:39.965Z</time></trkpt><trkpt lat="45.169899973440074" lon="7.94678761590084"><ele>172.0</ele><time>2026-04-18T15:03:40.965Z</time></trkpt><trkpt lat="45.16987914333171" lon="7.946937102052749"><ele>172.0</ele><time>2026-04-18T15:03:41.965Z</time></trkpt><trkpt lat="45.16985962127394" lon="7.947107123055958"><ele>172.0</ele><time>2026-04-18T15:03:42.965Z</time></trkpt><trkpt lat="45.16984193168177" lon="7.947294847759346"><ele>171.75</ele><time>2026-04-18T15:03:43.965Z</time></trkpt><trkpt lat="45.1698194713611" lon="7.947496440955632"><ele>171.5</ele><time>2026-04-18T15:03:44.964Z</time></trkpt><trkpt lat="45.169793052548115" lon="7.947690393653696"><ele>171.25</ele><time>2026-04-18T15:03:45.965Z</time></trkpt><trkpt lat="45.16976713988388" lon="7.947869829099847"><ele>171.0</ele><time>2026-04-18T15:03:46.965Z</time></trkpt><trkpt lat="45.169740090690574" lon="7.948056978139007"><ele>171.0</ele><time>2026-04-18T15:03:47.965Z</time></trkpt><trkpt lat="45.16971367541066" lon="7.948258820481339"><ele>171.0</ele><time>2026-04-18T15:03:48.965Z</time></trkpt><trkpt lat="45.16968750503874" lon="7.9484688188115165"><ele>171.0</ele><time>2026-04-18T15:03:49.965Z</time></trkpt><trkpt lat="45.16966380419033" lon="7.94868770674381"><ele>171.0</ele><time>2026-04-18T15:03:50.965Z</time></trkpt><trkpt lat="45.16963577812237" lon="7.948915381625988"><ele>171.0</ele><time>2026-04-18T15:03:51.965Z</time></trkpt><trkpt lat="45.16960581742239" lon="7.949149399926069"><ele>171.0</ele><time>2026-04-18T15:03:52.965Z</time></trkpt><trkpt lat="45.16957491421871" lon="7.949388733496344"><ele>171.33333333333334</ele><time>2026-04-18T15:03:53.965Z</time></trkpt><trkpt lat="45.16954431242714" lon="7.949628092955041"><ele>171.66666666666669</ele><time>2026-04-18T15:03:54.965Z</time></trkpt><trkpt lat="45.16951571926346" lon="7.949851005685948"><ele>172.0</ele><time>2026-04-18T15:03:55.965Z</time></trkpt><trkpt lat="45.16948617601096" lon="7.950078652746559"><ele>172.33333333333334</ele><time>2026-04-18T15:03:56.965Z</time></trkpt><trkpt lat="45.16945919591542" lon="7.950316296847933"><ele>172.66666666666666</ele><time>2026-04-18T15:03:57.965Z</time></trkpt><trkpt lat="45.16943202106863" lon="7.950561940604775"><ele>173.0</ele><time>2026-04-18T15:03:58.965Z</time></trkpt><trkpt lat="45.169402036063886" lon="7.95081305948922"><ele>173.0</ele><time>2026-04-18T15:03:59.965Z</time></trkpt><trkpt lat="45.16936995515429" lon="7.951068033001155"><ele>173.0</ele><time>2026-04-18T15:04:00.965Z</time></trkpt><trkpt lat="45.16933556535712" lon="7.951329626160648"><ele>173.0</ele><time>2026-04-18T15:04:01.965Z</time></trkpt><trkpt lat="45.16930187442365" lon="7.951593999216542"><ele>172.66666666666666</ele><time>2026-04-18T15:04:02.965Z</time></trkpt><trkpt lat="45.1692658804981" lon="7.951862522580493"><ele>172.33333333333334</ele><time>2026-04-18T15:04:03.965Z</time></trkpt><trkpt lat="45.169231593586595" lon="7.952136687208957"><ele>172.0</ele><time>2026-04-18T15:04:04.965Z</time></trkpt><trkpt lat="45.169199274453106" lon="7.95240645212834"><ele>172.66666666666669</ele><time>2026-04-18T15:04:05.965Z</time></trkpt><trkpt lat="45.16917110510252" lon="7.95265767673748"><ele>173.33333333333334</ele><time>2026-04-18T15:04:06.965Z</time></trkpt><trkpt lat="45.16914053128051" lon="7.9529011613137595"><ele>174.0</ele><time>2026-04-18T15:04:07.965Z</time></trkpt><trkpt lat="45.16911160293553" lon="7.953145708732735"><ele>173.66666666666666</ele><time>2026-04-18T15:04:08.965Z</time></trkpt><trkpt lat="45.16907902380494" lon="7.953388957523653"><ele>173.33333333333331</ele><time>2026-04-18T15:04:09.965Z</time></trkpt><trkpt lat="45.169045827213" lon="7.9536358145151755"><ele>173.0</ele><time>2026-04-18T15:04:10.965Z</time></trkpt><trkpt lat="45.16901441523879" lon="7.953880032291418"><ele>172.66666666666666</ele><time>2026-04-18T15:04:11.965Z</time></trkpt><trkpt lat="45.168988440376715" lon="7.954125219742782"><ele>172.33333333333334</ele><time>2026-04-18T15:04:12.965Z</time></trkpt><trkpt lat="45.16896343838489" lon="7.954366592273645"><ele>172.0</ele><time>2026-04-18T15:04:13.965Z</time></trkpt><trkpt lat="45.16893641105156" lon="7.954594334257854"><ele>171.66666666666669</ele><time>2026-04-18T15:04:14.965Z</time></trkpt><trkpt lat="45.16890736030701" lon="7.95481028441336"><ele>171.33333333333334</ele><time>2026-04-18T15:04:15.965Z</time></trkpt><trkpt lat="45.16887868632659" lon="7.955025722534202"><ele>171.0</ele><time>2026-04-18T15:04:16.965Z</time></trkpt><trkpt lat="45.16884995276294" lon="7.955244462482205"><ele>171.0</ele><time>2026-04-18T15:04:17.965Z</time></trkpt><trkpt lat="45.16881774087868" lon="7.955460781189455"><ele>171.0</ele><time>2026-04-18T15:04:18.965Z</time></trkpt><trkpt lat="45.168786176830096" lon="7.955677495034716"><ele>171.0</ele><time>2026-04-18T15:04:19.965Z</time></trkpt><trkpt lat="45.16875586953202" lon="7.95589478633135"><ele>171.25</ele><time>2026-04-18T15:04:20.965Z</time></trkpt><trkpt lat="45.16872950113265" lon="7.956100839812768"><ele>171.5</ele><time>2026-04-18T15:04:21.965Z</time></trkpt><trkpt lat="45.16870188022425" lon="7.95629523585779"><ele>171.75</ele><time>2026-04-18T15:04:22.965Z</time></trkpt><trkpt lat="45.168677819255166" lon="7.956475939260904"><ele>172.0</ele><time>2026-04-18T15:04:23.965Z</time></trkpt><trkpt lat="45.16865888268253" lon="7.956644331559439"><ele>171.6</ele><time>2026-04-18T15:04:24.965Z</time></trkpt><trkpt lat="45.16863441330689" lon="7.956802513508961"><ele>171.2</ele><time>2026-04-18T15:04:25.965Z</time></trkpt><trkpt lat="45.16860998757229" lon="7.9569370576518725"><ele>170.8</ele><time>2026-04-18T15:04:26.965Z</time></trkpt><trkpt lat="45.16858935479978" lon="7.957045316701756"><ele>170.4</ele><time>2026-04-18T15:04:27.965Z</time></trkpt><trkpt lat="45.168567044758596" lon="7.957135368266256"><ele>170.0</ele><time>2026-04-18T15:04:28.965Z</time></trkpt><trkpt lat="45.16849323592487" lon="7.957249378929282"><ele>170.0</ele><time>2026-04-18T15:04:30.965Z</time></trkpt><trkpt lat="45.16838888813524" lon="7.957181828498606"><ele>170.0</ele><time>2026-04-18T15:04:32.965Z</time></trkpt><trkpt lat="45.16832146814768" lon="7.957108121238307"><ele>170.0</ele><time>2026-04-18T15:04:33.965Z</time></trkpt><trkpt lat="45.16823216741668" lon="7.957065026784638"><ele>170.0</ele><time>2026-04-18T15:04:34.965Z</time></trkpt><trkpt lat="45.16811522163835" lon="7.956993449436841"><ele>170.0</ele><time>2026-04-18T15:04:35.965Z</time></trkpt><trkpt lat="45.16797668309561" lon="7.956911038416737"><ele>170.25</ele><time>2026-04-18T15:04:36.965Z</time></trkpt><trkpt lat="45.167832117149935" lon="7.956830277807479"><ele>170.5</ele><time>2026-04-18T15:04:37.965Z</time></trkpt><trkpt lat="45.167702624291586" lon="7.9567575325723"><ele>170.75</ele><time>2026-04-18T15:04:38.965Z</time></trkpt><trkpt lat="45.167578157465876" lon="7.9566839343322275"><ele>171.0</ele><time>2026-04-18T15:04:39.965Z</time></trkpt><trkpt lat="45.16744787834288" lon="7.956607095877302"><ele>171.25</ele><time>2026-04-18T15:04:40.965Z</time></trkpt><trkpt lat="45.167314321248654" lon="7.95652737361475"><ele>171.5</ele><time>2026-04-18T15:04:41.965Z</time></trkpt><trkpt lat="45.16718462312251" lon="7.956426502888379"><ele>171.75</ele><time>2026-04-18T15:04:42.965Z</time></trkpt><trkpt lat="45.16703792917688" lon="7.956364060452878"><ele>172.0</ele><time>2026-04-18T15:04:43.965Z</time></trkpt><trkpt lat="45.166898935657734" lon="7.95625088913258"><ele>172.0</ele><time>2026-04-18T15:04:44.965Z</time></trkpt><trkpt lat="45.16674806740472" lon="7.956154459807266"><ele>172.0</ele><time>2026-04-18T15:04:45.965Z</time></trkpt><trkpt lat="45.16659577651566" lon="7.956056370628497"><ele>172.0</ele><time>2026-04-18T15:04:46.965Z</time></trkpt><trkpt lat="45.16643610180842" lon="7.95596741060943"><ele>171.66666666666669</ele><time>2026-04-18T15:04:47.965Z</time></trkpt><trkpt lat="45.166270926621024" lon="7.955870552560829"><ele>171.33333333333334</ele><time>2026-04-18T15:04:48.965Z</time></trkpt><trkpt lat="45.16610188234015" lon="7.955777416703576"><ele>171.0</ele><time>2026-04-18T15:04:49.965Z</time></trkpt><trkpt lat="45.1659302249874" lon="7.955681762191044"><ele>171.0</ele><time>2026-04-18T15:04:50.965Z</time></trkpt><trkpt lat="45.16575860648881" lon="7.955580360215567"><ele>171.0</ele><time>2026-04-18T15:04:51.965Z</time></trkpt><trkpt lat="45.165591751866124" lon="7.955490909432306"><ele>171.0</ele><time>2026-04-18T15:04:52.965Z</time></trkpt><trkpt lat="45.16543308980295" lon="7.955396339931216"><ele>170.66666666666666</ele><time>2026-04-18T15:04:53.965Z</time></trkpt><trkpt lat="45.16527353904705" lon="7.9552994360885405"><ele>170.33333333333331</ele><time>2026-04-18T15:04:54.965Z</time></trkpt><trkpt lat="45.16511343872662" lon="7.955201888818296"><ele>170.0</ele><time>2026-04-18T15:04:55.965Z</time></trkpt><trkpt lat="45.16495045019655" lon="7.9551073019734035"><ele>169.66666666666666</ele><time>2026-04-18T15:04:56.965Z</time></trkpt><trkpt lat="45.16478540649833" lon="7.955012355413759"><ele>169.33333333333334</ele><time>2026-04-18T15:04:57.966Z</time></trkpt><trkpt lat="45.16461833049817" lon="7.954913268590644"><ele>169.0</ele><time>2026-04-18T15:04:58.966Z</time></trkpt><trkpt lat="45.16445258638792" lon="7.954814203343932"><ele>169.0</ele><time>2026-04-18T15:04:59.966Z</time></trkpt><trkpt lat="45.164289408040695" lon="7.954716381302427"><ele>169.0</ele><time>2026-04-18T15:05:00.966Z</time></trkpt><trkpt lat="45.164130599321524" lon="7.954618314352023"><ele>169.0</ele><time>2026-04-18T15:05:01.966Z</time></trkpt><trkpt lat="45.16397859949871" lon="7.954506869459594"><ele>170.0</ele><time>2026-04-18T15:05:02.966Z</time></trkpt><trkpt lat="45.163823565792136" lon="7.954424083026261"><ele>171.0</ele><time>2026-04-18T15:05:03.966Z</time></trkpt><trkpt lat="45.163675430096575" lon="7.954337072265981"><ele>172.0</ele><time>2026-04-18T15:05:04.966Z</time></trkpt><trkpt lat="45.16353050798755" lon="7.954255565711339"><ele>172.0</ele><time>2026-04-18T15:05:05.966Z</time></trkpt><trkpt lat="45.16338749613153" lon="7.954170260447047"><ele>172.0</ele><time>2026-04-18T15:05:06.966Z</time></trkpt><trkpt lat="45.16324726052867" lon="7.954089135546349"><ele>172.0</ele><time>2026-04-18T15:05:07.966Z</time></trkpt><trkpt lat="45.163117079759175" lon="7.953995248514186"><ele>171.75</ele><time>2026-04-18T15:05:08.966Z</time></trkpt><trkpt lat="45.16298051020741" lon="7.953925154119133"><ele>171.5</ele><time>2026-04-18T15:05:09.966Z</time></trkpt><trkpt lat="45.16285636535131" lon="7.953839919172433"><ele>171.25</ele><time>2026-04-18T15:05:10.966Z</time></trkpt><trkpt lat="45.1627246270717" lon="7.953779765467337"><ele>171.0</ele><time>2026-04-18T15:05:11.966Z</time></trkpt><trkpt lat="45.16259251862536" lon="7.95374825590001"><ele>171.0</ele><time>2026-04-18T15:05:12.966Z</time></trkpt><trkpt lat="45.1624600558709" lon="7.95375754395494"><ele>171.0</ele><time>2026-04-18T15:05:13.966Z</time></trkpt><trkpt lat="45.16233106860566" lon="7.953808918223812"><ele>171.0</ele><time>2026-04-18T15:05:14.966Z</time></trkpt><trkpt lat="45.16221228675" lon="7.953874751570117"><ele>171.0</ele><time>2026-04-18T15:05:15.966Z</time></trkpt><trkpt lat="45.16211191681782" lon="7.953931197433786"><ele>171.8</ele><time>2026-04-18T15:05:16.966Z</time></trkpt><trkpt lat="45.162034785816786" lon="7.953976857432697"><ele>172.60000000000002</ele><time>2026-04-18T15:05:17.966Z</time></trkpt><trkpt lat="45.16196630847794" lon="7.954024005215059"><ele>173.4</ele><time>2026-04-18T15:05:19.966Z</time></trkpt><trkpt lat="45.161897586545386" lon="7.95420848880301"><ele>174.2</ele><time>2026-04-18T15:05:21.966Z</time></trkpt><trkpt lat="45.16190729923642" lon="7.954345184938974"><ele>175.0</ele><time>2026-04-18T15:05:22.966Z</time></trkpt><trkpt lat="45.16190256512283" lon="7.954497900648873"><ele>175.0</ele><time>2026-04-18T15:05:23.966Z</time></trkpt><trkpt lat="45.16189778767356" lon="7.95466688789802"><ele>175.0</ele><time>2026-04-18T15:05:24.966Z</time></trkpt><trkpt lat="45.161893249730824" lon="7.954848808912465"><ele>175.0</ele><time>2026-04-18T15:05:25.966Z</time></trkpt><trkpt lat="45.16188835134282" lon="7.955045179985689"><ele>175.0</ele><time>2026-04-18T15:05:26.966Z</time></trkpt><trkpt lat="45.16188320127917" lon="7.955251640201364"><ele>174.5</ele><time>2026-04-18T15:05:27.966Z</time></trkpt><trkpt lat="45.16187810147756" lon="7.9554369232926865"><ele>174.0</ele><time>2026-04-18T15:05:28.966Z</time></trkpt><trkpt lat="45.161873180908344" lon="7.955606159378899"><ele>173.5</ele><time>2026-04-18T15:05:29.966Z</time></trkpt><trkpt lat="45.16186662355524" lon="7.95575873051667"><ele>173.0</ele><time>2026-04-18T15:05:30.966Z</time></trkpt><trkpt lat="45.16185555151148" lon="7.955891297248574"><ele>173.0</ele><time>2026-04-18T15:05:31.966Z</time></trkpt><trkpt lat="45.16183998541491" lon="7.95600419608266"><ele>173.0</ele><time>2026-04-18T15:05:32.966Z</time></trkpt><trkpt lat="45.161814365778646" lon="7.9561699978732285"><ele>173.0</ele><time>2026-04-18T15:05:34.966Z</time></trkpt><trkpt lat="45.161781256166606" lon="7.956285439528338"><ele>173.0</ele><time>2026-04-18T15:05:36.966Z</time></trkpt><trkpt lat="45.16169631383401" lon="7.956255772163258"><ele>173.0</ele><time>2026-04-18T15:05:38.963Z</time></trkpt><trkpt lat="45.161634092784126" lon="7.956173519024385"><ele>173.0</ele><time>2026-04-18T15:05:39.962Z</time></trkpt><trkpt lat="45.16155749903647" lon="7.9561104930743705"><ele>173.0</ele><time>2026-04-18T15:05:40.962Z</time></trkpt><trkpt lat="45.16144926260415" lon="7.9560674069379"><ele>173.0</ele><time>2026-04-18T15:05:41.962Z</time></trkpt><trkpt lat="45.161328228341304" lon="7.95604543532216"><ele>173.0</ele><time>2026-04-18T15:05:42.962Z</time></trkpt><trkpt lat="45.16120609970288" lon="7.956051429332932"><ele>173.0</ele><time>2026-04-18T15:05:43.962Z</time></trkpt><trkpt lat="45.16108145883305" lon="7.9560839575730755"><ele>173.5</ele><time>2026-04-18T15:05:44.963Z</time></trkpt><trkpt lat="45.16096194177091" lon="7.956138408582396"><ele>174.0</ele><time>2026-04-18T15:05:45.962Z</time></trkpt><trkpt lat="45.16084193480076" lon="7.956204763968276"><ele>174.5</ele><time>2026-04-18T15:05:46.962Z</time></trkpt><trkpt lat="45.160731041353586" lon="7.956274582735193"><ele>175.0</ele><time>2026-04-18T15:05:47.962Z</time></trkpt><trkpt lat="45.160647181429475" lon="7.956321625200895"><ele>175.0</ele><time>2026-04-18T15:05:48.962Z</time></trkpt><trkpt lat="45.160567492616174" lon="7.95641485877449"><ele>175.0</ele><time>2026-04-18T15:05:50.962Z</time></trkpt><trkpt lat="45.160504959984706" lon="7.956426187138456"><ele>175.0</ele><time>2026-04-18T15:05:51.962Z</time></trkpt><trkpt lat="45.1604317527656" lon="7.956462400904166"><ele>175.0</ele><time>2026-04-18T15:05:52.962Z</time></trkpt><trkpt lat="45.16034941057368" lon="7.956511002932028"><ele>175.0</ele><time>2026-04-18T15:05:53.962Z</time></trkpt><trkpt lat="45.16024596515954" lon="7.956529016011398"><ele>175.0</ele><time>2026-04-18T15:05:54.962Z</time></trkpt><trkpt lat="45.16014838060475" lon="7.95653227499626"><ele>175.0</ele><time>2026-04-18T15:05:55.962Z</time></trkpt><trkpt lat="45.160056780823886" lon="7.9565156525735805"><ele>175.0</ele><time>2026-04-18T15:05:56.962Z</time></trkpt><trkpt lat="45.15997905340387" lon="7.956510120993626"><ele>175.0</ele><time>2026-04-18T15:05:57.962Z</time></trkpt><trkpt lat="45.15989970991522" lon="7.9564963810298615"><ele>175.0</ele><time>2026-04-18T15:05:58.962Z</time></trkpt><trkpt lat="45.15982406214982" lon="7.956471839091568"><ele>175.0</ele><time>2026-04-18T15:05:59.962Z</time></trkpt><trkpt lat="45.15974718161352" lon="7.956439368482063"><ele>175.0</ele><time>2026-04-18T15:06:00.962Z</time></trkpt><trkpt lat="45.15967823539745" lon="7.956407051437664"><ele>176.0</ele><time>2026-04-18T15:06:01.962Z</time></trkpt><trkpt lat="45.15960019647225" lon="7.956376299337927"><ele>177.0</ele><time>2026-04-18T15:06:03.962Z</time></trkpt><trkpt lat="45.15953243115567" lon="7.956337858829301"><ele>178.0</ele><time>2026-04-18T15:06:06.962Z</time></trkpt><trkpt lat="45.15948510100038" lon="7.956546474294824"><ele>179.0</ele><time>2026-04-18T15:06:07.962Z</time></trkpt><trkpt lat="45.15944526944117" lon="7.956712766624536"><ele>180.0</ele><time>2026-04-18T15:06:09.962Z</time></trkpt><trkpt lat="45.15942618552103" lon="7.9568113898338995"><ele>180.5</ele><time>2026-04-18T15:06:10.962Z</time></trkpt><trkpt lat="45.15950848824465" lon="7.956966266697132"><ele>181.0</ele><time>2026-04-18T15:06:11.962Z</time></trkpt><trkpt lat="45.15955482510154" lon="7.957108345602437"><ele>181.5</ele><time>2026-04-18T15:06:12.962Z</time></trkpt><trkpt lat="45.15960185879172" lon="7.957243233813843"><ele>182.0</ele><time>2026-04-18T15:06:13.962Z</time></trkpt><trkpt lat="45.1596532677155" lon="7.957409270847709"><ele>182.25</ele><time>2026-04-18T15:06:14.962Z</time></trkpt><trkpt lat="45.15971008805009" lon="7.957587906604825"><ele>182.5</ele><time>2026-04-18T15:06:15.962Z</time></trkpt><trkpt lat="45.15977130073361" lon="7.9577514594289"><ele>182.75</ele><time>2026-04-18T15:06:16.962Z</time></trkpt><trkpt lat="45.15980863099473" lon="7.957900106795691"><ele>183.0</ele><time>2026-04-18T15:06:17.962Z</time></trkpt><trkpt lat="45.15981217633422" lon="7.958027747423819"><ele>183.0</ele><time>2026-04-18T15:06:18.963Z</time></trkpt><trkpt lat="45.159785920807735" lon="7.958141884577346"><ele>183.0</ele><time>2026-04-18T15:06:19.963Z</time></trkpt><trkpt lat="45.159726816604206" lon="7.958257001947202"><ele>183.0</ele><time>2026-04-18T15:06:20.963Z</time></trkpt><trkpt lat="45.159630986885595" lon="7.958339271474484"><ele>183.0</ele><time>2026-04-18T15:06:21.963Z</time></trkpt><trkpt lat="45.15950560256627" lon="7.9584058244527585"><ele>183.0</ele><time>2026-04-18T15:06:22.963Z</time></trkpt><trkpt lat="45.15937966855151" lon="7.958493017364753"><ele>185.2</ele><time>2026-04-18T15:06:23.963Z</time></trkpt><trkpt lat="45.159258776002204" lon="7.958574895456248"><ele>187.4</ele><time>2026-04-18T15:06:24.963Z</time></trkpt><trkpt lat="45.15916067277415" lon="7.958648309677008"><ele>189.6</ele><time>2026-04-18T15:06:25.963Z</time></trkpt><trkpt lat="45.15909084429625" lon="7.958741867834151"><ele>191.79999999999998</ele><time>2026-04-18T15:06:26.963Z</time></trkpt><trkpt lat="45.159052709265644" lon="7.958867400547307"><ele>194.0</ele><time>2026-04-18T15:06:27.963Z</time></trkpt><trkpt lat="45.159067604029524" lon="7.958990684731421"><ele>194.0</ele><time>2026-04-18T15:06:28.963Z</time></trkpt><trkpt lat="45.15912650711692" lon="7.959113979739903"><ele>194.0</ele><time>2026-04-18T15:06:29.963Z</time></trkpt><trkpt lat="45.15920957829391" lon="7.959234255146271"><ele>194.0</ele><time>2026-04-18T15:06:30.963Z</time></trkpt><trkpt lat="45.15929910294122" lon="7.95937178796925"><ele>194.0</ele><time>2026-04-18T15:06:31.963Z</time></trkpt><trkpt lat="45.15936771770761" lon="7.959525475443862"><ele>197.0</ele><time>2026-04-18T15:06:32.963Z</time></trkpt><trkpt lat="45.15940441106466" lon="7.959663406477112"><ele>200.0</ele><time>2026-04-18T15:06:33.963Z</time></trkpt><trkpt lat="45.15940163105344" lon="7.959805798551259"><ele>203.0</ele><time>2026-04-18T15:06:34.963Z</time></trkpt><trkpt lat="45.159374936765715" lon="7.95996486609708"><ele>206.0</ele><time>2026-04-18T15:06:35.963Z</time></trkpt><trkpt lat="45.15932455779443" lon="7.96013461888064"><ele>206.0</ele><time>2026-04-18T15:06:36.963Z</time></trkpt><trkpt lat="45.159267155984615" lon="7.960316989508988"><ele>206.0</ele><time>2026-04-18T15:06:37.963Z</time></trkpt><trkpt lat="45.15920634527193" lon="7.960511895630367"><ele>206.0</ele><time>2026-04-18T15:06:38.963Z</time></trkpt><trkpt lat="45.15913742656933" lon="7.960717424164724"><ele>204.0</ele><time>2026-04-18T15:06:39.963Z</time></trkpt><trkpt lat="45.15908788597939" lon="7.960909942914662"><ele>202.0</ele><time>2026-04-18T15:06:40.963Z</time></trkpt><trkpt lat="45.159046135430756" lon="7.961081844188333"><ele>200.0</ele><time>2026-04-18T15:06:41.963Z</time></trkpt><trkpt lat="45.15899274644075" lon="7.961213090186195"><ele>198.0</ele><time>2026-04-18T15:06:42.963Z</time></trkpt><trkpt lat="45.15891104549188" lon="7.9613067670701385"><ele>202.4</ele><time>2026-04-18T15:06:43.963Z</time></trkpt><trkpt lat="45.15881281409967" lon="7.96137071494808"><ele>206.8</ele><time>2026-04-18T15:06:44.963Z</time></trkpt><trkpt lat="45.15870384397384" lon="7.9614089110512944"><ele>211.2</ele><time>2026-04-18T15:06:45.963Z</time></trkpt><trkpt lat="45.158612929590745" lon="7.961470727047854"><ele>215.6</ele><time>2026-04-18T15:06:46.963Z</time></trkpt><trkpt lat="45.15853700589772" lon="7.961597426378878"><ele>220.0</ele><time>2026-04-18T15:06:47.963Z</time></trkpt><trkpt lat="45.158476694333565" lon="7.961746774677852"><ele>220.0</ele><time>2026-04-18T15:06:48.963Z</time></trkpt><trkpt lat="45.15842083032489" lon="7.961953060404875"><ele>220.0</ele><time>2026-04-18T15:06:49.963Z</time></trkpt><trkpt lat="45.158379923322904" lon="7.962131925714931"><ele>220.0</ele><time>2026-04-18T15:06:50.963Z</time></trkpt><trkpt lat="45.15831680078607" lon="7.962306427984382"><ele>220.0</ele><time>2026-04-18T15:06:51.963Z</time></trkpt><trkpt lat="45.158205325608705" lon="7.962446992252516"><ele>225.75</ele><time>2026-04-18T15:06:52.963Z</time></trkpt><trkpt lat="45.158096712765094" lon="7.962588361514574"><ele>231.5</ele><time>2026-04-18T15:06:53.963Z</time></trkpt><trkpt lat="45.15799355253678" lon="7.962686894556508"><ele>237.25</ele><time>2026-04-18T15:06:54.963Z</time></trkpt><trkpt lat="45.15792135353696" lon="7.9628286299487225"><ele>243.0</ele><time>2026-04-18T15:06:55.963Z</time></trkpt><trkpt lat="45.15788698501857" lon="7.963007322307904"><ele>243.0</ele><time>2026-04-18T15:06:56.963Z</time></trkpt><trkpt lat="45.157886733348214" lon="7.963195783657183"><ele>243.0</ele><time>2026-04-18T15:06:57.963Z</time></trkpt><trkpt lat="45.157875209930594" lon="7.963350139143761"><ele>243.0</ele><time>2026-04-18T15:06:58.963Z</time></trkpt><trkpt lat="45.157831232711885" lon="7.963476288993527"><ele>243.0</ele><time>2026-04-18T15:06:59.963Z</time></trkpt><trkpt lat="45.15775195006706" lon="7.96359412999138"><ele>239.75</ele><time>2026-04-18T15:07:00.963Z</time></trkpt><trkpt lat="45.15764022980163" lon="7.963691295913591"><ele>236.5</ele><time>2026-04-18T15:07:01.963Z</time></trkpt><trkpt lat="45.15751345505565" lon="7.963787006076217"><ele>233.25</ele><time>2026-04-18T15:07:02.963Z</time></trkpt><trkpt lat="45.15739147118265" lon="7.9639041872298595"><ele>230.0</ele><time>2026-04-18T15:07:03.963Z</time></trkpt><trkpt lat="45.15727830746814" lon="7.9640248626036945"><ele>235.75</ele><time>2026-04-18T15:07:04.963Z</time></trkpt><trkpt lat="45.15716962041793" lon="7.9641587283119755"><ele>241.5</ele><time>2026-04-18T15:07:05.963Z</time></trkpt><trkpt lat="45.15709656163363" lon="7.96434434068741"><ele>247.25</ele><time>2026-04-18T15:07:06.963Z</time></trkpt><trkpt lat="45.157056440203604" lon="7.964548830691599"><ele>253.0</ele><time>2026-04-18T15:07:07.963Z</time></trkpt><trkpt lat="45.15701409628713" lon="7.964749062857087"><ele>253.0</ele><time>2026-04-18T15:07:08.963Z</time></trkpt><trkpt lat="45.156939786050074" lon="7.964956100038427"><ele>253.0</ele><time>2026-04-18T15:07:09.963Z</time></trkpt><trkpt lat="45.156851191060895" lon="7.965175801572307"><ele>253.0</ele><time>2026-04-18T15:07:10.963Z</time></trkpt><trkpt lat="45.156772312447146" lon="7.965391331124942"><ele>252.25</ele><time>2026-04-18T15:07:11.963Z</time></trkpt><trkpt lat="45.15670446260469" lon="7.9655862841325495"><ele>251.5</ele><time>2026-04-18T15:07:12.963Z</time></trkpt><trkpt lat="45.156644346472206" lon="7.965761382133278"><ele>250.75</ele><time>2026-04-18T15:07:13.963Z</time></trkpt><trkpt lat="45.156587996015595" lon="7.965913761580762"><ele>250.0</ele><time>2026-04-18T15:07:14.963Z</time></trkpt><trkpt lat="45.15652628690544" lon="7.966039393170566"><ele>251.5</ele><time>2026-04-18T15:07:15.963Z</time></trkpt><trkpt lat="45.156445501918284" lon="7.966154286412388"><ele>253.0</ele><time>2026-04-18T15:07:16.963Z</time></trkpt><trkpt lat="45.156348768632604" lon="7.966266936283109"><ele>254.5</ele><time>2026-04-18T15:07:17.963Z</time></trkpt><trkpt lat="45.15623299756673" lon="7.966383300007337"><ele>256.0</ele><time>2026-04-18T15:07:18.963Z</time></trkpt><trkpt lat="45.15611067368574" lon="7.966494202618766"><ele>256.0</ele><time>2026-04-18T15:07:19.963Z</time></trkpt><trkpt lat="45.15598681768833" lon="7.966574348434593"><ele>256.0</ele><time>2026-04-18T15:07:20.963Z</time></trkpt><trkpt lat="45.15589770148889" lon="7.966693353261331"><ele>256.0</ele><time>2026-04-18T15:07:21.963Z</time></trkpt><trkpt lat="45.15584309415454" lon="7.9668619437656005"><ele>256.0</ele><time>2026-04-18T15:07:22.963Z</time></trkpt><trkpt lat="45.15582135282351" lon="7.9670558338098365"><ele>254.75</ele><time>2026-04-18T15:07:23.963Z</time></trkpt><trkpt lat="45.15580044179195" lon="7.967253856390003"><ele>253.5</ele><time>2026-04-18T15:07:24.963Z</time></trkpt><trkpt lat="45.15577852277616" lon="7.967464401842342"><ele>252.25</ele><time>2026-04-18T15:07:25.963Z</time></trkpt><trkpt lat="45.15575928179124" lon="7.967667219972958"><ele>251.0</ele><time>2026-04-18T15:07:26.963Z</time></trkpt><trkpt lat="45.15573117555743" lon="7.9678444391544705"><ele>250.66666666666669</ele><time>2026-04-18T15:07:27.963Z</time></trkpt><trkpt lat="45.15570723453629" lon="7.9679854535773655"><ele>250.33333333333334</ele><time>2026-04-18T15:07:28.963Z</time></trkpt><trkpt lat="45.1556877118194" lon="7.9681059929547855"><ele>250.0</ele><time>2026-04-18T15:07:29.963Z</time></trkpt><trkpt lat="45.15567090627129" lon="7.968212359918868"><ele>249.66666666666669</ele><time>2026-04-18T15:07:30.963Z</time></trkpt><trkpt lat="45.15562183320065" lon="7.968336604119917"><ele>249.33333333333334</ele><time>2026-04-18T15:07:32.963Z</time></trkpt><trkpt lat="45.15556663408497" lon="7.96838264543753"><ele>249.0</ele><time>2026-04-18T15:07:33.963Z</time></trkpt><trkpt lat="45.155452392893736" lon="7.968378092852613"><ele>248.39999999999998</ele><time>2026-04-18T15:07:35.963Z</time></trkpt><trkpt lat="45.15537469491479" lon="7.9683636987226905"><ele>247.79999999999998</ele><time>2026-04-18T15:07:36.963Z</time></trkpt><trkpt lat="45.155286834011015" lon="7.9683409406761445"><ele>247.20000000000002</ele><time>2026-04-18T15:07:37.963Z</time></trkpt><trkpt lat="45.15520181521731" lon="7.968360584866331"><ele>246.60000000000002</ele><time>2026-04-18T15:07:38.963Z</time></trkpt><trkpt lat="45.1551246107791" lon="7.968434231427324"><ele>246.0</ele><time>2026-04-18T15:07:39.963Z</time></trkpt><trkpt lat="45.15503888575253" lon="7.968536482659823"><ele>247.33333333333334</ele><time>2026-04-18T15:07:40.963Z</time></trkpt><trkpt lat="45.15495997581739" lon="7.968636965014668"><ele>248.66666666666669</ele><time>2026-04-18T15:07:41.963Z</time></trkpt><trkpt lat="45.15488364404629" lon="7.968728478470997"><ele>250.0</ele><time>2026-04-18T15:07:42.963Z</time></trkpt><trkpt lat="45.15481872839737" lon="7.968791381426468"><ele>251.33333333333334</ele><time>2026-04-18T15:07:43.963Z</time></trkpt><trkpt lat="45.15474663097026" lon="7.968833800881041"><ele>252.66666666666669</ele><time>2026-04-18T15:07:44.96Z</time></trkpt><trkpt lat="45.154669950126376" lon="7.968785688131027"><ele>254.0</ele><time>2026-04-18T15:07:45.96Z</time></trkpt><trkpt lat="45.15461094486145" lon="7.968694822976482"><ele>250.33333333333334</ele><time>2026-04-18T15:07:46.96Z</time></trkpt><trkpt lat="45.15456633236193" lon="7.968586053906532"><ele>246.66666666666669</ele><time>2026-04-18T15:07:47.96Z</time></trkpt><trkpt lat="45.15456608030479" lon="7.968468854122733"><ele>243.0</ele><time>2026-04-18T15:07:48.96Z</time></trkpt><trkpt lat="45.154521793798295" lon="7.968379827927134"><ele>239.33333333333331</ele><time>2026-04-18T15:07:49.96Z</time></trkpt><trkpt lat="45.15444094171002" lon="7.968337691030661"><ele>235.66666666666666</ele><time>2026-04-18T15:07:50.96Z</time></trkpt><trkpt lat="45.1543557850756" lon="7.968362568004141"><ele>232.0</ele><time>2026-04-18T15:07:51.96Z</time></trkpt><trkpt lat="45.15427548000591" lon="7.968452029737254"><ele>232.0</ele><time>2026-04-18T15:07:52.96Z</time></trkpt><trkpt lat="45.15422293255296" lon="7.9685752119219755"><ele>232.0</ele><time>2026-04-18T15:07:53.96Z</time></trkpt><trkpt lat="45.15421112086726" lon="7.968720969806376"><ele>232.0</ele><time>2026-04-18T15:07:54.961Z</time></trkpt><trkpt lat="45.154186676715256" lon="7.968851419052753"><ele>232.0</ele><time>2026-04-18T15:07:55.961Z</time></trkpt><trkpt lat="45.15416430152906" lon="7.968977233107785"><ele>232.0</ele><time>2026-04-18T15:07:56.96Z</time></trkpt><trkpt lat="45.15411183936989" lon="7.969077853554343"><ele>232.0</ele><time>2026-04-18T15:07:57.96Z</time></trkpt><trkpt lat="45.15406333959253" lon="7.969177901011862"><ele>232.0</ele><time>2026-04-18T15:07:58.96Z</time></trkpt><trkpt lat="45.153981680453526" lon="7.969264205652768"><ele>232.0</ele><time>2026-04-18T15:07:59.96Z</time></trkpt><trkpt lat="45.153939053157856" lon="7.969404273103925"><ele>232.0</ele><time>2026-04-18T15:08:00.96Z</time></trkpt><trkpt lat="45.153908642065296" lon="7.969534508776081"><ele>232.0</ele><time>2026-04-18T15:08:01.96Z</time></trkpt><trkpt lat="45.15389970244617" lon="7.969672815711506"><ele>228.0</ele><time>2026-04-18T15:08:02.96Z</time></trkpt><trkpt lat="45.15393376650075" lon="7.969811368418124"><ele>224.0</ele><time>2026-04-18T15:08:03.96Z</time></trkpt><trkpt lat="45.15394199304761" lon="7.969935201669806"><ele>220.0</ele><time>2026-04-18T15:08:04.96Z</time></trkpt><trkpt lat="45.153938329456466" lon="7.970068058345541"><ele>216.0</ele><time>2026-04-18T15:08:05.96Z</time></trkpt><trkpt lat="45.153925902487984" lon="7.97019902794715"><ele>212.0</ele><time>2026-04-18T15:08:06.96Z</time></trkpt><trkpt lat="45.15389152835094" lon="7.970326394362822"><ele>212.0</ele><time>2026-04-18T15:08:07.96Z</time></trkpt><trkpt lat="45.15383638300872" lon="7.970451993256167"><ele>212.0</ele><time>2026-04-18T15:08:08.96Z</time></trkpt><trkpt lat="45.15378628636995" lon="7.97055986622093"><ele>212.0</ele><time>2026-04-18T15:08:09.96Z</time></trkpt><trkpt lat="45.153733313858034" lon="7.970667829739899"><ele>212.0</ele><time>2026-04-18T15:08:10.96Z</time></trkpt><trkpt lat="45.15367688621392" lon="7.97078739117319"><ele>212.0</ele><time>2026-04-18T15:08:11.961Z</time></trkpt><trkpt lat="45.15364046122019" lon="7.970902556958291"><ele>212.0</ele><time>2026-04-18T15:08:12.961Z</time></trkpt><trkpt lat="45.15361063381124" lon="7.97101878099008"><ele>212.0</ele><time>2026-04-18T15:08:14.961Z</time></trkpt><trkpt lat="45.15347236490866" lon="7.971002546244468"><ele>212.0</ele><time>2026-04-18T15:08:17.961Z</time></trkpt><trkpt lat="45.15340825730886" lon="7.970992551287715"><ele>212.0</ele><time>2026-04-18T15:08:18.961Z</time></trkpt><trkpt lat="45.15332803651633" lon="7.970886845695668"><ele>212.0</ele><time>2026-04-18T15:08:20.961Z</time></trkpt><trkpt lat="45.153297135394425" lon="7.970716160532353"><ele>212.00000000000003</ele><time>2026-04-18T15:08:22.961Z</time></trkpt><trkpt lat="45.1532984789046" lon="7.970590733266675"><ele>212.0</ele><time>2026-04-18T15:08:24.961Z</time></trkpt><trkpt lat="45.153268397929715" lon="7.970488954694216"><ele>212.0</ele><time>2026-04-18T15:08:26.961Z</time></trkpt><trkpt lat="45.15319892070788" lon="7.970448322783511"><ele>212.0</ele><time>2026-04-18T15:08:27.961Z</time></trkpt><trkpt lat="45.153128182271416" lon="7.970419167586554"><ele>212.00000000000003</ele><time>2026-04-18T15:08:28.961Z</time></trkpt><trkpt lat="45.153069777200784" lon="7.97037598172389"><ele>212.0</ele><time>2026-04-18T15:08:29.961Z</time></trkpt><trkpt lat="45.15301156767576" lon="7.970320056731145"><ele>210.33333333333334</ele><time>2026-04-18T15:08:30.961Z</time></trkpt><trkpt lat="45.152942875745524" lon="7.970270417501333"><ele>208.66666666666669</ele><time>2026-04-18T15:08:31.961Z</time></trkpt><trkpt lat="45.152894357688766" lon="7.970182201509075"><ele>207.0</ele><time>2026-04-18T15:08:32.961Z</time></trkpt><trkpt lat="45.15284392524212" lon="7.970126934290606"><ele>205.33333333333331</ele><time>2026-04-18T15:08:33.961Z</time></trkpt><trkpt lat="45.15274291404261" lon="7.970039879645446"><ele>203.66666666666666</ele><time>2026-04-18T15:08:35.961Z</time></trkpt><trkpt lat="45.15267248521225" lon="7.970046209274625"><ele>202.0</ele><time>2026-04-18T15:08:36.961Z</time></trkpt><trkpt lat="45.15262069191635" lon="7.9701238440208355"><ele>202.0</ele><time>2026-04-18T15:08:37.961Z</time></trkpt><trkpt lat="45.152595965704634" lon="7.970239026845086"><ele>202.0</ele><time>2026-04-18T15:08:38.961Z</time></trkpt><trkpt lat="45.15256830595539" lon="7.970330419884636"><ele>202.0</ele><time>2026-04-18T15:08:39.961Z</time></trkpt><trkpt lat="45.15251821852378" lon="7.970460044540645"><ele>202.0</ele><time>2026-04-18T15:08:41.961Z</time></trkpt><trkpt lat="45.15257885032597" lon="7.970300152725274"><ele>202.0</ele><time>2026-04-18T15:08:51.961Z</time></trkpt><trkpt lat="45.15262585520474" lon="7.970137901264143"><ele>201.99999999999997</ele><time>2026-04-18T15:08:52.961Z</time></trkpt><trkpt lat="45.15264740238807" lon="7.970033939353218"><ele>202.0</ele><time>2026-04-18T15:08:53.961Z</time></trkpt><trkpt lat="45.152753021321836" lon="7.970007527395735"><ele>202.0</ele><time>2026-04-18T15:08:55.961Z</time></trkpt><trkpt lat="45.15281728997018" lon="7.970089580656974"><ele>202.0</ele><time>2026-04-18T15:08:56.961Z</time></trkpt><trkpt lat="45.15287229783587" lon="7.970178547374998"><ele>201.99999999999997</ele><time>2026-04-18T15:08:57.961Z</time></trkpt><trkpt lat="45.152926816033016" lon="7.970251920197997"><ele>202.0</ele><time>2026-04-18T15:08:58.961Z</time></trkpt><trkpt lat="45.15301087520756" lon="7.970280271093671"><ele>202.0</ele><time>2026-04-18T15:09:03.961Z</time></trkpt><trkpt lat="45.15300956660133" lon="7.9704073143354135"><ele>202.0</ele><time>2026-04-18T15:09:05.961Z</time></trkpt><trkpt lat="45.152978503565826" lon="7.970528979621253"><ele>202.0</ele><time>2026-04-18T15:09:06.961Z</time></trkpt><trkpt lat="45.15299528116706" lon="7.9706398589954475"><ele>202.0</ele><time>2026-04-18T15:09:07.961Z</time></trkpt><trkpt lat="45.1530759506382" lon="7.970787009189847"><ele>202.0</ele><time>2026-04-18T15:09:08.961Z</time></trkpt><trkpt lat="45.153126683725716" lon="7.970861586026775"><ele>203.5</ele><time>2026-04-18T15:09:09.961Z</time></trkpt><trkpt lat="45.15323838696722" lon="7.970908363685052"><ele>205.0</ele><time>2026-04-18T15:09:10.961Z</time></trkpt><trkpt lat="45.153441315487775" lon="7.971066126636117"><ele>206.5</ele><time>2026-04-18T15:09:11.961Z</time></trkpt><trkpt lat="45.153534849603844" lon="7.971092975421904"><ele>208.0</ele><time>2026-04-18T15:09:12.961Z</time></trkpt><trkpt lat="45.153606361010254" lon="7.971130511940604"><ele>208.0</ele><time>2026-04-18T15:09:14.961Z</time></trkpt><trkpt lat="45.15361307875085" lon="7.971322616414337"><ele>208.0</ele><time>2026-04-18T15:09:16.961Z</time></trkpt><trkpt lat="45.153641891224446" lon="7.9714656502131955"><ele>208.0</ele><time>2026-04-18T15:09:17.961Z</time></trkpt><trkpt lat="45.153682937851734" lon="7.971626704799359"><ele>208.0</ele><time>2026-04-18T15:09:18.961Z</time></trkpt><trkpt lat="45.153737765893666" lon="7.971781735364753"><ele>206.75</ele><time>2026-04-18T15:09:19.961Z</time></trkpt><trkpt lat="45.15380696143565" lon="7.9719023086366425"><ele>205.5</ele><time>2026-04-18T15:09:20.961Z</time></trkpt><trkpt lat="45.153872010634565" lon="7.9720410954669045"><ele>204.25</ele><time>2026-04-18T15:09:21.961Z</time></trkpt><trkpt lat="45.15390836297281" lon="7.972216906354928"><ele>203.0</ele><time>2026-04-18T15:09:22.961Z</time></trkpt><trkpt lat="45.15398232477415" lon="7.972365191548569"><ele>205.25</ele><time>2026-04-18T15:09:23.961Z</time></trkpt><trkpt lat="45.15406854646735" lon="7.972501896188137"><ele>207.5</ele><time>2026-04-18T15:09:24.961Z</time></trkpt><trkpt lat="45.154162264856936" lon="7.972622970246791"><ele>209.75</ele><time>2026-04-18T15:09:25.961Z</time></trkpt><trkpt lat="45.15426751650194" lon="7.972743611924508"><ele>212.0</ele><time>2026-04-18T15:09:26.961Z</time></trkpt><trkpt lat="45.15437935244845" lon="7.972855378864032"><ele>212.0</ele><time>2026-04-18T15:09:27.961Z</time></trkpt><trkpt lat="45.15449486122439" lon="7.972951449573307"><ele>212.0</ele><time>2026-04-18T15:09:28.961Z</time></trkpt><trkpt lat="45.15461575048097" lon="7.973019852690342"><ele>212.0</ele><time>2026-04-18T15:09:29.961Z</time></trkpt><trkpt lat="45.15473263970756" lon="7.973123894024849"><ele>212.0</ele><time>2026-04-18T15:09:30.961Z</time></trkpt><trkpt lat="45.15484883265341" lon="7.9732101763491405"><ele>214.5</ele><time>2026-04-18T15:09:31.961Z</time></trkpt><trkpt lat="45.15495932271003" lon="7.973277813176728"><ele>217.0</ele><time>2026-04-18T15:09:32.961Z</time></trkpt><trkpt lat="45.15506693421199" lon="7.973312776921606"><ele>219.5</ele><time>2026-04-18T15:09:33.961Z</time></trkpt><trkpt lat="45.15519025173224" lon="7.973302659099317"><ele>222.0</ele><time>2026-04-18T15:09:34.961Z</time></trkpt><trkpt lat="45.15531118136422" lon="7.973324319185462"><ele>222.0</ele><time>2026-04-18T15:09:35.961Z</time></trkpt><trkpt lat="45.15542572099521" lon="7.973355019944759"><ele>222.0</ele><time>2026-04-18T15:09:36.961Z</time></trkpt><trkpt lat="45.15552081813096" lon="7.973387568934949"><ele>222.0</ele><time>2026-04-18T15:09:37.961Z</time></trkpt><trkpt lat="45.15560172541038" lon="7.973421247656783"><ele>222.0</ele><time>2026-04-18T15:09:38.961Z</time></trkpt><trkpt lat="45.15567682481848" lon="7.973482812482797"><ele>222.0</ele><time>2026-04-18T15:09:39.961Z</time></trkpt><trkpt lat="45.15574068190876" lon="7.973577555487087"><ele>220.5</ele><time>2026-04-18T15:09:40.961Z</time></trkpt><trkpt lat="45.15576313830398" lon="7.973712994935963"><ele>219.0</ele><time>2026-04-18T15:09:41.961Z</time></trkpt><trkpt lat="45.155796142973266" lon="7.973877923542975"><ele>217.5</ele><time>2026-04-18T15:09:42.961Z</time></trkpt><trkpt lat="45.15582791942474" lon="7.974040557728936"><ele>216.0</ele><time>2026-04-18T15:09:43.961Z</time></trkpt><trkpt lat="45.15585627046138" lon="7.974202019111929"><ele>216.0</ele><time>2026-04-18T15:09:44.961Z</time></trkpt><trkpt lat="45.15587596043602" lon="7.974359889698745"><ele>216.0</ele><time>2026-04-18T15:09:45.961Z</time></trkpt><trkpt lat="45.155871973519325" lon="7.974519979923106"><ele>216.0</ele><time>2026-04-18T15:09:46.961Z</time></trkpt><trkpt lat="45.15580481430363" lon="7.97466439655557"><ele>216.0</ele><time>2026-04-18T15:09:47.961Z</time></trkpt><trkpt lat="45.155736571986324" lon="7.97481845074036"><ele>213.4</ele><time>2026-04-18T15:09:48.961Z</time></trkpt><trkpt lat="45.15565166660994" lon="7.974963717707995"><ele>210.8</ele><time>2026-04-18T15:09:49.961Z</time></trkpt><trkpt lat="45.15558316403194" lon="7.9751051658475625"><ele>208.20000000000002</ele><time>2026-04-18T15:09:50.959Z</time></trkpt><trkpt lat="45.15551354441388" lon="7.975212276850476"><ele>205.60000000000002</ele><time>2026-04-18T15:09:51.959Z</time></trkpt><trkpt lat="45.15546535316938" lon="7.9753030766627235"><ele>203.0</ele><time>2026-04-18T15:09:52.959Z</time></trkpt><trkpt lat="45.15544487333935" lon="7.975425020768915"><ele>202.75</ele><time>2026-04-18T15:09:53.959Z</time></trkpt><trkpt lat="45.15543994732368" lon="7.975571387829928"><ele>202.5</ele><time>2026-04-18T15:09:54.958Z</time></trkpt><trkpt lat="45.15545273178539" lon="7.975748554156857"><ele>202.25</ele><time>2026-04-18T15:09:55.958Z</time></trkpt><trkpt lat="45.155472766340296" lon="7.975938818331101"><ele>202.0</ele><time>2026-04-18T15:09:56.959Z</time></trkpt><trkpt lat="45.15549666697499" lon="7.976132248241871"><ele>199.75</ele><time>2026-04-18T15:09:57.958Z</time></trkpt><trkpt lat="45.15552500029457" lon="7.976315077159517"><ele>197.5</ele><time>2026-04-18T15:09:58.958Z</time></trkpt><trkpt lat="45.155563233901745" lon="7.976477422213856"><ele>195.25</ele><time>2026-04-18T15:09:59.959Z</time></trkpt><trkpt lat="45.1556139519229" lon="7.9766271199357295"><ele>193.0</ele><time>2026-04-18T15:10:00.959Z</time></trkpt><trkpt lat="45.155679887004126" lon="7.976778001319987"><ele>194.25</ele><time>2026-04-18T15:10:01.959Z</time></trkpt><trkpt lat="45.15575892749224" lon="7.976930613499495"><ele>195.5</ele><time>2026-04-18T15:10:02.959Z</time></trkpt><trkpt lat="45.15584883057563" lon="7.977065604199099"><ele>196.75</ele><time>2026-04-18T15:10:03.958Z</time></trkpt><trkpt lat="45.15594207606561" lon="7.977200301927502"><ele>198.0</ele><time>2026-04-18T15:10:04.958Z</time></trkpt><trkpt lat="45.15603550737561" lon="7.977333240545759"><ele>198.0</ele><time>2026-04-18T15:10:05.958Z</time></trkpt><trkpt lat="45.15612100004715" lon="7.977475804711244"><ele>198.0</ele><time>2026-04-18T15:10:06.958Z</time></trkpt><trkpt lat="45.1561926949573" lon="7.9776448035941065"><ele>198.0</ele><time>2026-04-18T15:10:07.958Z</time></trkpt><trkpt lat="45.15625212765216" lon="7.977823303659527"><ele>198.0</ele><time>2026-04-18T15:10:08.958Z</time></trkpt><trkpt lat="45.15625981129027" lon="7.978035510586782"><ele>197.66666666666669</ele><time>2026-04-18T15:10:09.958Z</time></trkpt><trkpt lat="45.15628440674076" lon="7.978248587865026"><ele>197.33333333333334</ele><time>2026-04-18T15:10:10.958Z</time></trkpt><trkpt lat="45.156301712353226" lon="7.97847136776378"><ele>197.0</ele><time>2026-04-18T15:10:11.958Z</time></trkpt><trkpt lat="45.15634944462621" lon="7.978683571904221"><ele>197.66666666666669</ele><time>2026-04-18T15:10:12.958Z</time></trkpt><trkpt lat="45.156419494865304" lon="7.9788818359096565"><ele>198.33333333333331</ele><time>2026-04-18T15:10:13.958Z</time></trkpt><trkpt lat="45.156499514067825" lon="7.979069150611824"><ele>199.0</ele><time>2026-04-18T15:10:14.958Z</time></trkpt><trkpt lat="45.156578334950176" lon="7.979252330902667"><ele>196.66666666666666</ele><time>2026-04-18T15:10:15.958Z</time></trkpt><trkpt lat="45.156653526773404" lon="7.979444048526799"><ele>194.33333333333331</ele><time>2026-04-18T15:10:16.958Z</time></trkpt><trkpt lat="45.156707666769506" lon="7.979653764343624"><ele>192.0</ele><time>2026-04-18T15:10:17.958Z</time></trkpt><trkpt lat="45.15674956563929" lon="7.979866559844855"><ele>191.66666666666666</ele><time>2026-04-18T15:10:18.958Z</time></trkpt><trkpt lat="45.15677930365269" lon="7.980082039864118"><ele>191.33333333333331</ele><time>2026-04-18T15:10:19.958Z</time></trkpt><trkpt lat="45.156801435608486" lon="7.98030406828966"><ele>191.0</ele><time>2026-04-18T15:10:20.958Z</time></trkpt><trkpt lat="45.15680822463243" lon="7.980536920935216"><ele>191.0</ele><time>2026-04-18T15:10:21.958Z</time></trkpt><trkpt lat="45.156809583036896" lon="7.980777103536805"><ele>191.0</ele><time>2026-04-18T15:10:22.958Z</time></trkpt><trkpt lat="45.1568132862628" lon="7.981024840863139"><ele>191.0</ele><time>2026-04-18T15:10:23.958Z</time></trkpt><trkpt lat="45.15682466319414" lon="7.981280321367975"><ele>190.66666666666666</ele><time>2026-04-18T15:10:24.958Z</time></trkpt><trkpt lat="45.15682450494336" lon="7.981540907014019"><ele>190.33333333333334</ele><time>2026-04-18T15:10:25.958Z</time></trkpt><trkpt lat="45.15684700968889" lon="7.981810080630037"><ele>190.0</ele><time>2026-04-18T15:10:26.958Z</time></trkpt><trkpt lat="45.15688387666365" lon="7.982081718349661"><ele>188.33333333333334</ele><time>2026-04-18T15:10:27.958Z</time></trkpt><trkpt lat="45.156932211948494" lon="7.982350233960448"><ele>186.66666666666666</ele><time>2026-04-18T15:10:28.958Z</time></trkpt><trkpt lat="45.15698175971672" lon="7.982592957337886"><ele>185.0</ele><time>2026-04-18T15:10:29.958Z</time></trkpt><trkpt lat="45.157035007169135" lon="7.98283854142084"><ele>183.66666666666666</ele><time>2026-04-18T15:10:30.958Z</time></trkpt><trkpt lat="45.157092600380295" lon="7.9830860836010356"><ele>182.33333333333334</ele><time>2026-04-18T15:10:31.958Z</time></trkpt><trkpt lat="45.15716553228763" lon="7.983329972048426"><ele>181.0</ele><time>2026-04-18T15:10:32.958Z</time></trkpt><trkpt lat="45.15722389301465" lon="7.983580397711426"><ele>181.0</ele><time>2026-04-18T15:10:33.958Z</time></trkpt><trkpt lat="45.15728657514219" lon="7.983830583105823"><ele>181.0</ele><time>2026-04-18T15:10:34.958Z</time></trkpt><trkpt lat="45.15735719315986" lon="7.984081272055842"><ele>181.0</ele><time>2026-04-18T15:10:35.958Z</time></trkpt><trkpt lat="45.157434081532756" lon="7.984326585554178"><ele>181.33333333333334</ele><time>2026-04-18T15:10:36.958Z</time></trkpt><trkpt lat="45.1574957357573" lon="7.984572157792339"><ele>181.66666666666666</ele><time>2026-04-18T15:10:37.958Z</time></trkpt><trkpt lat="45.15757101502041" lon="7.984806290230141"><ele>182.0</ele><time>2026-04-18T15:10:38.959Z</time></trkpt><trkpt lat="45.15764458586781" lon="7.985043369296541"><ele>181.0</ele><time>2026-04-18T15:10:39.959Z</time></trkpt><trkpt lat="45.15771436220184" lon="7.985281916306345"><ele>180.0</ele><time>2026-04-18T15:10:40.959Z</time></trkpt><trkpt lat="45.157795613964325" lon="7.98551786464601"><ele>179.0</ele><time>2026-04-18T15:10:41.959Z</time></trkpt><trkpt lat="45.15785139962558" lon="7.985767751189432"><ele>178.0</ele><time>2026-04-18T15:10:42.959Z</time></trkpt><trkpt lat="45.15787375280084" lon="7.9860194357276475"><ele>177.0</ele><time>2026-04-18T15:10:43.959Z</time></trkpt><trkpt lat="45.157907684533996" lon="7.986247972216954"><ele>176.0</ele><time>2026-04-18T15:10:44.959Z</time></trkpt><trkpt lat="45.157965113068" lon="7.986453561472681"><ele>176.0</ele><time>2026-04-18T15:10:45.959Z</time></trkpt><trkpt lat="45.15802925027411" lon="7.9866316652306235"><ele>176.0</ele><time>2026-04-18T15:10:46.959Z</time></trkpt><trkpt lat="45.158118026906095" lon="7.986773278427983"><ele>176.0</ele><time>2026-04-18T15:10:47.959Z</time></trkpt><trkpt lat="45.15822391813889" lon="7.986888337703184"><ele>176.0</ele><time>2026-04-18T15:10:48.959Z</time></trkpt><trkpt lat="45.15829952748287" lon="7.98701468355143"><ele>178.20000000000002</ele><time>2026-04-18T15:10:49.959Z</time></trkpt><trkpt lat="45.1583488479584" lon="7.9871516162551"><ele>180.4</ele><time>2026-04-18T15:10:50.959Z</time></trkpt><trkpt lat="45.15835409652668" lon="7.987274356718682"><ele>182.6</ele><time>2026-04-18T15:10:51.959Z</time></trkpt><trkpt lat="45.158370218353085" lon="7.987398451839396"><ele>184.8</ele><time>2026-04-18T15:10:52.959Z</time></trkpt><trkpt lat="45.15839334575518" lon="7.987555424629326"><ele>187.0</ele><time>2026-04-18T15:10:53.959Z</time></trkpt><trkpt lat="45.15843234722283" lon="7.9876902917409005"><ele>187.0</ele><time>2026-04-18T15:10:54.959Z</time></trkpt><trkpt lat="45.15845342713229" lon="7.987808431613236"><ele>187.0</ele><time>2026-04-18T15:10:55.959Z</time></trkpt><trkpt lat="45.15848081858312" lon="7.987910384929994"><ele>187.0</ele><time>2026-04-18T15:10:56.959Z</time></trkpt><trkpt lat="45.158500951313144" lon="7.988022123666433"><ele>187.0</ele><time>2026-04-18T15:10:57.959Z</time></trkpt><trkpt lat="45.15852004274194" lon="7.988138161767658"><ele>187.0</ele><time>2026-04-18T15:10:58.959Z</time></trkpt><trkpt lat="45.15852442235602" lon="7.98826833084781"><ele>187.0</ele><time>2026-04-18T15:10:59.959Z</time></trkpt><trkpt lat="45.15851864905416" lon="7.98840507731381"><ele>186.0</ele><time>2026-04-18T15:11:00.959Z</time></trkpt><trkpt lat="45.158522009835536" lon="7.988538277245342"><ele>185.0</ele><time>2026-04-18T15:11:01.959Z</time></trkpt><trkpt lat="45.15853409142094" lon="7.988663691804633"><ele>184.0</ele><time>2026-04-18T15:11:02.959Z</time></trkpt><trkpt lat="45.15855626678126" lon="7.988781266972015"><ele>183.0</ele><time>2026-04-18T15:11:03.959Z</time></trkpt><trkpt lat="45.15859443879748" lon="7.988901901229192"><ele>182.0</ele><time>2026-04-18T15:11:04.959Z</time></trkpt><trkpt lat="45.158623145170296" lon="7.98903532867067"><ele>181.0</ele><time>2026-04-18T15:11:05.959Z</time></trkpt><trkpt lat="45.158654944632296" lon="7.989179935974391"><ele>180.0</ele><time>2026-04-18T15:11:06.959Z</time></trkpt><trkpt lat="45.158683467442145" lon="7.989323522839717"><ele>179.0</ele><time>2026-04-18T15:11:07.959Z</time></trkpt><trkpt lat="45.15870876280665" lon="7.989469453642971"><ele>178.0</ele><time>2026-04-18T15:11:08.959Z</time></trkpt><trkpt lat="45.1587498162944" lon="7.989611934538859"><ele>177.0</ele><time>2026-04-18T15:11:09.959Z</time></trkpt><trkpt lat="45.158753353117596" lon="7.989771426971609"><ele>177.0</ele><time>2026-04-18T15:11:10.959Z</time></trkpt><trkpt lat="45.15877411207706" lon="7.989896715395606"><ele>177.0</ele><time>2026-04-18T15:11:11.959Z</time></trkpt><trkpt lat="45.15879656813928" lon="7.990004721235929"><ele>177.0</ele><time>2026-04-18T15:11:12.959Z</time></trkpt><trkpt lat="45.158826501244256" lon="7.990100248984717"><ele>177.0</ele><time>2026-04-18T15:11:13.959Z</time></trkpt><trkpt lat="45.15891781063867" lon="7.990203986784653"><ele>177.0</ele><time>2026-04-18T15:11:15.959Z</time></trkpt><trkpt lat="45.158976785865086" lon="7.990256752379988"><ele>177.0</ele><time>2026-04-18T15:11:16.959Z</time></trkpt><trkpt lat="45.15907592476716" lon="7.990359609839402"><ele>176.42857142857144</ele><time>2026-04-18T15:11:18.959Z</time></trkpt><trkpt lat="45.159092228360834" lon="7.990448546903625"><ele>175.85714285714283</ele><time>2026-04-18T15:11:19.959Z</time></trkpt><trkpt lat="45.159094658664564" lon="7.990542183821074"><ele>175.28571428571428</ele><time>2026-04-18T15:11:20.959Z</time></trkpt><trkpt lat="45.159081489227574" lon="7.9906397227705135"><ele>174.71428571428572</ele><time>2026-04-18T15:11:21.959Z</time></trkpt><trkpt lat="45.15908364685448" lon="7.990755705391312"><ele>174.14285714285717</ele><time>2026-04-18T15:11:22.959Z</time></trkpt><trkpt lat="45.15908684705523" lon="7.990846174896701"><ele>173.57142857142856</ele><time>2026-04-18T15:11:23.959Z</time></trkpt><trkpt lat="45.15910745885665" lon="7.990981959683699"><ele>173.0</ele><time>2026-04-18T15:11:25.959Z</time></trkpt><trkpt lat="45.159113807000864" lon="7.991097030451827"><ele>172.8</ele><time>2026-04-18T15:11:27.959Z</time></trkpt><trkpt lat="45.159116713273185" lon="7.991250992055054"><ele>172.60000000000002</ele><time>2026-04-18T15:11:29.959Z</time></trkpt><trkpt lat="45.159116367816964" lon="7.991426170451377"><ele>172.39999999999998</ele><time>2026-04-18T15:11:31.959Z</time></trkpt><trkpt lat="45.15912028886211" lon="7.991521123553057"><ele>172.2</ele><time>2026-04-18T15:11:32.959Z</time></trkpt><trkpt lat="45.159120234749416" lon="7.991616046592487"><ele>172.0</ele><time>2026-04-18T15:11:33.959Z</time></trkpt><trkpt lat="45.15913107584339" lon="7.991778910637659"><ele>172.0</ele><time>2026-04-18T15:11:35.961Z</time></trkpt><trkpt lat="45.15913654132218" lon="7.9918750698978185"><ele>172.0</ele><time>2026-04-18T15:11:37.962Z</time></trkpt><trkpt lat="45.15928881076749" lon="7.991893215076569"><ele>172.0</ele><time>2026-04-18T15:11:38.963Z</time></trkpt><trkpt lat="45.15938478510936" lon="7.991942865432971"><ele>172.0</ele><time>2026-04-18T15:11:49.968Z</time></trkpt><trkpt lat="45.159320369472205" lon="7.992059465311046"><ele>172.0</ele><time>2026-04-18T15:11:51.969Z</time></trkpt><trkpt lat="45.15931854343492" lon="7.994868637124217"><ele>171.25</ele><time>2026-04-18T15:14:22.97Z</time></trkpt><trkpt lat="45.15943035510149" lon="7.994909022702741"><ele>170.5</ele><time>2026-04-18T15:14:23.97Z</time></trkpt><trkpt lat="45.15953780509832" lon="7.994948037705821"><ele>169.75</ele><time>2026-04-18T15:14:24.97Z</time></trkpt><trkpt lat="45.159651472480434" lon="7.99499174205744"><ele>169.0</ele><time>2026-04-18T15:14:25.97Z</time></trkpt><trkpt lat="45.15976918674759" lon="7.99503490038783"><ele>167.75</ele><time>2026-04-18T15:14:26.97Z</time></trkpt><trkpt lat="45.15989027667983" lon="7.995076303539002"><ele>166.5</ele><time>2026-04-18T15:14:27.97Z</time></trkpt><trkpt lat="45.160014459513754" lon="7.995144238716835"><ele>165.25</ele><time>2026-04-18T15:14:28.97Z</time></trkpt><trkpt lat="45.16015058575859" lon="7.995188521034635"><ele>164.0</ele><time>2026-04-18T15:14:29.97Z</time></trkpt><trkpt lat="45.16029094752496" lon="7.9952294159329576"><ele>164.0</ele><time>2026-04-18T15:14:30.97Z</time></trkpt><trkpt lat="45.16043332745865" lon="7.995271044605966"><ele>164.0</ele><time>2026-04-18T15:14:31.97Z</time></trkpt><trkpt lat="45.16057033296848" lon="7.9953134108529405"><ele>164.0</ele><time>2026-04-18T15:14:32.97Z</time></trkpt><trkpt lat="45.16069631490578" lon="7.995362353646474"><ele>164.0</ele><time>2026-04-18T15:14:33.97Z</time></trkpt><trkpt lat="45.16081141837137" lon="7.995408696897309"><ele>164.6</ele><time>2026-04-18T15:14:34.97Z</time></trkpt><trkpt lat="45.160915645525485" lon="7.99545621116443"><ele>165.2</ele><time>2026-04-18T15:14:35.97Z</time></trkpt><trkpt lat="45.1610149465935" lon="7.995495560193788"><ele>165.79999999999998</ele><time>2026-04-18T15:14:36.97Z</time></trkpt><trkpt lat="45.16111548465409" lon="7.995533291089939"><ele>166.39999999999998</ele><time>2026-04-18T15:14:37.97Z</time></trkpt><trkpt lat="45.16121800340648" lon="7.995580100788436"><ele>167.0</ele><time>2026-04-18T15:14:38.97Z</time></trkpt><trkpt lat="45.161328689202634" lon="7.9956107721251914"><ele>167.0</ele><time>2026-04-18T15:14:39.97Z</time></trkpt><trkpt lat="45.16144462565708" lon="7.995627423188449"><ele>167.0</ele><time>2026-04-18T15:14:40.97Z</time></trkpt><trkpt lat="45.161562424820275" lon="7.995646085940444"><ele>167.0</ele><time>2026-04-18T15:14:41.97Z</time></trkpt><trkpt lat="45.161694520023325" lon="7.995658940008557"><ele>167.0</ele><time>2026-04-18T15:14:42.97Z</time></trkpt><trkpt lat="45.16183489863958" lon="7.995663214849407"><ele>167.5</ele><time>2026-04-18T15:14:43.971Z</time></trkpt><trkpt lat="45.16197546958336" lon="7.9956722865667"><ele>168.0</ele><time>2026-04-18T15:14:44.971Z</time></trkpt><trkpt lat="45.162118206496345" lon="7.995700868971024"><ele>168.5</ele><time>2026-04-18T15:14:45.971Z</time></trkpt><trkpt lat="45.162255454678245" lon="7.995742974651487"><ele>169.0</ele><time>2026-04-18T15:14:46.971Z</time></trkpt><trkpt lat="45.162391728765336" lon="7.995791288877608"><ele>169.25</ele><time>2026-04-18T15:14:47.971Z</time></trkpt><trkpt lat="45.16252782744526" lon="7.995840794152092"><ele>169.5</ele><time>2026-04-18T15:14:48.971Z</time></trkpt><trkpt lat="45.162658291366895" lon="7.995894275737867"><ele>169.75</ele><time>2026-04-18T15:14:49.971Z</time></trkpt><trkpt lat="45.16279183251596" lon="7.995940683060911"><ele>170.0</ele><time>2026-04-18T15:14:50.971Z</time></trkpt><trkpt lat="45.16292094721194" lon="7.995991102043573"><ele>170.0</ele><time>2026-04-18T15:14:51.971Z</time></trkpt><trkpt lat="45.163047453349215" lon="7.996036969776689"><ele>170.0</ele><time>2026-04-18T15:14:52.971Z</time></trkpt><trkpt lat="45.16316485432767" lon="7.996086444905636"><ele>170.0</ele><time>2026-04-18T15:14:53.971Z</time></trkpt><trkpt lat="45.16327343545357" lon="7.996129737585863"><ele>170.0</ele><time>2026-04-18T15:14:54.971Z</time></trkpt><trkpt lat="45.16337243791346" lon="7.996172981992981"><ele>169.6</ele><time>2026-04-18T15:14:55.971Z</time></trkpt><trkpt lat="45.16346287958872" lon="7.996210762174561"><ele>169.2</ele><time>2026-04-18T15:14:56.971Z</time></trkpt><trkpt lat="45.16355178280146" lon="7.996256663044526"><ele>168.8</ele><time>2026-04-18T15:14:57.971Z</time></trkpt><trkpt lat="45.16362814045416" lon="7.996271554214685"><ele>168.4</ele><time>2026-04-18T15:14:58.971Z</time></trkpt><trkpt lat="45.16367137938894" lon="7.996352170647294"><ele>168.0</ele><time>2026-04-18T15:14:59.971Z</time></trkpt><trkpt lat="45.163739919034704" lon="7.996486685831923"><ele>168.0</ele><time>2026-04-18T15:15:01.971Z</time></trkpt><trkpt lat="45.16376054700263" lon="7.996584723032503"><ele>168.0</ele><time>2026-04-18T15:15:02.971Z</time></trkpt><trkpt lat="45.163740959386814" lon="7.996723310882034"><ele>168.0</ele><time>2026-04-18T15:15:03.971Z</time></trkpt><trkpt lat="45.16370828619762" lon="7.996890756782524"><ele>168.0</ele><time>2026-04-18T15:15:04.971Z</time></trkpt><trkpt lat="45.16368471735985" lon="7.997069979894832"><ele>168.0</ele><time>2026-04-18T15:15:05.971Z</time></trkpt><trkpt lat="45.16365116251163" lon="7.997257997814622"><ele>168.0</ele><time>2026-04-18T15:15:06.971Z</time></trkpt><trkpt lat="45.16361881117459" lon="7.997431137148226"><ele>168.0</ele><time>2026-04-18T15:15:07.971Z</time></trkpt><trkpt lat="45.163590706642566" lon="7.997596853583301"><ele>168.0</ele><time>2026-04-18T15:15:08.971Z</time></trkpt><trkpt lat="45.163569873988166" lon="7.997749441167254"><ele>168.0</ele><time>2026-04-18T15:15:09.971Z</time></trkpt><trkpt lat="45.16354708148096" lon="7.997907630890481"><ele>167.5</ele><time>2026-04-18T15:15:10.971Z</time></trkpt><trkpt lat="45.1635256223638" lon="7.998079410427107"><ele>167.0</ele><time>2026-04-18T15:15:11.971Z</time></trkpt><trkpt lat="45.16350086715315" lon="7.998261551445471"><ele>166.5</ele><time>2026-04-18T15:15:12.971Z</time></trkpt><trkpt lat="45.16347639735154" lon="7.998452047617453"><ele>166.0</ele><time>2026-04-18T15:15:13.971Z</time></trkpt><trkpt lat="45.16344745234" lon="7.998652965237021"><ele>165.66666666666669</ele><time>2026-04-18T15:15:14.971Z</time></trkpt><trkpt lat="45.16341463575932" lon="7.99886168907198"><ele>165.33333333333334</ele><time>2026-04-18T15:15:15.971Z</time></trkpt><trkpt lat="45.16338579681002" lon="7.99907945313271"><ele>165.0</ele><time>2026-04-18T15:15:16.971Z</time></trkpt><trkpt lat="45.16335529284744" lon="7.999308435516104"><ele>165.0</ele><time>2026-04-18T15:15:17.971Z</time></trkpt><trkpt lat="45.163318016306114" lon="7.999536349838907"><ele>165.0</ele><time>2026-04-18T15:15:18.971Z</time></trkpt><trkpt lat="45.16328081006948" lon="7.9997708751767345"><ele>165.0</ele><time>2026-04-18T15:15:19.971Z</time></trkpt><trkpt lat="45.163243333633105" lon="8.000004389469321"><ele>165.0</ele><time>2026-04-18T15:15:20.971Z</time></trkpt><trkpt lat="45.1632089223577" lon="8.000223394010717"><ele>165.0</ele><time>2026-04-18T15:15:21.971Z</time></trkpt><trkpt lat="45.16317589943578" lon="8.00042654088403"><ele>165.0</ele><time>2026-04-18T15:15:22.971Z</time></trkpt><trkpt lat="45.163146724786586" lon="8.000619735315555"><ele>165.0</ele><time>2026-04-18T15:15:23.971Z</time></trkpt><trkpt lat="45.16312044161165" lon="8.000800939082591"><ele>166.2</ele><time>2026-04-18T15:15:24.971Z</time></trkpt><trkpt lat="45.163097070392425" lon="8.000973934065932"><ele>167.4</ele><time>2026-04-18T15:15:25.971Z</time></trkpt><trkpt lat="45.163073546015816" lon="8.001130381563074"><ele>168.60000000000002</ele><time>2026-04-18T15:15:26.971Z</time></trkpt><trkpt lat="45.16305223755724" lon="8.001275090499274"><ele>169.8</ele><time>2026-04-18T15:15:27.971Z</time></trkpt><trkpt lat="45.163032325913115" lon="8.001414624682962"><ele>171.0</ele><time>2026-04-18T15:15:28.971Z</time></trkpt><trkpt lat="45.16300967933242" lon="8.00153441695376"><ele>171.0</ele><time>2026-04-18T15:15:29.971Z</time></trkpt><trkpt lat="45.1629647081632" lon="8.001627993174917"><ele>171.0</ele><time>2026-04-18T15:15:30.971Z</time></trkpt><trkpt lat="45.162909342929254" lon="8.001703121344427"><ele>171.0</ele><time>2026-04-18T15:15:31.971Z</time></trkpt><trkpt lat="45.16287634823909" lon="8.001794139044623"><ele>171.0</ele><time>2026-04-18T15:15:32.971Z</time></trkpt><trkpt lat="45.162870390692724" lon="8.00190341981656"><ele>171.0</ele><time>2026-04-18T15:15:33.971Z</time></trkpt><trkpt lat="45.16288178342566" lon="8.002038652480103"><ele>171.0</ele><time>2026-04-18T15:15:34.971Z</time></trkpt><trkpt lat="45.1628849216555" lon="8.002184911764958"><ele>170.0</ele><time>2026-04-18T15:15:35.971Z</time></trkpt><trkpt lat="45.16287954613725" lon="8.002335279455517"><ele>169.0</ele><time>2026-04-18T15:15:36.971Z</time></trkpt><trkpt lat="45.162892062667794" lon="8.002490140853634"><ele>168.0</ele><time>2026-04-18T15:15:37.971Z</time></trkpt><trkpt lat="45.16284381391854" lon="8.002663139306284"><ele>167.0</ele><time>2026-04-18T15:15:38.971Z</time></trkpt><trkpt lat="45.16282286748136" lon="8.00283890310651"><ele>167.0</ele><time>2026-04-18T15:15:39.971Z</time></trkpt><trkpt lat="45.16279721004007" lon="8.003021164420664"><ele>167.0</ele><time>2026-04-18T15:15:40.971Z</time></trkpt><trkpt lat="45.16276888500736" lon="8.003212316858432"><ele>167.0</ele><time>2026-04-18T15:15:41.971Z</time></trkpt><trkpt lat="45.16273427263011" lon="8.003416610193916"><ele>167.0</ele><time>2026-04-18T15:15:42.971Z</time></trkpt><trkpt lat="45.16269886668603" lon="8.00363022575233"><ele>167.0</ele><time>2026-04-18T15:15:43.971Z</time></trkpt><trkpt lat="45.16266803775333" lon="8.003832426747586"><ele>167.0</ele><time>2026-04-18T15:15:44.971Z</time></trkpt><trkpt lat="45.16263634853647" lon="8.004037770011308"><ele>167.0</ele><time>2026-04-18T15:15:45.971Z</time></trkpt><trkpt lat="45.16260591474532" lon="8.004251881501098"><ele>167.0</ele><time>2026-04-18T15:15:46.971Z</time></trkpt><trkpt lat="45.16257397764694" lon="8.004470606241414"><ele>167.0</ele><time>2026-04-18T15:15:47.971Z</time></trkpt><trkpt lat="45.162543775499735" lon="8.004700740229673"><ele>167.0</ele><time>2026-04-18T15:15:48.971Z</time></trkpt><trkpt lat="45.16250753162287" lon="8.004936389003914"><ele>167.0</ele><time>2026-04-18T15:15:49.971Z</time></trkpt><trkpt lat="45.16247021194764" lon="8.005171106344818"><ele>166.33333333333331</ele><time>2026-04-18T15:15:50.971Z</time></trkpt><trkpt lat="45.16243639271624" lon="8.005388739018072"><ele>165.66666666666666</ele><time>2026-04-18T15:15:51.971Z</time></trkpt><trkpt lat="45.16240263342499" lon="8.005605031684658"><ele>165.0</ele><time>2026-04-18T15:15:52.971Z</time></trkpt><trkpt lat="45.16237142005745" lon="8.005828116861661"><ele>165.0</ele><time>2026-04-18T15:15:53.971Z</time></trkpt><trkpt lat="45.16233956067471" lon="8.006049926914194"><ele>165.0</ele><time>2026-04-18T15:15:54.971Z</time></trkpt><trkpt lat="45.16230705266089" lon="8.00627024341929"><ele>165.0</ele><time>2026-04-18T15:15:55.971Z</time></trkpt><trkpt lat="45.16227223963559" lon="8.006493194220884"><ele>164.0</ele><time>2026-04-18T15:15:56.971Z</time></trkpt><trkpt lat="45.162234925988805" lon="8.006719955966997"><ele>163.0</ele><time>2026-04-18T15:15:57.971Z</time></trkpt><trkpt lat="45.1621989677607" lon="8.006958415703513"><ele>162.0</ele><time>2026-04-18T15:15:58.971Z</time></trkpt><trkpt lat="45.1621614563239" lon="8.007209312562312"><ele>162.0</ele><time>2026-04-18T15:15:59.971Z</time></trkpt><trkpt lat="45.1621218696101" lon="8.007470977121663"><ele>162.0</ele><time>2026-04-18T15:16:00.971Z</time></trkpt><trkpt lat="45.16207793432654" lon="8.007741483272627"><ele>162.0</ele><time>2026-04-18T15:16:01.971Z</time></trkpt><trkpt lat="45.16203559279753" lon="8.008025439029577"><ele>161.66666666666666</ele><time>2026-04-18T15:16:02.971Z</time></trkpt><trkpt lat="45.16199347121882" lon="8.00831872053017"><ele>161.33333333333331</ele><time>2026-04-18T15:16:03.971Z</time></trkpt><trkpt lat="45.16195288248545" lon="8.008619722784013"><ele>161.0</ele><time>2026-04-18T15:16:04.971Z</time></trkpt><trkpt lat="45.16191619896392" lon="8.008902388006701"><ele>161.0</ele><time>2026-04-18T15:16:05.971Z</time></trkpt><trkpt lat="45.16187336470834" lon="8.00918370044551"><ele>161.0</ele><time>2026-04-18T15:16:06.971Z</time></trkpt><trkpt lat="45.16182897156437" lon="8.00946941373201"><ele>161.0</ele><time>2026-04-18T15:16:07.972Z</time></trkpt><trkpt lat="45.16178594763109" lon="8.009759361450728"><ele>162.33333333333331</ele><time>2026-04-18T15:16:08.97Z</time></trkpt><trkpt lat="45.1617441869413" lon="8.010051843288181"><ele>163.66666666666666</ele><time>2026-04-18T15:16:09.969Z</time></trkpt><trkpt lat="45.161697608495444" lon="8.01034703748638"><ele>165.0</ele><time>2026-04-18T15:16:10.969Z</time></trkpt><trkpt lat="45.16165353213816" lon="8.010647405258936"><ele>165.0</ele><time>2026-04-18T15:16:11.97Z</time></trkpt><trkpt lat="45.16160581561119" lon="8.010947125461072"><ele>165.0</ele><time>2026-04-18T15:16:12.969Z</time></trkpt><trkpt lat="45.16155788504743" lon="8.01125252791268"><ele>165.0</ele><time>2026-04-18T15:16:13.969Z</time></trkpt><trkpt lat="45.16151285343493" lon="8.0115638042593"><ele>165.0</ele><time>2026-04-18T15:16:14.97Z</time></trkpt><trkpt lat="45.16146826852871" lon="8.011875717431543"><ele>165.0</ele><time>2026-04-18T15:16:15.969Z</time></trkpt><trkpt lat="45.16142390002611" lon="8.012187837302776"><ele>165.0</ele><time>2026-04-18T15:16:16.969Z</time></trkpt><trkpt lat="45.16137848213106" lon="8.012498817259495"><ele>165.0</ele><time>2026-04-18T15:16:17.969Z</time></trkpt><trkpt lat="45.16133026753749" lon="8.012808247763179"><ele>165.0</ele><time>2026-04-18T15:16:18.97Z</time></trkpt><trkpt lat="45.16128206957686" lon="8.013117729146852"><ele>165.0</ele><time>2026-04-18T15:16:19.97Z</time></trkpt><trkpt lat="45.1612341740653" lon="8.013426899386301"><ele>164.66666666666666</ele><time>2026-04-18T15:16:20.97Z</time></trkpt><trkpt lat="45.161186332201844" lon="8.013734664471006"><ele>164.33333333333331</ele><time>2026-04-18T15:16:21.969Z</time></trkpt><trkpt lat="45.16113984381209" lon="8.014042464780646"><ele>164.0</ele><time>2026-04-18T15:16:22.969Z</time></trkpt><trkpt lat="45.16109362072531" lon="8.014348672834474"><ele>164.0</ele><time>2026-04-18T15:16:23.969Z</time></trkpt><trkpt lat="45.161048693636445" lon="8.014653161718499"><ele>164.0</ele><time>2026-04-18T15:16:24.969Z</time></trkpt><trkpt lat="45.16100319586785" lon="8.01495807189457"><ele>164.0</ele><time>2026-04-18T15:16:25.969Z</time></trkpt><trkpt lat="45.16095833932525" lon="8.015259785164712"><ele>164.0</ele><time>2026-04-18T15:16:26.969Z</time></trkpt><trkpt lat="45.16091334588659" lon="8.015556113080287"><ele>164.0</ele><time>2026-04-18T15:16:27.969Z</time></trkpt><trkpt lat="45.16086849154488" lon="8.015852040333876"><ele>164.0</ele><time>2026-04-18T15:16:28.969Z</time></trkpt><trkpt lat="45.16082245419325" lon="8.016143580564654"><ele>164.0</ele><time>2026-04-18T15:16:29.969Z</time></trkpt><trkpt lat="45.160776971922985" lon="8.01643342229753"><ele>164.0</ele><time>2026-04-18T15:16:30.969Z</time></trkpt><trkpt lat="45.160731807725156" lon="8.01672243446661"><ele>164.0</ele><time>2026-04-18T15:16:31.969Z</time></trkpt><trkpt lat="45.160694731499696" lon="8.017005636400349"><ele>163.66666666666666</ele><time>2026-04-18T15:16:32.969Z</time></trkpt><trkpt lat="45.16066024746617" lon="8.017270378335883"><ele>163.33333333333334</ele><time>2026-04-18T15:16:33.969Z</time></trkpt><trkpt lat="45.160622847426566" lon="8.017518557104134"><ele>163.0</ele><time>2026-04-18T15:16:34.969Z</time></trkpt><trkpt lat="45.16058813465647" lon="8.017754321892259"><ele>164.33333333333334</ele><time>2026-04-18T15:16:35.969Z</time></trkpt><trkpt lat="45.160556259171585" lon="8.017974230873575"><ele>165.66666666666666</ele><time>2026-04-18T15:16:36.969Z</time></trkpt><trkpt lat="45.16052621744519" lon="8.018180702317023"><ele>167.0</ele><time>2026-04-18T15:16:37.969Z</time></trkpt><trkpt lat="45.160497198729765" lon="8.018379177724867"><ele>167.25</ele><time>2026-04-18T15:16:38.969Z</time></trkpt><trkpt lat="45.16046824180913" lon="8.018569592529445"><ele>167.5</ele><time>2026-04-18T15:16:39.969Z</time></trkpt><trkpt lat="45.16043918326133" lon="8.018746448201288"><ele>167.75</ele><time>2026-04-18T15:16:40.969Z</time></trkpt><trkpt lat="45.160412764685326" lon="8.018914156643335"><ele>168.0</ele><time>2026-04-18T15:16:41.969Z</time></trkpt><trkpt lat="45.160387006860745" lon="8.019067536829022"><ele>168.60000000000002</ele><time>2026-04-18T15:16:42.969Z</time></trkpt><trkpt lat="45.16036234497223" lon="8.01920901242466"><ele>169.20000000000002</ele><time>2026-04-18T15:16:43.969Z</time></trkpt><trkpt lat="45.1603445312386" lon="8.01933582422357"><ele>169.8</ele><time>2026-04-18T15:16:44.969Z</time></trkpt><trkpt lat="45.160331880353546" lon="8.019441935105908"><ele>170.4</ele><time>2026-04-18T15:16:45.969Z</time></trkpt><trkpt lat="45.16030950255448" lon="8.019591667865587"><ele>171.0</ele><time>2026-04-18T15:16:47.969Z</time></trkpt><trkpt lat="45.160288583083315" lon="8.019709741724308"><ele>171.0</ele><time>2026-04-18T15:16:50.969Z</time></trkpt><trkpt lat="45.160277710507586" lon="8.019868799767767"><ele>171.0</ele><time>2026-04-18T15:17:04.97Z</time></trkpt><trkpt lat="45.160254603721235" lon="8.02003128278607"><ele>171.0</ele><time>2026-04-18T15:17:06.97Z</time></trkpt><trkpt lat="45.16023910120105" lon="8.020131602705415"><ele>171.0</ele><time>2026-04-18T15:17:07.97Z</time></trkpt><trkpt lat="45.160221227136795" lon="8.020253734477441"><ele>171.0</ele><time>2026-04-18T15:17:08.97Z</time></trkpt><trkpt lat="45.16019807279265" lon="8.020392821687013"><ele>171.0</ele><time>2026-04-18T15:17:09.97Z</time></trkpt><trkpt lat="45.16016959334127" lon="8.020547803027123"><ele>171.0</ele><time>2026-04-18T15:17:10.97Z</time></trkpt><trkpt lat="45.16014280721404" lon="8.020701218006511"><ele>171.0</ele><time>2026-04-18T15:17:11.97Z</time></trkpt><trkpt lat="45.16011750319011" lon="8.0208489663474"><ele>171.0</ele><time>2026-04-18T15:17:12.97Z</time></trkpt><trkpt lat="45.16008970408805" lon="8.021012187547894"><ele>170.75</ele><time>2026-04-18T15:17:13.97Z</time></trkpt><trkpt lat="45.16006758436723" lon="8.02118710813554"><ele>170.5</ele><time>2026-04-18T15:17:14.97Z</time></trkpt><trkpt lat="45.16004278816969" lon="8.021372199131173"><ele>170.25</ele><time>2026-04-18T15:17:15.97Z</time></trkpt><trkpt lat="45.160015341574265" lon="8.021566486409087"><ele>170.0</ele><time>2026-04-18T15:17:16.97Z</time></trkpt><trkpt lat="45.15998534509152" lon="8.02177119504753"><ele>170.0</ele><time>2026-04-18T15:17:17.97Z</time></trkpt><trkpt lat="45.15995256762514" lon="8.021981627444916"><ele>170.0</ele><time>2026-04-18T15:17:18.97Z</time></trkpt><trkpt lat="45.15992097222511" lon="8.022181188613553"><ele>170.0</ele><time>2026-04-18T15:17:19.97Z</time></trkpt><trkpt lat="45.15988794533154" lon="8.022382617363087"><ele>170.0</ele><time>2026-04-18T15:17:20.97Z</time></trkpt><trkpt lat="45.159855948573316" lon="8.02259517147638"><ele>170.0</ele><time>2026-04-18T15:17:21.97Z</time></trkpt><trkpt lat="45.15982314997456" lon="8.022815853466163"><ele>170.0</ele><time>2026-04-18T15:17:22.97Z</time></trkpt><trkpt lat="45.15978751905685" lon="8.023043062482826"><ele>170.0</ele><time>2026-04-18T15:17:23.97Z</time></trkpt><trkpt lat="45.159748110781386" lon="8.02327282777647"><ele>169.66666666666666</ele><time>2026-04-18T15:17:24.97Z</time></trkpt><trkpt lat="45.15971390255938" lon="8.023517041830438"><ele>169.33333333333334</ele><time>2026-04-18T15:17:25.97Z</time></trkpt><trkpt lat="45.159678408468906" lon="8.023761949184886"><ele>169.0</ele><time>2026-04-18T15:17:26.97Z</time></trkpt><trkpt lat="45.15964253490221" lon="8.024014243762403"><ele>168.33333333333334</ele><time>2026-04-18T15:17:27.97Z</time></trkpt><trkpt lat="45.15960683423643" lon="8.024272433629083"><ele>167.66666666666666</ele><time>2026-04-18T15:17:28.97Z</time></trkpt><trkpt lat="45.159569648663975" lon="8.024533811681945"><ele>167.0</ele><time>2026-04-18T15:17:29.97Z</time></trkpt><trkpt lat="45.15953094295482" lon="8.024793000386511"><ele>167.66666666666666</ele><time>2026-04-18T15:17:30.97Z</time></trkpt><trkpt lat="45.15949130488955" lon="8.025036144723442"><ele>168.33333333333334</ele><time>2026-04-18T15:17:31.97Z</time></trkpt><trkpt lat="45.15945621922783" lon="8.025277095238932"><ele>169.0</ele><time>2026-04-18T15:17:32.97Z</time></trkpt><trkpt lat="45.15942050604244" lon="8.025521548705555"><ele>169.0</ele><time>2026-04-18T15:17:33.97Z</time></trkpt><trkpt lat="45.15938176336485" lon="8.02577409443514"><ele>169.0</ele><time>2026-04-18T15:17:34.97Z</time></trkpt><trkpt lat="45.15934626782009" lon="8.026027063954219"><ele>169.0</ele><time>2026-04-18T15:17:35.97Z</time></trkpt><trkpt lat="45.15930315920482" lon="8.026289558293874"><ele>168.66666666666669</ele><time>2026-04-18T15:17:36.97Z</time></trkpt><trkpt lat="45.15926498786251" lon="8.026558912383697"><ele>168.33333333333334</ele><time>2026-04-18T15:17:37.97Z</time></trkpt><trkpt lat="45.15922381404001" lon="8.026832418149029"><ele>168.0</ele><time>2026-04-18T15:17:38.97Z</time></trkpt><trkpt lat="45.15918292423898" lon="8.027094830719296"><ele>168.33333333333334</ele><time>2026-04-18T15:17:39.97Z</time></trkpt><trkpt lat="45.159142708998516" lon="8.027347944404877"><ele>168.66666666666669</ele><time>2026-04-18T15:17:40.97Z</time></trkpt><trkpt lat="45.15910683211515" lon="8.02760532283613"><ele>169.0</ele><time>2026-04-18T15:17:41.97Z</time></trkpt><trkpt lat="45.15907323127744" lon="8.027865224227934"><ele>169.0</ele><time>2026-04-18T15:17:42.97Z</time></trkpt><trkpt lat="45.15903534676631" lon="8.02812459941289"><ele>169.0</ele><time>2026-04-18T15:17:43.97Z</time></trkpt><trkpt lat="45.158997013185946" lon="8.028386774702328"><ele>169.0</ele><time>2026-04-18T15:17:44.97Z</time></trkpt><trkpt lat="45.15895945074744" lon="8.028649741914448"><ele>168.33333333333334</ele><time>2026-04-18T15:17:45.97Z</time></trkpt><trkpt lat="45.158921143303026" lon="8.028912015969464"><ele>167.66666666666666</ele><time>2026-04-18T15:17:46.97Z</time></trkpt><trkpt lat="45.15888333643477" lon="8.029178384749736"><ele>167.0</ele><time>2026-04-18T15:17:47.97Z</time></trkpt><trkpt lat="45.15884366630633" lon="8.02944346767245"><ele>167.0</ele><time>2026-04-18T15:17:48.97Z</time></trkpt><trkpt lat="45.158804093095654" lon="8.02970789552819"><ele>167.0</ele><time>2026-04-18T15:17:49.97Z</time></trkpt><trkpt lat="45.15876752054865" lon="8.029969956806934"><ele>167.0</ele><time>2026-04-18T15:17:50.97Z</time></trkpt><trkpt lat="45.15872754851853" lon="8.030231513636187"><ele>167.66666666666666</ele><time>2026-04-18T15:17:51.97Z</time></trkpt><trkpt lat="45.15868504041487" lon="8.03049282936527"><ele>168.33333333333334</ele><time>2026-04-18T15:17:52.97Z</time></trkpt><trkpt lat="45.158642748541766" lon="8.03075351521455"><ele>169.0</ele><time>2026-04-18T15:17:53.97Z</time></trkpt><trkpt lat="45.15860190994378" lon="8.031014728760866"><ele>169.33333333333334</ele><time>2026-04-18T15:17:54.97Z</time></trkpt><trkpt lat="45.15856216732303" lon="8.031274010341496"><ele>169.66666666666666</ele><time>2026-04-18T15:17:55.97Z</time></trkpt><trkpt lat="45.15852509517954" lon="8.031532030747098"><ele>170.0</ele><time>2026-04-18T15:17:56.97Z</time></trkpt><trkpt lat="45.1584891806517" lon="8.031791443254303"><ele>170.0</ele><time>2026-04-18T15:17:57.97Z</time></trkpt><trkpt lat="45.15845321915911" lon="8.032047076041364"><ele>170.0</ele><time>2026-04-18T15:17:58.97Z</time></trkpt><trkpt lat="45.15841685263119" lon="8.032299973881841"><ele>170.0</ele><time>2026-04-18T15:17:59.97Z</time></trkpt><trkpt lat="45.1583808258158" lon="8.032550859608895"><ele>169.33333333333331</ele><time>2026-04-18T15:18:00.97Z</time></trkpt><trkpt lat="45.15833938747446" lon="8.03280123801331"><ele>168.66666666666666</ele><time>2026-04-18T15:18:01.97Z</time></trkpt><trkpt lat="45.15829848405758" lon="8.033052178955504"><ele>168.0</ele><time>2026-04-18T15:18:02.97Z</time></trkpt><trkpt lat="45.15826467362015" lon="8.033305476946342"><ele>168.0</ele><time>2026-04-18T15:18:03.97Z</time></trkpt><trkpt lat="45.158225449843634" lon="8.03355781470432"><ele>168.0</ele><time>2026-04-18T15:18:04.97Z</time></trkpt><trkpt lat="45.1581897774876" lon="8.033809834733038"><ele>168.0</ele><time>2026-04-18T15:18:05.97Z</time></trkpt><trkpt lat="45.1581520206146" lon="8.034063390061947"><ele>169.66666666666666</ele><time>2026-04-18T15:18:06.97Z</time></trkpt><trkpt lat="45.15811507709384" lon="8.034315603631791"><ele>171.33333333333331</ele><time>2026-04-18T15:18:07.97Z</time></trkpt><trkpt lat="45.158078210279314" lon="8.034566187021884"><ele>173.0</ele><time>2026-04-18T15:18:08.97Z</time></trkpt><trkpt lat="45.158039711096826" lon="8.034818668533932"><ele>173.0</ele><time>2026-04-18T15:18:09.97Z</time></trkpt><trkpt lat="45.15800128216556" lon="8.035070959134668"><ele>173.0</ele><time>2026-04-18T15:18:10.97Z</time></trkpt><trkpt lat="45.15796650605687" lon="8.03532197020441"><ele>173.0</ele><time>2026-04-18T15:18:11.97Z</time></trkpt><trkpt lat="45.15793284249842" lon="8.035575471350285"><ele>172.0</ele><time>2026-04-18T15:18:12.97Z</time></trkpt><trkpt lat="45.15789493854284" lon="8.03582306936436"><ele>171.0</ele><time>2026-04-18T15:18:13.97Z</time></trkpt><trkpt lat="45.15785677226951" lon="8.036074025362863"><ele>170.0</ele><time>2026-04-18T15:18:14.969Z</time></trkpt><trkpt lat="45.157815074844194" lon="8.036325845536362"><ele>170.0</ele><time>2026-04-18T15:18:15.968Z</time></trkpt><trkpt lat="45.1577718199979" lon="8.036581040991779"><ele>170.0</ele><time>2026-04-18T15:18:16.968Z</time></trkpt><trkpt lat="45.15772667298055" lon="8.036835485460873"><ele>170.0</ele><time>2026-04-18T15:18:17.968Z</time></trkpt><trkpt lat="45.15769200241199" lon="8.037093714492002"><ele>170.0</ele><time>2026-04-18T15:18:18.968Z</time></trkpt><trkpt lat="45.15765347111629" lon="8.037352108662828"><ele>170.0</ele><time>2026-04-18T15:18:19.968Z</time></trkpt><trkpt lat="45.15761331146571" lon="8.037607869943317"><ele>170.0</ele><time>2026-04-18T15:18:20.968Z</time></trkpt><trkpt lat="45.15757838519919" lon="8.037855960134129"><ele>169.0</ele><time>2026-04-18T15:18:21.968Z</time></trkpt><trkpt lat="45.15754152851131" lon="8.038102191578863"><ele>168.0</ele><time>2026-04-18T15:18:22.968Z</time></trkpt><trkpt lat="45.15750632206341" lon="8.038344090781498"><ele>167.0</ele><time>2026-04-18T15:18:23.968Z</time></trkpt><trkpt lat="45.157468513764705" lon="8.038584230295607"><ele>166.66666666666666</ele><time>2026-04-18T15:18:24.968Z</time></trkpt><trkpt lat="45.15742952768307" lon="8.038823411997146"><ele>166.33333333333334</ele><time>2026-04-18T15:18:25.968Z</time></trkpt><trkpt lat="45.15739336268199" lon="8.039058704859611"><ele>166.0</ele><time>2026-04-18T15:18:26.968Z</time></trkpt><trkpt lat="45.15735714808956" lon="8.039294465101207"><ele>166.66666666666669</ele><time>2026-04-18T15:18:27.968Z</time></trkpt><trkpt lat="45.15732325196384" lon="8.039533593564093"><ele>167.33333333333334</ele><time>2026-04-18T15:18:28.968Z</time></trkpt><trkpt lat="45.157286595008394" lon="8.039774319658791"><ele>168.0</ele><time>2026-04-18T15:18:29.968Z</time></trkpt><trkpt lat="45.157251748177934" lon="8.040016886265237"><ele>168.0</ele><time>2026-04-18T15:18:30.968Z</time></trkpt><trkpt lat="45.15721301249035" lon="8.040259559005543"><ele>168.0</ele><time>2026-04-18T15:18:31.968Z</time></trkpt><trkpt lat="45.15717399226765" lon="8.040503806062318"><ele>168.0</ele><time>2026-04-18T15:18:32.968Z</time></trkpt><trkpt lat="45.15713463095274" lon="8.040748280426003"><ele>168.33333333333334</ele><time>2026-04-18T15:18:33.968Z</time></trkpt><trkpt lat="45.15709846056666" lon="8.040995477950894"><ele>168.66666666666669</ele><time>2026-04-18T15:18:34.968Z</time></trkpt><trkpt lat="45.157063563407846" lon="8.041244371080985"><ele>169.0</ele><time>2026-04-18T15:18:35.968Z</time></trkpt><trkpt lat="45.15702809993362" lon="8.041492293592308"><ele>169.0</ele><time>2026-04-18T15:18:36.968Z</time></trkpt><trkpt lat="45.15699072357739" lon="8.041740040196645"><ele>169.0</ele><time>2026-04-18T15:18:37.968Z</time></trkpt><trkpt lat="45.15695546885937" lon="8.041982940296847"><ele>169.0</ele><time>2026-04-18T15:18:38.968Z</time></trkpt><trkpt lat="45.15691725473798" lon="8.042217722115128"><ele>169.0</ele><time>2026-04-18T15:18:39.968Z</time></trkpt><trkpt lat="45.15687920060005" lon="8.042441556390548"><ele>169.0</ele><time>2026-04-18T15:18:40.968Z</time></trkpt><trkpt lat="45.15684375605144" lon="8.042653558984771"><ele>169.0</ele><time>2026-04-18T15:18:41.968Z</time></trkpt><trkpt lat="45.15680978922603" lon="8.042839787247038"><ele>168.79999999999998</ele><time>2026-04-18T15:18:42.968Z</time></trkpt><trkpt lat="45.15677988532943" lon="8.043006157027785"><ele>168.6</ele><time>2026-04-18T15:18:43.968Z</time></trkpt><trkpt lat="45.15675597169819" lon="8.043160560351549"><ele>168.4</ele><time>2026-04-18T15:18:44.968Z</time></trkpt><trkpt lat="45.15673277509664" lon="8.043303821435616"><ele>168.2</ele><time>2026-04-18T15:18:45.968Z</time></trkpt><trkpt lat="45.15671563643706" lon="8.043438124766187"><ele>168.0</ele><time>2026-04-18T15:18:46.968Z</time></trkpt><trkpt lat="45.156698189406875" lon="8.043563728121407"><ele>167.8</ele><time>2026-04-18T15:18:47.968Z</time></trkpt><trkpt lat="45.15667754553764" lon="8.043697783381813"><ele>167.60000000000002</ele><time>2026-04-18T15:18:48.968Z</time></trkpt><trkpt lat="45.15665533207504" lon="8.043832134919251"><ele>167.39999999999998</ele><time>2026-04-18T15:18:49.968Z</time></trkpt><trkpt lat="45.15662889517766" lon="8.043980424215928"><ele>167.2</ele><time>2026-04-18T15:18:50.968Z</time></trkpt><trkpt lat="45.15660384141125" lon="8.04413448118408"><ele>167.0</ele><time>2026-04-18T15:18:51.968Z</time></trkpt><trkpt lat="45.1565828461169" lon="8.044299384830941"><ele>167.0</ele><time>2026-04-18T15:18:52.968Z</time></trkpt><trkpt lat="45.156568335462374" lon="8.044497853682934"><ele>167.0</ele><time>2026-04-18T15:18:53.968Z</time></trkpt><trkpt lat="45.15653762115039" lon="8.044689343608614"><ele>167.0</ele><time>2026-04-18T15:18:54.968Z</time></trkpt><trkpt lat="45.1564906760284" lon="8.044891549968995"><ele>167.0</ele><time>2026-04-18T15:18:55.968Z</time></trkpt><trkpt lat="45.156456495683024" lon="8.045090704582758"><ele>167.5</ele><time>2026-04-18T15:18:56.968Z</time></trkpt><trkpt lat="45.1564182765506" lon="8.04527827522589"><ele>168.0</ele><time>2026-04-18T15:18:57.968Z</time></trkpt><trkpt lat="45.15638655914775" lon="8.045451611269817"><ele>168.5</ele><time>2026-04-18T15:18:58.968Z</time></trkpt><trkpt lat="45.156353035159235" lon="8.04561124932484"><ele>169.0</ele><time>2026-04-18T15:18:59.968Z</time></trkpt><trkpt lat="45.15633739590165" lon="8.04574823937796"><ele>168.66666666666669</ele><time>2026-04-18T15:19:00.968Z</time></trkpt><trkpt lat="45.15632712636632" lon="8.045868446407484"><ele>168.33333333333334</ele><time>2026-04-18T15:19:01.968Z</time></trkpt><trkpt lat="45.15632920511166" lon="8.045961900247935"><ele>168.0</ele><time>2026-04-18T15:19:03.968Z</time></trkpt><trkpt lat="45.15632141144757" lon="8.046077687420569"><ele>167.66666666666666</ele><time>2026-04-18T15:19:04.968Z</time></trkpt><trkpt lat="45.156305743877624" lon="8.046197919393924"><ele>167.33333333333331</ele><time>2026-04-18T15:19:05.968Z</time></trkpt><trkpt lat="45.1562912032487" lon="8.046310469018906"><ele>167.0</ele><time>2026-04-18T15:19:06.968Z</time></trkpt><trkpt lat="45.15628236422297" lon="8.046413457572385"><ele>167.0</ele><time>2026-04-18T15:19:07.968Z</time></trkpt><trkpt lat="45.156267785492325" lon="8.046504826269498"><ele>167.0</ele><time>2026-04-18T15:19:08.968Z</time></trkpt><trkpt lat="45.15624728266375" lon="8.046594470233298"><ele>167.0</ele><time>2026-04-18T15:19:09.968Z</time></trkpt><trkpt lat="45.1562304150616" lon="8.046683567061908"><ele>167.0</ele><time>2026-04-18T15:19:10.968Z</time></trkpt><trkpt lat="45.156219861848896" lon="8.0467857702166"><ele>167.0</ele><time>2026-04-18T15:19:11.968Z</time></trkpt><trkpt lat="45.1562003162275" lon="8.046898496186563"><ele>167.0</ele><time>2026-04-18T15:19:12.968Z</time></trkpt><trkpt lat="45.15617861470192" lon="8.047018967014418"><ele>167.0</ele><time>2026-04-18T15:19:13.968Z</time></trkpt><trkpt lat="45.156152379850504" lon="8.047139506409493"><ele>167.16666666666666</ele><time>2026-04-18T15:19:14.968Z</time></trkpt><trkpt lat="45.15612681234379" lon="8.047243702339546"><ele>167.33333333333331</ele><time>2026-04-18T15:19:15.968Z</time></trkpt><trkpt lat="45.15609953227332" lon="8.047338447917225"><ele>167.5</ele><time>2026-04-18T15:19:16.968Z</time></trkpt><trkpt lat="45.1560723136335" lon="8.047437571013116"><ele>167.66666666666666</ele><time>2026-04-18T15:19:17.968Z</time></trkpt><trkpt lat="45.156040862945815" lon="8.047544191007939"><ele>167.83333333333334</ele><time>2026-04-18T15:19:18.968Z</time></trkpt><trkpt lat="45.1560080351905" lon="8.04765671726699"><ele>168.0</ele><time>2026-04-18T15:19:19.968Z</time></trkpt><trkpt lat="45.155973484243454" lon="8.04777282242088"><ele>168.0</ele><time>2026-04-18T15:19:20.968Z</time></trkpt><trkpt lat="45.15593369665276" lon="8.047894198648542"><ele>168.0</ele><time>2026-04-18T15:19:21.968Z</time></trkpt><trkpt lat="45.155891489890294" lon="8.048011820602733"><ele>168.0</ele><time>2026-04-18T15:19:22.968Z</time></trkpt><trkpt lat="45.155852096685216" lon="8.048131672142851"><ele>168.0</ele><time>2026-04-18T15:19:23.968Z</time></trkpt><trkpt lat="45.155810309259" lon="8.048256769176366"><ele>168.0</ele><time>2026-04-18T15:19:24.968Z</time></trkpt><trkpt lat="45.155762989093084" lon="8.0483858879061"><ele>168.25</ele><time>2026-04-18T15:19:25.969Z</time></trkpt><trkpt lat="45.15570036770307" lon="8.048515370053265"><ele>168.5</ele><time>2026-04-18T15:19:26.969Z</time></trkpt><trkpt lat="45.155632896688886" lon="8.048648616761989"><ele>168.75</ele><time>2026-04-18T15:19:27.969Z</time></trkpt><trkpt lat="45.15556472993927" lon="8.04879119346411"><ele>169.0</ele><time>2026-04-18T15:19:28.969Z</time></trkpt><trkpt lat="45.15548887952774" lon="8.048927151213626"><ele>169.0</ele><time>2026-04-18T15:19:29.969Z</time></trkpt><trkpt lat="45.15541192055054" lon="8.049068002244429"><ele>169.0</ele><time>2026-04-18T15:19:30.969Z</time></trkpt><trkpt lat="45.15533090910303" lon="8.049192104682515"><ele>169.0</ele><time>2026-04-18T15:19:31.969Z</time></trkpt><trkpt lat="45.15524407000029" lon="8.049314588734083"><ele>169.0</ele><time>2026-04-18T15:19:32.969Z</time></trkpt><trkpt lat="45.15515105739649" lon="8.049436635792976"><ele>169.25</ele><time>2026-04-18T15:19:33.969Z</time></trkpt><trkpt lat="45.155052416505946" lon="8.04956207132284"><ele>169.5</ele><time>2026-04-18T15:19:34.969Z</time></trkpt><trkpt lat="45.15495039495795" lon="8.049678658142978"><ele>169.75</ele><time>2026-04-18T15:19:35.969Z</time></trkpt><trkpt lat="45.154847781707765" lon="8.049784762656802"><ele>170.0</ele><time>2026-04-18T15:19:36.969Z</time></trkpt><trkpt lat="45.15474378152421" lon="8.049882101247235"><ele>170.4</ele><time>2026-04-18T15:19:37.969Z</time></trkpt><trkpt lat="45.154641102257365" lon="8.049969848736907"><ele>170.8</ele><time>2026-04-18T15:19:38.969Z</time></trkpt><trkpt lat="45.15454655704565" lon="8.050045982293952"><ele>171.2</ele><time>2026-04-18T15:19:39.969Z</time></trkpt><trkpt lat="45.15446063553861" lon="8.050113079473846"><ele>171.6</ele><time>2026-04-18T15:19:40.969Z</time></trkpt><trkpt lat="45.154385467362694" lon="8.050170537211129"><ele>172.0</ele><time>2026-04-18T15:19:41.969Z</time></trkpt><trkpt lat="45.15431981159096" lon="8.05021933959926"><ele>172.0</ele><time>2026-04-18T15:19:42.969Z</time></trkpt><trkpt lat="45.154252590644795" lon="8.050273591238046"><ele>172.0</ele><time>2026-04-18T15:19:43.969Z</time></trkpt><trkpt lat="45.15418301716372" lon="8.050323935199645"><ele>172.0</ele><time>2026-04-18T15:19:44.969Z</time></trkpt><trkpt lat="45.15411299531669" lon="8.050375629129888"><ele>172.0</ele><time>2026-04-18T15:19:45.969Z</time></trkpt><trkpt lat="45.154041658230035" lon="8.05042488590927"><ele>172.0</ele><time>2026-04-18T15:19:46.969Z</time></trkpt><trkpt lat="45.15395859628183" lon="8.050466295967265"><ele>172.0</ele><time>2026-04-18T15:19:47.969Z</time></trkpt><trkpt lat="45.153867093572345" lon="8.050517553933972"><ele>172.5</ele><time>2026-04-18T15:19:48.969Z</time></trkpt><trkpt lat="45.153787212617836" lon="8.050564376486582"><ele>173.0</ele><time>2026-04-18T15:19:49.969Z</time></trkpt><trkpt lat="45.153708491799826" lon="8.05062498026968"><ele>173.5</ele><time>2026-04-18T15:19:50.969Z</time></trkpt><trkpt lat="45.15363038165724" lon="8.050683384706609"><ele>174.0</ele><time>2026-04-18T15:19:51.969Z</time></trkpt><trkpt lat="45.15355034066934" lon="8.050728393322482"><ele>174.5</ele><time>2026-04-18T15:19:52.969Z</time></trkpt><trkpt lat="45.15346141811706" lon="8.05078293220984"><ele>175.0</ele><time>2026-04-18T15:19:53.969Z</time></trkpt><trkpt lat="45.153374900419614" lon="8.050823543702878"><ele>175.0</ele><time>2026-04-18T15:19:54.969Z</time></trkpt><trkpt lat="45.15328616064821" lon="8.050870817925727"><ele>175.0</ele><time>2026-04-18T15:19:55.969Z</time></trkpt><trkpt lat="45.15320548514837" lon="8.050928125606427"><ele>175.0</ele><time>2026-04-18T15:19:56.969Z</time></trkpt><trkpt lat="45.153132134354124" lon="8.05097578049586"><ele>175.0</ele><time>2026-04-18T15:19:57.969Z</time></trkpt><trkpt lat="45.15306382007241" lon="8.051005048851307"><ele>175.0</ele><time>2026-04-18T15:19:58.969Z</time></trkpt><trkpt lat="45.15296714965487" lon="8.051059220377367"><ele>175.0</ele><time>2026-04-18T15:20:00.969Z</time></trkpt><trkpt lat="45.152889799329806" lon="8.051123157790558"><ele>175.16666666666669</ele><time>2026-04-18T15:20:02.969Z</time></trkpt><trkpt lat="45.15281431135156" lon="8.051162056300344"><ele>175.33333333333334</ele><time>2026-04-18T15:20:04.969Z</time></trkpt><trkpt lat="45.15275245593996" lon="8.051221162616235"><ele>175.5</ele><time>2026-04-18T15:20:06.969Z</time></trkpt><trkpt lat="45.15266231870034" lon="8.051288607708031"><ele>175.66666666666666</ele><time>2026-04-18T15:20:09.969Z</time></trkpt><trkpt lat="45.15260608963517" lon="8.051331482329257"><ele>175.83333333333331</ele><time>2026-04-18T15:20:11.969Z</time></trkpt><trkpt lat="45.15254819422903" lon="8.051366591387909"><ele>176.0</ele><time>2026-04-18T15:20:13.969Z</time></trkpt><trkpt lat="45.15248422469313" lon="8.051409851846861"><ele>176.0</ele><time>2026-04-18T15:20:19.969Z</time></trkpt><trkpt lat="45.15241982008096" lon="8.051487325185459"><ele>176.0</ele><time>2026-04-18T15:20:22.966Z</time></trkpt><trkpt lat="45.15234533448573" lon="8.0515303634786"><ele>176.0</ele><time>2026-04-18T15:20:24.967Z</time></trkpt><trkpt lat="45.15225318046615" lon="8.05158434549506"><ele>176.0</ele><time>2026-04-18T15:20:26.966Z</time></trkpt><trkpt lat="45.152226734481346" lon="8.05173340282377"><ele>176.0</ele><time>2026-04-18T15:20:28.966Z</time></trkpt><trkpt lat="45.15227026972045" lon="8.051818154191812"><ele>176.0</ele><time>2026-04-18T15:20:29.966Z</time></trkpt><trkpt lat="45.15229440072147" lon="8.051904326201715"><ele>176.0</ele><time>2026-04-18T15:20:30.967Z</time></trkpt><trkpt lat="45.15232763443915" lon="8.051983147304874"><ele>176.0</ele><time>2026-04-18T15:20:31.967Z</time></trkpt><trkpt lat="45.15234079176136" lon="8.052083921255255"><ele>176.0</ele><time>2026-04-18T15:20:32.966Z</time></trkpt><trkpt lat="45.15238365169321" lon="8.052173510438182"><ele>176.0</ele><time>2026-04-18T15:20:33.966Z</time></trkpt><trkpt lat="45.15241773469663" lon="8.052277553158376"><ele>176.0</ele><time>2026-04-18T15:20:34.966Z</time></trkpt><trkpt lat="45.15245503721702" lon="8.052389458936902"><ele>176.0</ele><time>2026-04-18T15:20:35.966Z</time></trkpt><trkpt lat="45.15247595369124" lon="8.052496789207732"><ele>176.0</ele><time>2026-04-18T15:20:36.966Z</time></trkpt><trkpt lat="45.15250443433367" lon="8.052583151489838"><ele>176.0</ele><time>2026-04-18T15:20:37.966Z</time></trkpt><trkpt lat="45.152536722002885" lon="8.052677257108105"><ele>176.0</ele><time>2026-04-18T15:20:38.966Z</time></trkpt><trkpt lat="45.15257951078927" lon="8.052801970688444"><ele>176.0</ele><time>2026-04-18T15:20:39.966Z</time></trkpt><trkpt lat="45.15262194316036" lon="8.052925810900858"><ele>176.0</ele><time>2026-04-18T15:20:40.966Z</time></trkpt><trkpt lat="45.15267926424325" lon="8.053095408985378"><ele>176.0</ele><time>2026-04-18T15:20:41.966Z</time></trkpt><trkpt lat="45.15274688971951" lon="8.053246163474022"><ele>176.0</ele><time>2026-04-18T15:20:42.966Z</time></trkpt><trkpt lat="45.15278555446361" lon="8.053402415139278"><ele>176.0</ele><time>2026-04-18T15:20:43.966Z</time></trkpt><trkpt lat="45.15282932301701" lon="8.053542033319237"><ele>176.0</ele><time>2026-04-18T15:20:44.966Z</time></trkpt><trkpt lat="45.152872320855145" lon="8.053682370513938"><ele>175.60000000000002</ele><time>2026-04-18T15:20:45.966Z</time></trkpt><trkpt lat="45.15291858578133" lon="8.053824473543852"><ele>175.2</ele><time>2026-04-18T15:20:46.966Z</time></trkpt><trkpt lat="45.15296723399748" lon="8.053966504554346"><ele>174.8</ele><time>2026-04-18T15:20:47.966Z</time></trkpt><trkpt lat="45.15301033507807" lon="8.054095976090247"><ele>174.39999999999998</ele><time>2026-04-18T15:20:48.966Z</time></trkpt><trkpt lat="45.15305118078769" lon="8.054223450561908"><ele>174.0</ele><time>2026-04-18T15:20:49.966Z</time></trkpt><trkpt lat="45.15308963776109" lon="8.054332871266308"><ele>174.0</ele><time>2026-04-18T15:20:50.966Z</time></trkpt><trkpt lat="45.15311675955967" lon="8.054427458491205"><ele>174.0</ele><time>2026-04-18T15:20:51.966Z</time></trkpt><trkpt lat="45.15315103893692" lon="8.054537406905757"><ele>174.0</ele><time>2026-04-18T15:20:52.966Z</time></trkpt><trkpt lat="45.15317213648175" lon="8.054677404056681"><ele>174.0</ele><time>2026-04-18T15:20:53.966Z</time></trkpt><trkpt lat="45.15321186999412" lon="8.05481753709054"><ele>174.0</ele><time>2026-04-18T15:20:54.966Z</time></trkpt><trkpt lat="45.15326639168338" lon="8.054983387145024"><ele>174.0</ele><time>2026-04-18T15:20:55.966Z</time></trkpt><trkpt lat="45.15334146815223" lon="8.055198216028625"><ele>174.0</ele><time>2026-04-18T15:20:56.966Z</time></trkpt><trkpt lat="45.153398974312566" lon="8.055364220181906"><ele>174.0</ele><time>2026-04-18T15:20:57.966Z</time></trkpt><trkpt lat="45.153454313825115" lon="8.055523158194818"><ele>174.0</ele><time>2026-04-18T15:20:58.966Z</time></trkpt><trkpt lat="45.15350800311633" lon="8.055645801277361"><ele>174.0</ele><time>2026-04-18T15:20:59.966Z</time></trkpt><trkpt lat="45.15355471242385" lon="8.055757160161813"><ele>174.0</ele><time>2026-04-18T15:21:00.966Z</time></trkpt><trkpt lat="45.1535955478818" lon="8.055865756997049"><ele>174.0</ele><time>2026-04-18T15:21:01.966Z</time></trkpt><trkpt lat="45.15362961061922" lon="8.055953319813316"><ele>174.0</ele><time>2026-04-18T15:21:02.966Z</time></trkpt><trkpt lat="45.15369060147202" lon="8.056105860939327"><ele>174.0</ele><time>2026-04-18T15:21:04.966Z</time></trkpt><trkpt lat="45.15373594305813" lon="8.056201776066088"><ele>174.0</ele><time>2026-04-18T15:21:06.966Z</time></trkpt><trkpt lat="45.15379356846691" lon="8.056244866317643"><ele>174.0</ele><time>2026-04-18T15:21:08.966Z</time></trkpt><trkpt lat="45.15385685045183" lon="8.056249266053559"><ele>174.0</ele><time>2026-04-18T15:21:09.966Z</time></trkpt><trkpt lat="45.153943931244015" lon="8.056280255537896"><ele>174.0</ele><time>2026-04-18T15:21:10.966Z</time></trkpt><trkpt lat="45.15403023805648" lon="8.056367599341845"><ele>174.0</ele><time>2026-04-18T15:21:11.966Z</time></trkpt><trkpt lat="45.15413206113862" lon="8.056472334706449"><ele>173.5</ele><time>2026-04-18T15:21:12.966Z</time></trkpt><trkpt lat="45.15423602240129" lon="8.056593738170411"><ele>173.0</ele><time>2026-04-18T15:21:13.966Z</time></trkpt><trkpt lat="45.15435533479292" lon="8.056722287246208"><ele>172.5</ele><time>2026-04-18T15:21:14.966Z</time></trkpt><trkpt lat="45.1544828642832" lon="8.056849832646996"><ele>172.0</ele><time>2026-04-18T15:21:15.966Z</time></trkpt><trkpt lat="45.15458793244322" lon="8.056953749070706"><ele>172.0</ele><time>2026-04-18T15:21:16.966Z</time></trkpt><trkpt lat="45.15464981310187" lon="8.057169574475608"><ele>172.0</ele><time>2026-04-18T15:21:17.966Z</time></trkpt><trkpt lat="45.15477203392369" lon="8.057311420455576"><ele>172.0</ele><time>2026-04-18T15:21:18.966Z</time></trkpt><trkpt lat="45.1548805787371" lon="8.057438569407768"><ele>172.0</ele><time>2026-04-18T15:21:19.966Z</time></trkpt><trkpt lat="45.154982940287894" lon="8.057559543792474"><ele>172.0</ele><time>2026-04-18T15:21:20.966Z</time></trkpt><trkpt lat="45.15507999456647" lon="8.057678401622347"><ele>172.0</ele><time>2026-04-18T15:21:21.966Z</time></trkpt><trkpt lat="45.155186871256824" lon="8.057810225882207"><ele>172.0</ele><time>2026-04-18T15:21:22.966Z</time></trkpt><trkpt lat="45.155292493332524" lon="8.057945695745458"><ele>172.0</ele><time>2026-04-18T15:21:23.966Z</time></trkpt><trkpt lat="45.15513586079846" lon="8.057783362076256"><ele>172.0</ele><time>2026-04-18T15:21:24.966Z</time></trkpt><trkpt lat="45.15522635497885" lon="8.057902482666004"><ele>172.0</ele><time>2026-04-18T15:21:25.966Z</time></trkpt><trkpt lat="45.15532016659556" lon="8.05802437638759"><ele>172.0</ele><time>2026-04-18T15:21:26.967Z</time></trkpt><trkpt lat="45.15541558829615" lon="8.058146527607056"><ele>172.0</ele><time>2026-04-18T15:21:27.967Z</time></trkpt><trkpt lat="45.15551572219562" lon="8.058272965872817"><ele>172.0</ele><time>2026-04-18T15:21:28.967Z</time></trkpt><trkpt lat="45.15561860704251" lon="8.05840125584864"><ele>172.0</ele><time>2026-04-18T15:21:29.967Z</time></trkpt><trkpt lat="45.155719365050786" lon="8.058528646509238"><ele>172.0</ele><time>2026-04-18T15:21:30.967Z</time></trkpt><trkpt lat="45.15581068317685" lon="8.058676430723517"><ele>171.75</ele><time>2026-04-18T15:21:31.967Z</time></trkpt><trkpt lat="45.1558912600557" lon="8.058831918269997"><ele>171.5</ele><time>2026-04-18T15:21:32.967Z</time></trkpt><trkpt lat="45.155966147773434" lon="8.058992397477457"><ele>171.25</ele><time>2026-04-18T15:21:33.967Z</time></trkpt><trkpt lat="45.15601925343272" lon="8.059170619254598"><ele>171.0</ele><time>2026-04-18T15:21:34.967Z</time></trkpt><trkpt lat="45.156069508085466" lon="8.059347066952219"><ele>171.0</ele><time>2026-04-18T15:21:35.967Z</time></trkpt><trkpt lat="45.156108091250836" lon="8.059519859569535"><ele>171.0</ele><time>2026-04-18T15:21:36.967Z</time></trkpt><trkpt lat="45.15614510082422" lon="8.059659225299868"><ele>171.0</ele><time>2026-04-18T15:21:37.967Z</time></trkpt><trkpt lat="45.15614870975105" lon="8.059752074845614"><ele>171.0</ele><time>2026-04-18T15:21:39.967Z</time></trkpt><trkpt lat="45.15616683611223" lon="8.05996004454544"><ele>171.0</ele><time>2026-04-18T15:22:16.967Z</time></trkpt><trkpt lat="45.15617435090507" lon="8.060101630927962"><ele>171.0</ele><time>2026-04-18T15:22:17.967Z</time></trkpt><trkpt lat="45.156183401990276" lon="8.060253838253068"><ele>171.0</ele><time>2026-04-18T15:22:18.967Z</time></trkpt><trkpt lat="45.15618133802753" lon="8.06040107525738"><ele>171.0</ele><time>2026-04-18T15:22:19.967Z</time></trkpt><trkpt lat="45.156181548487766" lon="8.06055995874421"><ele>171.0</ele><time>2026-04-18T15:22:20.967Z</time></trkpt><trkpt lat="45.15613985681055" lon="8.06073588032503"><ele>170.75</ele><time>2026-04-18T15:22:21.967Z</time></trkpt><trkpt lat="45.15612796778603" lon="8.060912881220402"><ele>170.5</ele><time>2026-04-18T15:22:22.967Z</time></trkpt><trkpt lat="45.15611489416618" lon="8.061099962305876"><ele>170.25</ele><time>2026-04-18T15:22:23.967Z</time></trkpt><trkpt lat="45.156101601288555" lon="8.06127446184914"><ele>170.0</ele><time>2026-04-18T15:22:24.967Z</time></trkpt><trkpt lat="45.15608753909781" lon="8.061447517392345"><ele>169.75</ele><time>2026-04-18T15:22:25.967Z</time></trkpt><trkpt lat="45.1560730709221" lon="8.06162556930596"><ele>169.5</ele><time>2026-04-18T15:22:26.965Z</time></trkpt><trkpt lat="45.156058049464" lon="8.061810430199635"><ele>169.25</ele><time>2026-04-18T15:22:27.964Z</time></trkpt><trkpt lat="45.15605820948145" lon="8.062006661149232"><ele>169.0</ele><time>2026-04-18T15:22:28.964Z</time></trkpt><trkpt lat="45.15601510196928" lon="8.062198787624613"><ele>169.0</ele><time>2026-04-18T15:22:29.965Z</time></trkpt><trkpt lat="45.15599983967907" lon="8.062400681142254"><ele>169.0</ele><time>2026-04-18T15:22:30.965Z</time></trkpt><trkpt lat="45.155978277825696" lon="8.062607282035449"><ele>169.0</ele><time>2026-04-18T15:22:31.965Z</time></trkpt><trkpt lat="45.15594501066357" lon="8.062814630232209"><ele>169.0</ele><time>2026-04-18T15:22:32.965Z</time></trkpt><trkpt lat="45.15591661103359" lon="8.06302577235032"><ele>169.33333333333334</ele><time>2026-04-18T15:22:33.964Z</time></trkpt><trkpt lat="45.155884806306915" lon="8.063241433662942"><ele>169.66666666666666</ele><time>2026-04-18T15:22:34.964Z</time></trkpt><trkpt lat="45.15585512828974" lon="8.063456316850658"><ele>170.0</ele><time>2026-04-18T15:22:35.965Z</time></trkpt><trkpt lat="45.15582317932845" lon="8.063675060702785"><ele>170.0</ele><time>2026-04-18T15:22:36.965Z</time></trkpt><trkpt lat="45.155796605876006" lon="8.063891645343213"><ele>170.0</ele><time>2026-04-18T15:22:37.965Z</time></trkpt><trkpt lat="45.15576683073534" lon="8.064096364885458"><ele>170.0</ele><time>2026-04-18T15:22:38.965Z</time></trkpt><trkpt lat="45.15573895930058" lon="8.064292508515473"><ele>170.0</ele><time>2026-04-18T15:22:39.965Z</time></trkpt><trkpt lat="45.15571255513119" lon="8.064484943365377"><ele>171.25</ele><time>2026-04-18T15:22:40.965Z</time></trkpt><trkpt lat="45.155689098203055" lon="8.064679105409319"><ele>172.5</ele><time>2026-04-18T15:22:41.965Z</time></trkpt><trkpt lat="45.15566365816888" lon="8.064869618742284"><ele>173.75</ele><time>2026-04-18T15:22:42.965Z</time></trkpt><trkpt lat="45.15564081692059" lon="8.06505648785047"><ele>175.0</ele><time>2026-04-18T15:22:43.965Z</time></trkpt><trkpt lat="45.15561856406385" lon="8.065227956051253"><ele>175.0</ele><time>2026-04-18T15:22:44.965Z</time></trkpt><trkpt lat="45.15560440850143" lon="8.065387203027418"><ele>175.0</ele><time>2026-04-18T15:22:45.965Z</time></trkpt><trkpt lat="45.155571076259356" lon="8.065531991342171"><ele>175.0</ele><time>2026-04-18T15:22:46.965Z</time></trkpt><trkpt lat="45.15553369535038" lon="8.065656108635366"><ele>175.0</ele><time>2026-04-18T15:22:47.965Z</time></trkpt><trkpt lat="45.15548302072952" lon="8.065756148220688"><ele>175.0</ele><time>2026-04-18T15:22:48.965Z</time></trkpt><trkpt lat="45.15540180744539" lon="8.065812185454831"><ele>175.0</ele><time>2026-04-18T15:22:49.965Z</time></trkpt><trkpt lat="45.15533237106412" lon="8.065886081631888"><ele>175.0</ele><time>2026-04-18T15:22:50.965Z</time></trkpt><trkpt lat="45.15531763324355" lon="8.06599736986015"><ele>175.0</ele><time>2026-04-18T15:22:51.965Z</time></trkpt><trkpt lat="45.15535697229812" lon="8.066113434571287"><ele>175.0</ele><time>2026-04-18T15:22:52.965Z</time></trkpt><trkpt lat="45.15543118549029" lon="8.066194645074912"><ele>175.0</ele><time>2026-04-18T15:22:53.965Z</time></trkpt><trkpt lat="45.155546248893025" lon="8.066232491884813"><ele>175.0</ele><time>2026-04-18T15:22:54.965Z</time></trkpt><trkpt lat="45.15564141842418" lon="8.066305974488941"><ele>175.0</ele><time>2026-04-18T15:22:55.965Z</time></trkpt><trkpt lat="45.15574631541169" lon="8.06637021753375"><ele>175.0</ele><time>2026-04-18T15:22:56.965Z</time></trkpt><trkpt lat="45.155771535787274" lon="8.066649828446739"><ele>175.0</ele><time>2026-04-18T15:22:57.965Z</time></trkpt><trkpt lat="45.15583329621079" lon="8.066874051171006"><ele>174.0</ele><time>2026-04-18T15:22:58.965Z</time></trkpt><trkpt lat="45.15591413201828" lon="8.067112588691764"><ele>173.0</ele><time>2026-04-18T15:22:59.965Z</time></trkpt><trkpt lat="45.1559746103555" lon="8.067375341703338"><ele>172.0</ele><time>2026-04-18T15:23:00.965Z</time></trkpt><trkpt lat="45.1560395521836" lon="8.067626651661241"><ele>172.0</ele><time>2026-04-18T15:23:01.965Z</time></trkpt><trkpt lat="45.1561006544101" lon="8.067860751535182"><ele>172.0</ele><time>2026-04-18T15:23:02.965Z</time></trkpt><trkpt lat="45.156164632190396" lon="8.068108267282225"><ele>172.0</ele><time>2026-04-18T15:23:03.965Z</time></trkpt><trkpt lat="45.15623597968461" lon="8.068367491690353"><ele>172.66666666666669</ele><time>2026-04-18T15:23:04.965Z</time></trkpt><trkpt lat="45.156311532814385" lon="8.068632353393937"><ele>173.33333333333334</ele><time>2026-04-18T15:23:05.965Z</time></trkpt><trkpt lat="45.15638457701282" lon="8.068900641404687"><ele>174.0</ele><time>2026-04-18T15:23:06.965Z</time></trkpt><trkpt lat="45.156451625784584" lon="8.069152660442715"><ele>173.66666666666666</ele><time>2026-04-18T15:23:07.965Z</time></trkpt><trkpt lat="45.15651213824753" lon="8.069383212157094"><ele>173.33333333333331</ele><time>2026-04-18T15:23:08.965Z</time></trkpt><trkpt lat="45.15657536047036" lon="8.06959741928814"><ele>173.0</ele><time>2026-04-18T15:23:09.965Z</time></trkpt><trkpt lat="45.156627698866714" lon="8.069811932079013"><ele>172.66666666666666</ele><time>2026-04-18T15:23:10.965Z</time></trkpt><trkpt lat="45.15668416461036" lon="8.070028504856566"><ele>172.33333333333334</ele><time>2026-04-18T15:23:11.965Z</time></trkpt><trkpt lat="45.156746415265744" lon="8.070248671181277"><ele>172.0</ele><time>2026-04-18T15:23:12.965Z</time></trkpt><trkpt lat="45.156813418531385" lon="8.07047099570257"><ele>172.0</ele><time>2026-04-18T15:23:13.965Z</time></trkpt><trkpt lat="45.15687682660936" lon="8.07069866455315"><ele>172.0</ele><time>2026-04-18T15:23:14.965Z</time></trkpt><trkpt lat="45.156942269779954" lon="8.070932902792768"><ele>172.0</ele><time>2026-04-18T15:23:15.965Z</time></trkpt><trkpt lat="45.1570063941794" lon="8.071166223133304"><ele>172.0</ele><time>2026-04-18T15:23:16.965Z</time></trkpt><trkpt lat="45.15706441668312" lon="8.071385073240208"><ele>172.0</ele><time>2026-04-18T15:23:17.965Z</time></trkpt><trkpt lat="45.157121093971035" lon="8.071589903305705"><ele>172.0</ele><time>2026-04-18T15:23:18.965Z</time></trkpt><trkpt lat="45.15717897931949" lon="8.07181292037799"><ele>172.33333333333334</ele><time>2026-04-18T15:23:19.965Z</time></trkpt><trkpt lat="45.157239548009805" lon="8.072037749812782"><ele>172.66666666666666</ele><time>2026-04-18T15:23:20.965Z</time></trkpt><trkpt lat="45.15730083323022" lon="8.072262585618434"><ele>173.0</ele><time>2026-04-18T15:23:21.965Z</time></trkpt><trkpt lat="45.15736675984286" lon="8.072491696114461"><ele>172.66666666666666</ele><time>2026-04-18T15:23:22.965Z</time></trkpt><trkpt lat="45.15743207453919" lon="8.072723846406497"><ele>172.33333333333334</ele><time>2026-04-18T15:23:23.965Z</time></trkpt><trkpt lat="45.15749914262652" lon="8.072959161700503"><ele>172.0</ele><time>2026-04-18T15:23:24.965Z</time></trkpt><trkpt lat="45.15755974650252" lon="8.073181355530826"><ele>171.75</ele><time>2026-04-18T15:23:25.965Z</time></trkpt><trkpt lat="45.157615859358415" lon="8.073380442342598"><ele>171.5</ele><time>2026-04-18T15:23:26.965Z</time></trkpt><trkpt lat="45.157670944058296" lon="8.073568871557402"><ele>171.25</ele><time>2026-04-18T15:23:27.965Z</time></trkpt><trkpt lat="45.15771648568236" lon="8.073735948196827"><ele>171.0</ele><time>2026-04-18T15:23:28.965Z</time></trkpt><trkpt lat="45.15774612379246" lon="8.073867301511303"><ele>171.0</ele><time>2026-04-18T15:23:29.965Z</time></trkpt><trkpt lat="45.15775220611237" lon="8.07398949828732"><ele>171.0</ele><time>2026-04-18T15:23:30.965Z</time></trkpt><trkpt lat="45.15775528172337" lon="8.074097481476743"><ele>171.0</ele><time>2026-04-18T15:23:31.965Z</time></trkpt><trkpt lat="45.15779044652501" lon="8.074187792007157"><ele>171.0</ele><time>2026-04-18T15:23:32.965Z</time></trkpt><trkpt lat="45.15785361717604" lon="8.074266288065372"><ele>171.0</ele><time>2026-04-18T15:23:33.965Z</time></trkpt><trkpt lat="45.1579439753238" lon="8.074343166696014"><ele>171.0</ele><time>2026-04-18T15:23:34.965Z</time></trkpt><trkpt lat="45.15804214682771" lon="8.074459828551985"><ele>171.0</ele><time>2026-04-18T15:23:35.965Z</time></trkpt><trkpt lat="45.15812783783873" lon="8.07460206388815"><ele>171.0</ele><time>2026-04-18T15:23:36.965Z</time></trkpt><trkpt lat="45.158212267947654" lon="8.074740942418092"><ele>171.0</ele><time>2026-04-18T15:23:37.965Z</time></trkpt><trkpt lat="45.15830562652163" lon="8.074874067416292"><ele>171.0</ele><time>2026-04-18T15:23:38.965Z</time></trkpt><trkpt lat="45.158414017200684" lon="8.075015455473524"><ele>171.33333333333334</ele><time>2026-04-18T15:23:39.965Z</time></trkpt><trkpt lat="45.15853419884723" lon="8.07515154874389"><ele>171.66666666666669</ele><time>2026-04-18T15:23:40.965Z</time></trkpt><trkpt lat="45.15866795587314" lon="8.075283671809776"><ele>172.0</ele><time>2026-04-18T15:23:41.965Z</time></trkpt><trkpt lat="45.158811131352046" lon="8.075416902927879"><ele>172.0</ele><time>2026-04-18T15:23:42.965Z</time></trkpt><trkpt lat="45.15895620966625" lon="8.075562766809037"><ele>172.0</ele><time>2026-04-18T15:23:43.965Z</time></trkpt><trkpt lat="45.15909813246427" lon="8.075712929687317"><ele>172.0</ele><time>2026-04-18T15:23:44.966Z</time></trkpt><trkpt lat="45.15925259988888" lon="8.075857951494307"><ele>170.66666666666669</ele><time>2026-04-18T15:23:45.966Z</time></trkpt><trkpt lat="45.159406923998176" lon="8.076003661824691"><ele>169.33333333333334</ele><time>2026-04-18T15:23:46.966Z</time></trkpt><trkpt lat="45.159564157918126" lon="8.076150372738395"><ele>168.0</ele><time>2026-04-18T15:23:47.966Z</time></trkpt><trkpt lat="45.15971519244437" lon="8.076301676745926"><ele>168.0</ele><time>2026-04-18T15:23:48.966Z</time></trkpt><trkpt lat="45.15985611827788" lon="8.076450772251208"><ele>168.0</ele><time>2026-04-18T15:23:49.966Z</time></trkpt><trkpt lat="45.160006936217144" lon="8.076595046618056"><ele>168.0</ele><time>2026-04-18T15:23:50.966Z</time></trkpt><trkpt lat="45.16016052407387" lon="8.076743420111857"><ele>167.33333333333334</ele><time>2026-04-18T15:23:51.966Z</time></trkpt><trkpt lat="45.16031878040727" lon="8.076899153180861"><ele>166.66666666666669</ele><time>2026-04-18T15:23:52.966Z</time></trkpt><trkpt lat="45.160482469744345" lon="8.077056060637567"><ele>166.0</ele><time>2026-04-18T15:23:53.966Z</time></trkpt><trkpt lat="45.16065024487594" lon="8.077214509420674"><ele>165.66666666666669</ele><time>2026-04-18T15:23:54.966Z</time></trkpt><trkpt lat="45.16081640193556" lon="8.077383925707469"><ele>165.33333333333334</ele><time>2026-04-18T15:23:55.966Z</time></trkpt><trkpt lat="45.160986128952814" lon="8.077547154755354"><ele>165.0</ele><time>2026-04-18T15:23:56.966Z</time></trkpt><trkpt lat="45.16115816822584" lon="8.077710361333779"><ele>165.66666666666666</ele><time>2026-04-18T15:23:57.966Z</time></trkpt><trkpt lat="45.16132058386094" lon="8.077867314272455"><ele>166.33333333333331</ele><time>2026-04-18T15:23:58.966Z</time></trkpt><trkpt lat="45.16147790544301" lon="8.078024638896352"><ele>167.0</ele><time>2026-04-18T15:23:59.966Z</time></trkpt><trkpt lat="45.161637272806864" lon="8.078182511078346"><ele>167.33333333333331</ele><time>2026-04-18T15:24:00.966Z</time></trkpt><trkpt lat="45.16179507780487" lon="8.078338156593107"><ele>167.66666666666666</ele><time>2026-04-18T15:24:01.966Z</time></trkpt><trkpt lat="45.161955508639686" lon="8.078493574766728"><ele>168.0</ele><time>2026-04-18T15:24:02.966Z</time></trkpt><trkpt lat="45.16211642258404" lon="8.078648977150007"><ele>168.0</ele><time>2026-04-18T15:24:03.966Z</time></trkpt><trkpt lat="45.16227467059297" lon="8.078806055776784"><ele>168.0</ele><time>2026-04-18T15:24:04.966Z</time></trkpt><trkpt lat="45.16243314753187" lon="8.078965044795776"><ele>168.0</ele><time>2026-04-18T15:24:05.966Z</time></trkpt><trkpt lat="45.16259359803553" lon="8.079122387128331"><ele>167.0</ele><time>2026-04-18T15:24:06.966Z</time></trkpt><trkpt lat="45.16275485808791" lon="8.07928100695218"><ele>166.0</ele><time>2026-04-18T15:24:07.966Z</time></trkpt><trkpt lat="45.162914637317165" lon="8.079448029008566"><ele>165.0</ele><time>2026-04-18T15:24:08.966Z</time></trkpt><trkpt lat="45.163076555403016" lon="8.079609418419068"><ele>164.33333333333334</ele><time>2026-04-18T15:24:09.966Z</time></trkpt><trkpt lat="45.16323683539877" lon="8.079769038552142"><ele>163.66666666666669</ele><time>2026-04-18T15:24:10.966Z</time></trkpt><trkpt lat="45.163406229513015" lon="8.079919150960814"><ele>163.0</ele><time>2026-04-18T15:24:11.966Z</time></trkpt><trkpt lat="45.16356869974724" lon="8.08007994919905"><ele>163.0</ele><time>2026-04-18T15:24:12.966Z</time></trkpt><trkpt lat="45.1637311534102" lon="8.080239227934083"><ele>163.0</ele><time>2026-04-18T15:24:13.966Z</time></trkpt><trkpt lat="45.16389775690783" lon="8.080399590869867"><ele>163.0</ele><time>2026-04-18T15:24:14.966Z</time></trkpt><trkpt lat="45.164066023592184" lon="8.08055907550306"><ele>163.0</ele><time>2026-04-18T15:24:15.966Z</time></trkpt><trkpt lat="45.1642330181574" lon="8.080722196131926"><ele>163.0</ele><time>2026-04-18T15:24:16.966Z</time></trkpt><trkpt lat="45.16439637424745" lon="8.080889148460761"><ele>163.0</ele><time>2026-04-18T15:24:17.966Z</time></trkpt><trkpt lat="45.16455853926749" lon="8.081060301137466"><ele>163.0</ele><time>2026-04-18T15:24:18.966Z</time></trkpt><trkpt lat="45.16471669106189" lon="8.08124678447213"><ele>163.0</ele><time>2026-04-18T15:24:19.966Z</time></trkpt><trkpt lat="45.16486445246744" lon="8.081444538917427"><ele>163.0</ele><time>2026-04-18T15:24:20.966Z</time></trkpt><trkpt lat="45.165005287975156" lon="8.081653817714363"><ele>162.0</ele><time>2026-04-18T15:24:21.966Z</time></trkpt><trkpt lat="45.165141615475086" lon="8.081865772566399"><ele>161.0</ele><time>2026-04-18T15:24:22.966Z</time></trkpt><trkpt lat="45.165269555800506" lon="8.082092553552984"><ele>160.0</ele><time>2026-04-18T15:24:23.966Z</time></trkpt><trkpt lat="45.16539226564869" lon="8.082326446934095"><ele>160.33333333333334</ele><time>2026-04-18T15:24:24.966Z</time></trkpt><trkpt lat="45.16551037127863" lon="8.08256694144076"><ele>160.66666666666666</ele><time>2026-04-18T15:24:25.966Z</time></trkpt><trkpt lat="45.165622711648076" lon="8.082816897870368"><ele>161.0</ele><time>2026-04-18T15:24:26.966Z</time></trkpt><trkpt lat="45.16572726598651" lon="8.083074576675061"><ele>159.66666666666666</ele><time>2026-04-18T15:24:27.966Z</time></trkpt><trkpt lat="45.16582783139163" lon="8.083333454528411"><ele>158.33333333333334</ele><time>2026-04-18T15:24:28.966Z</time></trkpt><trkpt lat="45.16593321306328" lon="8.083596496739421"><ele>157.0</ele><time>2026-04-18T15:24:29.966Z</time></trkpt><trkpt lat="45.166031331778626" lon="8.083858861395903"><ele>158.0</ele><time>2026-04-18T15:24:30.966Z</time></trkpt><trkpt lat="45.16612782345806" lon="8.084125173071918"><ele>159.0</ele><time>2026-04-18T15:24:31.963Z</time></trkpt><trkpt lat="45.16622078654694" lon="8.084384438586522"><ele>160.0</ele><time>2026-04-18T15:24:32.963Z</time></trkpt><trkpt lat="45.166317395638394" lon="8.084649578021995"><ele>160.0</ele><time>2026-04-18T15:24:33.963Z</time></trkpt><trkpt lat="45.16641451362135" lon="8.084918608891243"><ele>160.0</ele><time>2026-04-18T15:24:34.963Z</time></trkpt><trkpt lat="45.16651201334289" lon="8.085185644794587"><ele>160.0</ele><time>2026-04-18T15:24:35.964Z</time></trkpt><trkpt lat="45.16661148557771" lon="8.085450059040033"><ele>160.33333333333334</ele><time>2026-04-18T15:24:36.964Z</time></trkpt><trkpt lat="45.16670942359905" lon="8.08571393899195"><ele>160.66666666666666</ele><time>2026-04-18T15:24:37.964Z</time></trkpt><trkpt lat="45.166805106845466" lon="8.085975785205251"><ele>161.0</ele><time>2026-04-18T15:24:38.963Z</time></trkpt><trkpt lat="45.16689286431083" lon="8.086227088904916"><ele>160.0</ele><time>2026-04-18T15:24:39.963Z</time></trkpt><trkpt lat="45.16697605556975" lon="8.086461742981404"><ele>159.0</ele><time>2026-04-18T15:24:40.963Z</time></trkpt><trkpt lat="45.16705725359099" lon="8.086677651656334"><ele>158.0</ele><time>2026-04-18T15:24:41.963Z</time></trkpt><trkpt lat="45.16714150763789" lon="8.086882866698149"><ele>158.0</ele><time>2026-04-18T15:24:42.963Z</time></trkpt><trkpt lat="45.16722377311317" lon="8.087075157684232"><ele>158.0</ele><time>2026-04-18T15:24:43.963Z</time></trkpt><trkpt lat="45.16730612626911" lon="8.087263861989355"><ele>158.0</ele><time>2026-04-18T15:24:44.964Z</time></trkpt><trkpt lat="45.167389341018314" lon="8.087446753220124"><ele>157.0</ele><time>2026-04-18T15:24:45.964Z</time></trkpt><trkpt lat="45.16747397103917" lon="8.08763075260963"><ele>156.0</ele><time>2026-04-18T15:24:46.964Z</time></trkpt><trkpt lat="45.1675615035468" lon="8.087820161833047"><ele>155.0</ele><time>2026-04-18T15:24:47.964Z</time></trkpt><trkpt lat="45.167654172820086" lon="8.088003956513493"><ele>155.0</ele><time>2026-04-18T15:24:48.964Z</time></trkpt><trkpt lat="45.16775393485127" lon="8.08818815180877"><ele>155.0</ele><time>2026-04-18T15:24:49.964Z</time></trkpt><trkpt lat="45.167857722604715" lon="8.088376315271171"><ele>155.0</ele><time>2026-04-18T15:24:50.964Z</time></trkpt><trkpt lat="45.16796273639057" lon="8.088564757601825"><ele>154.66666666666666</ele><time>2026-04-18T15:24:51.964Z</time></trkpt><trkpt lat="45.16807221586264" lon="8.088754311164355"><ele>154.33333333333334</ele><time>2026-04-18T15:24:52.964Z</time></trkpt><trkpt lat="45.16818820590935" lon="8.088939376069279"><ele>154.0</ele><time>2026-04-18T15:24:53.964Z</time></trkpt><trkpt lat="45.168306501933905" lon="8.08912436159687"><ele>154.0</ele><time>2026-04-18T15:24:54.964Z</time></trkpt><trkpt lat="45.16843365054604" lon="8.089310358031156"><ele>154.0</ele><time>2026-04-18T15:24:55.964Z</time></trkpt><trkpt lat="45.1685574818625" lon="8.089496290712718"><ele>154.0</ele><time>2026-04-18T15:24:56.964Z</time></trkpt><trkpt lat="45.168680389166205" lon="8.08968688447636"><ele>154.0</ele><time>2026-04-18T15:24:57.964Z</time></trkpt><trkpt lat="45.16880617294961" lon="8.089878233001414"><ele>154.0</ele><time>2026-04-18T15:24:58.964Z</time></trkpt><trkpt lat="45.16893023231015" lon="8.09007197066299"><ele>154.0</ele><time>2026-04-18T15:24:59.964Z</time></trkpt><trkpt lat="45.169058818603546" lon="8.09026474560269"><ele>153.33333333333334</ele><time>2026-04-18T15:25:00.964Z</time></trkpt><trkpt lat="45.169188642094845" lon="8.090457107151376"><ele>152.66666666666666</ele><time>2026-04-18T15:25:01.964Z</time></trkpt><trkpt lat="45.169318762403826" lon="8.090649096961123"><ele>152.0</ele><time>2026-04-18T15:25:02.964Z</time></trkpt><trkpt lat="45.169448427343596" lon="8.09084188347202"><ele>152.0</ele><time>2026-04-18T15:25:03.964Z</time></trkpt><trkpt lat="45.16958401349695" lon="8.09104194712747"><ele>152.0</ele><time>2026-04-18T15:25:04.964Z</time></trkpt><trkpt lat="45.16971798498262" lon="8.091241982398497"><ele>152.0</ele><time>2026-04-18T15:25:05.964Z</time></trkpt><trkpt lat="45.169852241357" lon="8.091444902373848"><ele>152.66666666666666</ele><time>2026-04-18T15:25:06.964Z</time></trkpt><trkpt lat="45.16998525407759" lon="8.09165163953271"><ele>153.33333333333334</ele><time>2026-04-18T15:25:07.964Z</time></trkpt><trkpt lat="45.17012637474622" lon="8.091854599965876"><ele>154.0</ele><time>2026-04-18T15:25:08.964Z</time></trkpt><trkpt lat="45.170269594938524" lon="8.092064521325392"><ele>154.0</ele><time>2026-04-18T15:25:09.964Z</time></trkpt><trkpt lat="45.17041118958147" lon="8.092279975805893"><ele>154.0</ele><time>2026-04-18T15:25:10.964Z</time></trkpt><trkpt lat="45.170559144049804" lon="8.092501631763474"><ele>154.0</ele><time>2026-04-18T15:25:11.964Z</time></trkpt><trkpt lat="45.1707096635124" lon="8.092725956055958"><ele>153.66666666666669</ele><time>2026-04-18T15:25:12.964Z</time></trkpt><trkpt lat="45.17086262767257" lon="8.092949963107127"><ele>153.33333333333334</ele><time>2026-04-18T15:25:13.964Z</time></trkpt><trkpt lat="45.17101443394424" lon="8.093171223594485"><ele>153.0</ele><time>2026-04-18T15:25:14.964Z</time></trkpt><trkpt lat="45.171169305779955" lon="8.093387636007472"><ele>153.0</ele><time>2026-04-18T15:25:15.964Z</time></trkpt><trkpt lat="45.171312689188305" lon="8.093610888202859"><ele>153.0</ele><time>2026-04-18T15:25:16.964Z</time></trkpt><trkpt lat="45.17145354787335" lon="8.093828589767595"><ele>153.0</ele><time>2026-04-18T15:25:17.964Z</time></trkpt><trkpt lat="45.171589675140595" lon="8.094052519795618"><ele>153.0</ele><time>2026-04-18T15:25:18.964Z</time></trkpt><trkpt lat="45.171730087138364" lon="8.094271810868483"><ele>153.0</ele><time>2026-04-18T15:25:19.964Z</time></trkpt><trkpt lat="45.17187287879601" lon="8.094493269935537"><ele>153.0</ele><time>2026-04-18T15:25:20.964Z</time></trkpt><trkpt lat="45.172019863011776" lon="8.094711507883913"><ele>153.0</ele><time>2026-04-18T15:25:21.964Z</time></trkpt><trkpt lat="45.17216466673823" lon="8.094929588726407"><ele>153.0</ele><time>2026-04-18T15:25:22.964Z</time></trkpt><trkpt lat="45.17230496323546" lon="8.095146223793925"><ele>153.0</ele><time>2026-04-18T15:25:23.964Z</time></trkpt><trkpt lat="45.172449103997394" lon="8.095363301366733"><ele>153.0</ele><time>2026-04-18T15:25:24.964Z</time></trkpt><trkpt lat="45.17259034029318" lon="8.09557856918386"><ele>153.0</ele><time>2026-04-18T15:25:25.964Z</time></trkpt><trkpt lat="45.17272679636963" lon="8.095793533275355"><ele>153.0</ele><time>2026-04-18T15:25:26.964Z</time></trkpt><trkpt lat="45.1728697224908" lon="8.09600480192435"><ele>154.33333333333334</ele><time>2026-04-18T15:25:27.964Z</time></trkpt><trkpt lat="45.17300656100437" lon="8.096217179960373"><ele>155.66666666666669</ele><time>2026-04-18T15:25:28.964Z</time></trkpt><trkpt lat="45.17313863473768" lon="8.096430325627223"><ele>157.0</ele><time>2026-04-18T15:25:29.964Z</time></trkpt><trkpt lat="45.17326558515486" lon="8.09664549777849"><ele>159.66666666666669</ele><time>2026-04-18T15:25:30.964Z</time></trkpt><trkpt lat="45.17338081078383" lon="8.096871696434684"><ele>162.33333333333334</ele><time>2026-04-18T15:25:31.964Z</time></trkpt><trkpt lat="45.173487458314625" lon="8.09710002109517"><ele>165.0</ele><time>2026-04-18T15:25:32.964Z</time></trkpt><trkpt lat="45.17359379167458" lon="8.097329693629904"><ele>165.0</ele><time>2026-04-18T15:25:33.964Z</time></trkpt><trkpt lat="45.17369918108978" lon="8.097555904336406"><ele>165.0</ele><time>2026-04-18T15:25:34.964Z</time></trkpt><trkpt lat="45.17380933923843" lon="8.097767012937792"><ele>165.0</ele><time>2026-04-18T15:25:35.964Z</time></trkpt><trkpt lat="45.17392802556049" lon="8.097957472431226"><ele>164.66666666666666</ele><time>2026-04-18T15:25:36.964Z</time></trkpt><trkpt lat="45.17405000922251" lon="8.098131311176882"><ele>164.33333333333331</ele><time>2026-04-18T15:25:37.964Z</time></trkpt><trkpt lat="45.17417596908397" lon="8.098281250946773"><ele>164.0</ele><time>2026-04-18T15:25:38.964Z</time></trkpt><trkpt lat="45.174311633523885" lon="8.098402494824537"><ele>164.0</ele><time>2026-04-18T15:25:39.964Z</time></trkpt><trkpt lat="45.17445578242474" lon="8.098518197874604"><ele>164.0</ele><time>2026-04-18T15:25:40.964Z</time></trkpt><trkpt lat="45.17461740584801" lon="8.098596680588418"><ele>164.0</ele><time>2026-04-18T15:25:41.965Z</time></trkpt><trkpt lat="45.17477340213661" lon="8.098654047756519"><ele>162.0</ele><time>2026-04-18T15:25:42.965Z</time></trkpt><trkpt lat="45.174907427605284" lon="8.09869832961514"><ele>160.0</ele><time>2026-04-18T15:25:43.965Z</time></trkpt><trkpt lat="45.17504039253068" lon="8.098720679209398"><ele>158.0</ele><time>2026-04-18T15:25:44.965Z</time></trkpt><trkpt lat="45.175164842809" lon="8.098708217048236"><ele>156.0</ele><time>2026-04-18T15:25:45.965Z</time></trkpt><trkpt lat="45.17528095530141" lon="8.098736468028523"><ele>156.0</ele><time>2026-04-18T15:25:46.965Z</time></trkpt><trkpt lat="45.175383460399395" lon="8.098767830343668"><ele>156.0</ele><time>2026-04-18T15:25:47.965Z</time></trkpt><trkpt lat="45.17548090209008" lon="8.098796661066043"><ele>156.0</ele><time>2026-04-18T15:25:48.965Z</time></trkpt><trkpt lat="45.17558291214587" lon="8.09882879726786"><ele>156.0</ele><time>2026-04-18T15:25:49.965Z</time></trkpt><trkpt lat="45.17569293810271" lon="8.098860089383653"><ele>156.0</ele><time>2026-04-18T15:25:50.965Z</time></trkpt><trkpt lat="45.17580694878331" lon="8.098882954760105"><ele>155.0</ele><time>2026-04-18T15:25:51.965Z</time></trkpt><trkpt lat="45.17591185213318" lon="8.098937368195795"><ele>154.0</ele><time>2026-04-18T15:25:52.965Z</time></trkpt><trkpt lat="45.1760105716069" lon="8.098964545593983"><ele>153.0</ele><time>2026-04-18T15:25:53.965Z</time></trkpt><trkpt lat="45.1761033191657" lon="8.098986779680207"><ele>152.0</ele><time>2026-04-18T15:25:54.965Z</time></trkpt><trkpt lat="45.17619017235846" lon="8.09900371229309"><ele>151.0</ele><time>2026-04-18T15:25:55.965Z</time></trkpt><trkpt lat="45.176274817599314" lon="8.099018309577621"><ele>151.0</ele><time>2026-04-18T15:25:56.965Z</time></trkpt><trkpt lat="45.17634752143501" lon="8.099032209229021"><ele>151.0</ele><time>2026-04-18T15:25:57.965Z</time></trkpt><trkpt lat="45.17646027000466" lon="8.09905333275992"><ele>151.0</ele><time>2026-04-18T15:25:59.965Z</time></trkpt><trkpt lat="45.17653612580133" lon="8.099067980558505"><ele>151.0</ele><time>2026-04-18T15:26:01.965Z</time></trkpt><trkpt lat="45.17660874685872" lon="8.099071700045593"><ele>151.0</ele><time>2026-04-18T15:26:47.962Z</time></trkpt><trkpt lat="45.17672440901087" lon="8.099102277529582"><ele>150.4</ele><time>2026-04-18T15:26:49.962Z</time></trkpt><trkpt lat="45.176813604238504" lon="8.099123228462366"><ele>149.8</ele><time>2026-04-18T15:26:50.961Z</time></trkpt><trkpt lat="45.17690982211725" lon="8.099145834864231"><ele>149.20000000000002</ele><time>2026-04-18T15:26:51.961Z</time></trkpt><trkpt lat="45.17699737295604" lon="8.099166404986379"><ele>148.6</ele><time>2026-04-18T15:26:52.961Z</time></trkpt><trkpt lat="45.177099647414956" lon="8.099190318024297"><ele>148.0</ele><time>2026-04-18T15:26:53.961Z</time></trkpt><trkpt lat="45.17721371327622" lon="8.099216228830594"><ele>148.0</ele><time>2026-04-18T15:26:54.961Z</time></trkpt><trkpt lat="45.177338880838256" lon="8.09924466146209"><ele>148.0</ele><time>2026-04-18T15:26:55.961Z</time></trkpt><trkpt lat="45.1774746616684" lon="8.099275504961328"><ele>148.0</ele><time>2026-04-18T15:26:56.961Z</time></trkpt><trkpt lat="45.177600743879935" lon="8.09930414536806"><ele>148.0</ele><time>2026-04-18T15:26:57.961Z</time></trkpt><trkpt lat="45.17772768964116" lon="8.099311599504436"><ele>148.0</ele><time>2026-04-18T15:26:58.961Z</time></trkpt><trkpt lat="45.17785548301592" lon="8.099348900675889"><ele>148.0</ele><time>2026-04-18T15:26:59.961Z</time></trkpt><trkpt lat="45.17798054233412" lon="8.09938239819927"><ele>148.0</ele><time>2026-04-18T15:27:00.961Z</time></trkpt><trkpt lat="45.17810125067799" lon="8.099405234222331"><ele>148.0</ele><time>2026-04-18T15:27:01.961Z</time></trkpt><trkpt lat="45.17821787655298" lon="8.099441965002743"><ele>148.0</ele><time>2026-04-18T15:27:02.961Z</time></trkpt><trkpt lat="45.17832678841594" lon="8.099469662568747"><ele>148.0</ele><time>2026-04-18T15:27:03.961Z</time></trkpt><trkpt lat="45.17843643413001" lon="8.099506097511776"><ele>148.0</ele><time>2026-04-18T15:27:04.961Z</time></trkpt><trkpt lat="45.17854252351658" lon="8.099551868574542"><ele>148.0</ele><time>2026-04-18T15:27:05.961Z</time></trkpt><trkpt lat="45.17864882536194" lon="8.099584734422214"><ele>148.0</ele><time>2026-04-18T15:27:06.961Z</time></trkpt><trkpt lat="45.178764071822584" lon="8.099606215268551"><ele>148.0</ele><time>2026-04-18T15:27:07.961Z</time></trkpt><trkpt lat="45.178882146847805" lon="8.099624118528176"><ele>148.0</ele><time>2026-04-18T15:27:08.961Z</time></trkpt><trkpt lat="45.17900544701994" lon="8.099644763221574"><ele>148.0</ele><time>2026-04-18T15:27:09.961Z</time></trkpt><trkpt lat="45.17911827772037" lon="8.099671675279982"><ele>148.0</ele><time>2026-04-18T15:27:10.961Z</time></trkpt><trkpt lat="45.179234939571145" lon="8.099700900964045"><ele>147.75</ele><time>2026-04-18T15:27:11.961Z</time></trkpt><trkpt lat="45.17935466010897" lon="8.099729098126197"><ele>147.5</ele><time>2026-04-18T15:27:12.961Z</time></trkpt><trkpt lat="45.179478837543364" lon="8.099754398186638"><ele>147.25</ele><time>2026-04-18T15:27:13.961Z</time></trkpt><trkpt lat="45.17960583365157" lon="8.09978318937087"><ele>147.0</ele><time>2026-04-18T15:27:14.962Z</time></trkpt><trkpt lat="45.17973313212912" lon="8.099813020080639"><ele>147.75</ele><time>2026-04-18T15:27:15.962Z</time></trkpt><trkpt lat="45.179863829639295" lon="8.099839123303045"><ele>148.5</ele><time>2026-04-18T15:27:16.962Z</time></trkpt><trkpt lat="45.18000463826279" lon="8.099869258187786"><ele>149.25</ele><time>2026-04-18T15:27:17.962Z</time></trkpt><trkpt lat="45.18016210918673" lon="8.099903109395015"><ele>150.0</ele><time>2026-04-18T15:27:18.962Z</time></trkpt><trkpt lat="45.18033756193408" lon="8.099940208699481"><ele>150.33333333333334</ele><time>2026-04-18T15:27:19.962Z</time></trkpt><trkpt lat="45.18053538543359" lon="8.09997603227821"><ele>150.66666666666669</ele><time>2026-04-18T15:27:20.962Z</time></trkpt><trkpt lat="45.180753258495145" lon="8.100043977758503"><ele>151.0</ele><time>2026-04-18T15:27:21.962Z</time></trkpt><trkpt lat="45.18098420119892" lon="8.100098509584944"><ele>151.5</ele><time>2026-04-18T15:27:22.962Z</time></trkpt><trkpt lat="45.18122842697838" lon="8.10014515714928"><ele>152.0</ele><time>2026-04-18T15:27:23.962Z</time></trkpt><trkpt lat="45.181490260136" lon="8.100215841726833"><ele>153.0</ele><time>2026-04-18T15:27:24.962Z</time></trkpt><trkpt lat="45.18175241910774" lon="8.100282812252425"><ele>154.0</ele><time>2026-04-18T15:27:25.962Z</time></trkpt><trkpt lat="45.1820042851961" lon="8.100342931324672"><ele>154.0</ele><time>2026-04-18T15:27:26.962Z</time></trkpt><trkpt lat="45.182263571471076" lon="8.100406414349104"><ele>154.0</ele><time>2026-04-18T15:27:27.962Z</time></trkpt><trkpt lat="45.18252486945167" lon="8.100471817553645"><ele>155.5</ele><time>2026-04-18T15:27:28.962Z</time></trkpt><trkpt lat="45.182781961890996" lon="8.100532545344533"><ele>157.0</ele><time>2026-04-18T15:27:29.962Z</time></trkpt><trkpt lat="45.183030738701" lon="8.10058874864867"><ele>156.66666666666669</ele><time>2026-04-18T15:27:30.962Z</time></trkpt><trkpt lat="45.183257269228726" lon="8.100641788499878"><ele>156.33333333333334</ele><time>2026-04-18T15:27:31.962Z</time></trkpt><trkpt lat="45.183469004035366" lon="8.100689892820888"><ele>156.0</ele><time>2026-04-18T15:27:32.962Z</time></trkpt><trkpt lat="45.18369032686834" lon="8.100745979155711"><ele>154.66666666666666</ele><time>2026-04-18T15:27:33.962Z</time></trkpt><trkpt lat="45.18391100055342" lon="8.100791683653283"><ele>153.33333333333331</ele><time>2026-04-18T15:27:34.962Z</time></trkpt><trkpt lat="45.18411676272183" lon="8.100833334019597"><ele>152.0</ele><time>2026-04-18T15:27:35.962Z</time></trkpt><trkpt lat="45.18431170566464" lon="8.100872780336479"><ele>151.66666666666666</ele><time>2026-04-18T15:27:36.962Z</time></trkpt><trkpt lat="45.18449176244809" lon="8.100906331896576"><ele>151.33333333333334</ele><time>2026-04-18T15:27:37.962Z</time></trkpt><trkpt lat="45.18465966739819" lon="8.100942451306937"><ele>151.0</ele><time>2026-04-18T15:27:38.962Z</time></trkpt><trkpt lat="45.184817433614484" lon="8.100980663272004"><ele>151.0</ele><time>2026-04-18T15:27:39.962Z</time></trkpt><trkpt lat="45.18495697325565" lon="8.10100803450997"><ele>151.0</ele><time>2026-04-18T15:27:40.962Z</time></trkpt><trkpt lat="45.18507120984103" lon="8.101028102357262"><ele>151.0</ele><time>2026-04-18T15:27:41.962Z</time></trkpt><trkpt lat="45.185169156485195" lon="8.101042135256728"><ele>151.0</ele><time>2026-04-18T15:27:42.962Z</time></trkpt><trkpt lat="45.18526093462374" lon="8.101052066459971"><ele>151.0</ele><time>2026-04-18T15:27:43.962Z</time></trkpt><trkpt lat="45.18534383288565" lon="8.10105592653928"><ele>151.0</ele><time>2026-04-18T15:27:44.962Z</time></trkpt><trkpt lat="45.18543148653395" lon="8.101037458955208"><ele>151.0</ele><time>2026-04-18T15:27:45.962Z</time></trkpt><trkpt lat="45.18548801119278" lon="8.100965234605408"><ele>151.0</ele><time>2026-04-18T15:27:46.962Z</time></trkpt><trkpt lat="45.18551149294929" lon="8.10085504001036"><ele>151.0</ele><time>2026-04-18T15:27:47.962Z</time></trkpt><trkpt lat="45.18550511680715" lon="8.100705707992125"><ele>151.0</ele><time>2026-04-18T15:27:48.962Z</time></trkpt><trkpt lat="45.185472899330506" lon="8.100523122928973"><ele>151.0</ele><time>2026-04-18T15:27:49.962Z</time></trkpt><trkpt lat="45.18545720577446" lon="8.100284863467802"><ele>151.0</ele><time>2026-04-18T15:27:50.962Z</time></trkpt><trkpt lat="45.185462097687804" lon="8.10003076945139"><ele>151.0</ele><time>2026-04-18T15:27:51.962Z</time></trkpt><trkpt lat="45.185461922171804" lon="8.099777032109357"><ele>151.33333333333334</ele><time>2026-04-18T15:27:52.962Z</time></trkpt><trkpt lat="45.18548203148936" lon="8.0994990817425"><ele>151.66666666666666</ele><time>2026-04-18T15:27:53.962Z</time></trkpt><trkpt lat="45.18549263806561" lon="8.099217155776198"><ele>152.0</ele><time>2026-04-18T15:27:54.962Z</time></trkpt><trkpt lat="45.18550257248148" lon="8.098953096111762"><ele>151.5</ele><time>2026-04-18T15:27:55.962Z</time></trkpt><trkpt lat="45.185510856762505" lon="8.098703428179588"><ele>151.0</ele><time>2026-04-18T15:27:56.962Z</time></trkpt><trkpt lat="45.18552388313582" lon="8.09851389284345"><ele>150.5</ele><time>2026-04-18T15:27:57.962Z</time></trkpt><trkpt lat="45.18555249915752" lon="8.09837448922949"><ele>150.0</ele><time>2026-04-18T15:27:58.962Z</time></trkpt><trkpt lat="45.18561896427115" lon="8.09828565975548"><ele>150.25</ele><time>2026-04-18T15:27:59.962Z</time></trkpt><trkpt lat="45.18571162983995" lon="8.098230866953031"><ele>150.5</ele><time>2026-04-18T15:28:00.962Z</time></trkpt><trkpt lat="45.185826217661294" lon="8.098204516708577"><ele>150.75</ele><time>2026-04-18T15:28:01.962Z</time></trkpt><trkpt lat="45.18593862887958" lon="8.098277861102712"><ele>151.0</ele><time>2026-04-18T15:28:02.962Z</time></trkpt><trkpt lat="45.18602249764762" lon="8.098401775920763"><ele>151.0</ele><time>2026-04-18T15:28:03.962Z</time></trkpt><trkpt lat="45.186066826393684" lon="8.098574032469243"><ele>151.0</ele><time>2026-04-18T15:28:04.962Z</time></trkpt><trkpt lat="45.18608206189743" lon="8.098765898174777"><ele>151.0</ele><time>2026-04-18T15:28:05.962Z</time></trkpt><trkpt lat="45.18607885368855" lon="8.09896539136123"><ele>151.0</ele><time>2026-04-18T15:28:06.962Z</time></trkpt><trkpt lat="45.18598443241574" lon="8.099191198098097"><ele>150.66666666666669</ele><time>2026-04-18T15:28:07.962Z</time></trkpt><trkpt lat="45.18595847851356" lon="8.099447337281317"><ele>150.33333333333334</ele><time>2026-04-18T15:28:08.962Z</time></trkpt><trkpt lat="45.18592457584732" lon="8.099674994268524"><ele>150.0</ele><time>2026-04-18T15:28:09.962Z</time></trkpt><trkpt lat="45.18588085876154" lon="8.099908390718115"><ele>150.33333333333334</ele><time>2026-04-18T15:28:10.962Z</time></trkpt><trkpt lat="45.18582725410274" lon="8.10016058376274"><ele>150.66666666666669</ele><time>2026-04-18T15:28:11.962Z</time></trkpt><trkpt lat="45.18579064762887" lon="8.100456895039878"><ele>151.0</ele><time>2026-04-18T15:28:12.962Z</time></trkpt><trkpt lat="45.185753027862575" lon="8.100759349310675"><ele>151.0</ele><time>2026-04-18T15:28:13.962Z</time></trkpt><trkpt lat="45.185723649261895" lon="8.10105103916127"><ele>151.0</ele><time>2026-04-18T15:28:14.962Z</time></trkpt><trkpt lat="45.18569347782404" lon="8.10139081558225"><ele>151.0</ele><time>2026-04-18T15:28:15.962Z</time></trkpt><trkpt lat="45.18567036404511" lon="8.101745275525078"><ele>151.0</ele><time>2026-04-18T15:28:16.962Z</time></trkpt><trkpt lat="45.18569360985193" lon="8.102105005081942"><ele>151.0</ele><time>2026-04-18T15:28:17.962Z</time></trkpt><trkpt lat="45.185699800857535" lon="8.102462353347617"><ele>151.0</ele><time>2026-04-18T15:28:18.962Z</time></trkpt><trkpt lat="45.18569190000004" lon="8.102797121293646"><ele>151.0</ele><time>2026-04-18T15:28:19.962Z</time></trkpt><trkpt lat="45.185688960894474" lon="8.103122535509348"><ele>150.5</ele><time>2026-04-18T15:28:20.962Z</time></trkpt><trkpt lat="45.18569575376448" lon="8.103474747795046"><ele>150.0</ele><time>2026-04-18T15:28:21.962Z</time></trkpt><trkpt lat="45.18571020760476" lon="8.103829295327238"><ele>150.0</ele><time>2026-04-18T15:28:22.962Z</time></trkpt><trkpt lat="45.18570635720423" lon="8.104176189337991"><ele>150.0</ele><time>2026-04-18T15:28:23.962Z</time></trkpt><trkpt lat="45.18572266746105" lon="8.104524439908433"><ele>150.0</ele><time>2026-04-18T15:28:24.962Z</time></trkpt><trkpt lat="45.185747093137" lon="8.104858205741527"><ele>150.0</ele><time>2026-04-18T15:28:25.962Z</time></trkpt><trkpt lat="45.18577601992176" lon="8.10518794764077"><ele>149.0</ele><time>2026-04-18T15:28:26.962Z</time></trkpt><trkpt lat="45.18580982074053" lon="8.10551445135863"><ele>148.0</ele><time>2026-04-18T15:28:27.962Z</time></trkpt><trkpt lat="45.18586039436593" lon="8.105822867191016"><ele>148.0</ele><time>2026-04-18T15:28:28.962Z</time></trkpt><trkpt lat="45.18589185928389" lon="8.106176270060564"><ele>148.0</ele><time>2026-04-18T15:28:29.962Z</time></trkpt><trkpt lat="45.18594821592944" lon="8.106547506074572"><ele>149.0</ele><time>2026-04-18T15:28:30.962Z</time></trkpt><trkpt lat="45.18601158717783" lon="8.106921332326845"><ele>150.0</ele><time>2026-04-18T15:28:31.962Z</time></trkpt><trkpt lat="45.18607613111749" lon="8.107280823496085"><ele>150.0</ele><time>2026-04-18T15:28:32.962Z</time></trkpt><trkpt lat="45.186143873892426" lon="8.107618327184309"><ele>150.0</ele><time>2026-04-18T15:28:33.962Z</time></trkpt><trkpt lat="45.18621546600587" lon="8.107944396865761"><ele>150.0</ele><time>2026-04-18T15:28:34.962Z</time></trkpt><trkpt lat="45.18628495180093" lon="8.108224967697891"><ele>150.0</ele><time>2026-04-18T15:28:35.962Z</time></trkpt><trkpt lat="45.186361058442046" lon="8.1085202483879"><ele>150.0</ele><time>2026-04-18T15:28:36.962Z</time></trkpt><trkpt lat="45.18645836126117" lon="8.108820059168952"><ele>150.0</ele><time>2026-04-18T15:28:37.962Z</time></trkpt><trkpt lat="45.186539811858395" lon="8.109135672427369"><ele>150.0</ele><time>2026-04-18T15:28:38.963Z</time></trkpt><trkpt lat="45.18662341676194" lon="8.109455393816143"><ele>150.0</ele><time>2026-04-18T15:28:39.963Z</time></trkpt><trkpt lat="45.18670911834246" lon="8.109782879368833"><ele>150.0</ele><time>2026-04-18T15:28:40.963Z</time></trkpt><trkpt lat="45.18679593353186" lon="8.110110915458252"><ele>150.5</ele><time>2026-04-18T15:28:41.963Z</time></trkpt><trkpt lat="45.186889105139194" lon="8.110442847612756"><ele>151.0</ele><time>2026-04-18T15:28:42.963Z</time></trkpt><trkpt lat="45.18698021032841" lon="8.11077448707539"><ele>149.5</ele><time>2026-04-18T15:28:43.961Z</time></trkpt><trkpt lat="45.187067487180826" lon="8.111111349729214"><ele>148.0</ele><time>2026-04-18T15:28:44.96Z</time></trkpt><trkpt lat="45.18715505971706" lon="8.11145115588511"><ele>148.0</ele><time>2026-04-18T15:28:45.96Z</time></trkpt><trkpt lat="45.187245501404995" lon="8.111791616306027"><ele>148.0</ele><time>2026-04-18T15:28:46.961Z</time></trkpt><trkpt lat="45.18733819022982" lon="8.11213432925443"><ele>149.0</ele><time>2026-04-18T15:28:47.961Z</time></trkpt><trkpt lat="45.18743091669117" lon="8.112478542765913"><ele>150.0</ele><time>2026-04-18T15:28:48.961Z</time></trkpt><trkpt lat="45.187522105374256" lon="8.112824958641667"><ele>150.0</ele><time>2026-04-18T15:28:49.961Z</time></trkpt><trkpt lat="45.18761317942327" lon="8.113171137092323"><ele>150.0</ele><time>2026-04-18T15:28:50.961Z</time></trkpt><trkpt lat="45.18770578215099" lon="8.113515845802855"><ele>150.0</ele><time>2026-04-18T15:28:51.961Z</time></trkpt><trkpt lat="45.18779785237702" lon="8.113856097630107"><ele>150.0</ele><time>2026-04-18T15:28:52.962Z</time></trkpt><trkpt lat="45.187886607366885" lon="8.114194510576196"><ele>150.0</ele><time>2026-04-18T15:28:53.962Z</time></trkpt><trkpt lat="45.18797778529767" lon="8.114525374518657"><ele>150.0</ele><time>2026-04-18T15:28:54.963Z</time></trkpt><trkpt lat="45.18806491938384" lon="8.114848495766562"><ele>149.0</ele><time>2026-04-18T15:28:55.964Z</time></trkpt><trkpt lat="45.18815195840705" lon="8.115160220464096"><ele>148.0</ele><time>2026-04-18T15:28:56.964Z</time></trkpt><trkpt lat="45.188233274872125" lon="8.115463311370323"><ele>148.33333333333334</ele><time>2026-04-18T15:28:57.964Z</time></trkpt><trkpt lat="45.188311067550345" lon="8.115761291519002"><ele>148.66666666666666</ele><time>2026-04-18T15:28:58.965Z</time></trkpt><trkpt lat="45.18838959840135" lon="8.116055048537412"><ele>149.0</ele><time>2026-04-18T15:28:59.965Z</time></trkpt><trkpt lat="45.18846464325571" lon="8.116336114360543"><ele>149.33333333333331</ele><time>2026-04-18T15:29:00.966Z</time></trkpt><trkpt lat="45.18854170578221" lon="8.116599330094155"><ele>149.66666666666666</ele><time>2026-04-18T15:29:01.966Z</time></trkpt><trkpt lat="45.18862303164716" lon="8.116861644397147"><ele>150.0</ele><time>2026-04-18T15:29:02.966Z</time></trkpt><trkpt lat="45.1886915194022" lon="8.117143675069276"><ele>149.66666666666666</ele><time>2026-04-18T15:29:03.967Z</time></trkpt><trkpt lat="45.188769573921384" lon="8.11743390912248"><ele>149.33333333333331</ele><time>2026-04-18T15:29:04.967Z</time></trkpt><trkpt lat="45.18884704168651" lon="8.117720340984462"><ele>149.0</ele><time>2026-04-18T15:29:05.967Z</time></trkpt><trkpt lat="45.18893314814672" lon="8.117978448053838"><ele>149.0</ele><time>2026-04-18T15:29:06.967Z</time></trkpt><trkpt lat="45.1889946664478" lon="8.118233229058774"><ele>149.0</ele><time>2026-04-18T15:29:07.968Z</time></trkpt><trkpt lat="45.18905470782816" lon="8.118474732093587"><ele>149.0</ele><time>2026-04-18T15:29:08.968Z</time></trkpt><trkpt lat="45.1890866347739" lon="8.118666610197366"><ele>149.25</ele><time>2026-04-18T15:29:09.968Z</time></trkpt><trkpt lat="45.189117727455105" lon="8.118823652416182"><ele>149.5</ele><time>2026-04-18T15:29:10.968Z</time></trkpt><trkpt lat="45.18914581702541" lon="8.118981307991318"><ele>149.75</ele><time>2026-04-18T15:29:11.969Z</time></trkpt><trkpt lat="45.189152507287275" lon="8.119147455789424"><ele>150.0</ele><time>2026-04-18T15:29:12.969Z</time></trkpt><trkpt lat="45.18914940791266" lon="8.119298589072253"><ele>150.0</ele><time>2026-04-18T15:29:13.969Z</time></trkpt><trkpt lat="45.18918504621351" lon="8.119451757173815"><ele>150.0</ele><time>2026-04-18T15:29:14.969Z</time></trkpt><trkpt lat="45.1892600529108" lon="8.119606594117636"><ele>150.0</ele><time>2026-04-18T15:29:15.969Z</time></trkpt><trkpt lat="45.18934160563379" lon="8.119796209765887"><ele>150.0</ele><time>2026-04-18T15:29:16.969Z</time></trkpt><trkpt lat="45.18939072724223" lon="8.120037768286222"><ele>149.33333333333334</ele><time>2026-04-18T15:29:17.969Z</time></trkpt><trkpt lat="45.18942453327805" lon="8.120314119283218"><ele>148.66666666666669</ele><time>2026-04-18T15:29:18.97Z</time></trkpt><trkpt lat="45.189452822786066" lon="8.12058818463088"><ele>148.0</ele><time>2026-04-18T15:29:19.97Z</time></trkpt><trkpt lat="45.189470271714704" lon="8.12087392526124"><ele>148.0</ele><time>2026-04-18T15:29:20.97Z</time></trkpt><trkpt lat="45.189482560761405" lon="8.12117604498209"><ele>148.0</ele><time>2026-04-18T15:29:21.97Z</time></trkpt><trkpt lat="45.18948911378424" lon="8.121485907466754"><ele>148.0</ele><time>2026-04-18T15:29:22.97Z</time></trkpt><trkpt lat="45.18948931931455" lon="8.121788112825701"><ele>148.0</ele><time>2026-04-18T15:29:23.97Z</time></trkpt><trkpt lat="45.18949722917865" lon="8.12209182259393"><ele>148.0</ele><time>2026-04-18T15:29:24.97Z</time></trkpt><trkpt lat="45.189501203020214" lon="8.122384229655395"><ele>148.0</ele><time>2026-04-18T15:29:25.97Z</time></trkpt><trkpt lat="45.18950369292227" lon="8.122671773970632"><ele>148.0</ele><time>2026-04-18T15:29:26.97Z</time></trkpt><trkpt lat="45.189505563041706" lon="8.122959372719382"><ele>148.0</ele><time>2026-04-18T15:29:27.97Z</time></trkpt><trkpt lat="45.18950958676837" lon="8.123253282191474"><ele>148.0</ele><time>2026-04-18T15:29:28.971Z</time></trkpt><trkpt lat="45.18951687631218" lon="8.12354927656576"><ele>148.0</ele><time>2026-04-18T15:29:29.971Z</time></trkpt><trkpt lat="45.18952358969899" lon="8.123848493037247"><ele>148.0</ele><time>2026-04-18T15:29:30.971Z</time></trkpt><trkpt lat="45.18952857732569" lon="8.124150948629781"><ele>148.0</ele><time>2026-04-18T15:29:31.971Z</time></trkpt><trkpt lat="45.18953277641919" lon="8.124456985374076"><ele>148.0</ele><time>2026-04-18T15:29:32.971Z</time></trkpt><trkpt lat="45.18953403556278" lon="8.124766527800984"><ele>148.0</ele><time>2026-04-18T15:29:33.971Z</time></trkpt><trkpt lat="45.18953706780626" lon="8.125081088066764"><ele>148.0</ele><time>2026-04-18T15:29:34.971Z</time></trkpt><trkpt lat="45.18953764918369" lon="8.12539716215152"><ele>148.33333333333334</ele><time>2026-04-18T15:29:35.971Z</time></trkpt><trkpt lat="45.189540118303064" lon="8.125713187572392"><ele>148.66666666666666</ele><time>2026-04-18T15:29:36.971Z</time></trkpt><trkpt lat="45.189542738512245" lon="8.12603240141101"><ele>149.0</ele><time>2026-04-18T15:29:37.971Z</time></trkpt><trkpt lat="45.18954472195936" lon="8.126353305068816"><ele>149.0</ele><time>2026-04-18T15:29:38.971Z</time></trkpt><trkpt lat="45.189547393042695" lon="8.126678950523184"><ele>149.0</ele><time>2026-04-18T15:29:39.971Z</time></trkpt><trkpt lat="45.1895529254285" lon="8.12700479947037"><ele>149.0</ele><time>2026-04-18T15:29:40.971Z</time></trkpt><trkpt lat="45.18955691997999" lon="8.127332338206987"><ele>149.0</ele><time>2026-04-18T15:29:41.971Z</time></trkpt><trkpt lat="45.18956391550422" lon="8.127664187311538"><ele>149.0</ele><time>2026-04-18T15:29:42.971Z</time></trkpt><trkpt lat="45.18957052599328" lon="8.127996497966885"><ele>149.0</ele><time>2026-04-18T15:29:43.971Z</time></trkpt><trkpt lat="45.18957418754768" lon="8.128328122952455"><ele>149.0</ele><time>2026-04-18T15:29:44.971Z</time></trkpt><trkpt lat="45.18957869396991" lon="8.128663125156658"><ele>149.0</ele><time>2026-04-18T15:29:45.971Z</time></trkpt><trkpt lat="45.189581755380644" lon="8.129000915890812"><ele>149.0</ele><time>2026-04-18T15:29:46.971Z</time></trkpt><trkpt lat="45.18958399799754" lon="8.129338458146798"><ele>149.0</ele><time>2026-04-18T15:29:47.971Z</time></trkpt><trkpt lat="45.18958734943135" lon="8.129678694959251"><ele>148.0</ele><time>2026-04-18T15:29:48.971Z</time></trkpt><trkpt lat="45.1895911596438" lon="8.130018128272567"><ele>147.0</ele><time>2026-04-18T15:29:49.972Z</time></trkpt><trkpt lat="45.18959773792936" lon="8.130357741494853"><ele>147.0</ele><time>2026-04-18T15:29:50.972Z</time></trkpt><trkpt lat="45.18960377602654" lon="8.130694380038628"><ele>147.0</ele><time>2026-04-18T15:29:51.972Z</time></trkpt><trkpt lat="45.18960878589568" lon="8.131029260788866"><ele>147.0</ele><time>2026-04-18T15:29:52.972Z</time></trkpt><trkpt lat="45.189613012987586" lon="8.13136528873787"><ele>147.0</ele><time>2026-04-18T15:29:53.972Z</time></trkpt><trkpt lat="45.189617309069504" lon="8.131697565036802"><ele>147.0</ele><time>2026-04-18T15:29:54.972Z</time></trkpt><trkpt lat="45.18962310409643" lon="8.132032901641429"><ele>147.0</ele><time>2026-04-18T15:29:55.972Z</time></trkpt><trkpt lat="45.189628425385244" lon="8.132363848955915"><ele>147.0</ele><time>2026-04-18T15:29:56.972Z</time></trkpt><trkpt lat="45.189635499500504" lon="8.132694587489965"><ele>147.0</ele><time>2026-04-18T15:29:57.972Z</time></trkpt><trkpt lat="45.189641847795166" lon="8.133024525248988"><ele>146.5</ele><time>2026-04-18T15:29:58.972Z</time></trkpt><trkpt lat="45.18964723420742" lon="8.133352667813975"><ele>146.0</ele><time>2026-04-18T15:29:59.972Z</time></trkpt><trkpt lat="45.189650135968414" lon="8.133681216180024"><ele>146.0</ele><time>2026-04-18T15:30:00.972Z</time></trkpt><trkpt lat="45.18965437468502" lon="8.134012286708236"><ele>146.0</ele><time>2026-04-18T15:30:01.972Z</time></trkpt><trkpt lat="45.189657888717505" lon="8.134342945331221"><ele>146.0</ele><time>2026-04-18T15:30:02.972Z</time></trkpt><trkpt lat="45.189660354769515" lon="8.134674350114675"><ele>146.0</ele><time>2026-04-18T15:30:03.972Z</time></trkpt><trkpt lat="45.189660867383935" lon="8.135004768310056"><ele>146.0</ele><time>2026-04-18T15:30:04.972Z</time></trkpt><trkpt lat="45.18966267884001" lon="8.135337512654598"><ele>146.0</ele><time>2026-04-18T15:30:05.972Z</time></trkpt><trkpt lat="45.189664347521784" lon="8.135672183234062"><ele>146.5</ele><time>2026-04-18T15:30:06.972Z</time></trkpt><trkpt lat="45.18966876213947" lon="8.136008076876555"><ele>147.0</ele><time>2026-04-18T15:30:07.972Z</time></trkpt><trkpt lat="45.18967400688486" lon="8.136346596444712"><ele>147.0</ele><time>2026-04-18T15:30:08.972Z</time></trkpt><trkpt lat="45.18967865561804" lon="8.136687118874029"><ele>147.0</ele><time>2026-04-18T15:30:09.972Z</time></trkpt><trkpt lat="45.189684042219305" lon="8.137028580843108"><ele>147.0</ele><time>2026-04-18T15:30:10.972Z</time></trkpt><trkpt lat="45.189689223172515" lon="8.137373363806812"><ele>147.0</ele><time>2026-04-18T15:30:11.972Z</time></trkpt><trkpt lat="45.18969497002024" lon="8.137717606952515"><ele>147.0</ele><time>2026-04-18T15:30:12.972Z</time></trkpt><trkpt lat="45.18970021669657" lon="8.138064285660686"><ele>147.0</ele><time>2026-04-18T15:30:13.972Z</time></trkpt><trkpt lat="45.18970474186656" lon="8.1384129216463"><ele>147.5</ele><time>2026-04-18T15:30:14.972Z</time></trkpt><trkpt lat="45.189709999000875" lon="8.138760734922581"><ele>148.0</ele><time>2026-04-18T15:30:15.972Z</time></trkpt><trkpt lat="45.18971356354741" lon="8.13910797380554"><ele>148.0</ele><time>2026-04-18T15:30:16.972Z</time></trkpt><trkpt lat="45.189717046304395" lon="8.139452259643539"><ele>148.0</ele><time>2026-04-18T15:30:17.972Z</time></trkpt><trkpt lat="45.18972248595592" lon="8.139792606825115"><ele>146.5</ele><time>2026-04-18T15:30:18.972Z</time></trkpt><trkpt lat="45.18972315024813" lon="8.140123450526612"><ele>145.0</ele><time>2026-04-18T15:30:19.972Z</time></trkpt><trkpt lat="45.18972399799671" lon="8.14043559900061"><ele>145.0</ele><time>2026-04-18T15:30:20.972Z</time></trkpt><trkpt lat="45.18972501909796" lon="8.14073283783621"><ele>145.0</ele><time>2026-04-18T15:30:21.972Z</time></trkpt><trkpt lat="45.18972714535141" lon="8.141014256241135"><ele>145.0</ele><time>2026-04-18T15:30:22.972Z</time></trkpt><trkpt lat="45.18973037788319" lon="8.141279269130136"><ele>145.0</ele><time>2026-04-18T15:30:23.972Z</time></trkpt><trkpt lat="45.189737070724945" lon="8.141535121591597"><ele>145.0</ele><time>2026-04-18T15:30:24.972Z</time></trkpt><trkpt lat="45.18974901879466" lon="8.14179289211826"><ele>145.0</ele><time>2026-04-18T15:30:25.972Z</time></trkpt><trkpt lat="45.18975624491181" lon="8.142047586426285"><ele>145.0</ele><time>2026-04-18T15:30:26.972Z</time></trkpt><trkpt lat="45.18974716480213" lon="8.142303743118944"><ele>145.0</ele><time>2026-04-18T15:30:27.972Z</time></trkpt><trkpt lat="45.189753869063225" lon="8.142567462464458"><ele>145.0</ele><time>2026-04-18T15:30:28.972Z</time></trkpt><trkpt lat="45.1897578224296" lon="8.142834126452838"><ele>145.0</ele><time>2026-04-18T15:30:29.972Z</time></trkpt><trkpt lat="45.18975853884108" lon="8.143103909035338"><ele>145.0</ele><time>2026-04-18T15:30:30.972Z</time></trkpt><trkpt lat="45.18975942279234" lon="8.143377241689587"><ele>145.0</ele><time>2026-04-18T15:30:31.972Z</time></trkpt><trkpt lat="45.18976163459575" lon="8.143656460326794"><ele>145.33333333333334</ele><time>2026-04-18T15:30:32.972Z</time></trkpt><trkpt lat="45.18976170499386" lon="8.143941583744505"><ele>145.66666666666666</ele><time>2026-04-18T15:30:33.972Z</time></trkpt><trkpt lat="45.189759433164575" lon="8.144220464806857"><ele>146.0</ele><time>2026-04-18T15:30:34.972Z</time></trkpt><trkpt lat="45.18976290735348" lon="8.144498920121167"><ele>146.33333333333331</ele><time>2026-04-18T15:30:35.972Z</time></trkpt><trkpt lat="45.189767528758026" lon="8.144775604991969"><ele>146.66666666666666</ele><time>2026-04-18T15:30:36.972Z</time></trkpt><trkpt lat="45.18977072318376" lon="8.145053737190807"><ele>147.0</ele><time>2026-04-18T15:30:37.972Z</time></trkpt><trkpt lat="45.18977342978727" lon="8.145330094576638"><ele>147.33333333333334</ele><time>2026-04-18T15:30:38.972Z</time></trkpt><trkpt lat="45.18977238262781" lon="8.145590843599035"><ele>147.66666666666669</ele><time>2026-04-18T15:30:39.972Z</time></trkpt><trkpt lat="45.18977636461195" lon="8.14583583421752"><ele>148.0</ele><time>2026-04-18T15:30:40.972Z</time></trkpt><trkpt lat="45.18977940416672" lon="8.146071781222473"><ele>148.33333333333334</ele><time>2026-04-18T15:30:41.972Z</time></trkpt><trkpt lat="45.18978636967399" lon="8.146294490028746"><ele>148.66666666666666</ele><time>2026-04-18T15:30:42.973Z</time></trkpt><trkpt lat="45.1897930511497" lon="8.14651905408243"><ele>149.0</ele><time>2026-04-18T15:30:43.973Z</time></trkpt><trkpt lat="45.18979678554031" lon="8.146750630262966"><ele>149.0</ele><time>2026-04-18T15:30:44.973Z</time></trkpt><trkpt lat="45.189800080876964" lon="8.146990924762518"><ele>149.0</ele><time>2026-04-18T15:30:45.973Z</time></trkpt><trkpt lat="45.18980529563193" lon="8.147237340654652"><ele>149.0</ele><time>2026-04-18T15:30:46.973Z</time></trkpt><trkpt lat="45.18981063857276" lon="8.147491364212026"><ele>149.0</ele><time>2026-04-18T15:30:47.973Z</time></trkpt><trkpt lat="45.18981390950537" lon="8.147754029998703"><ele>149.0</ele><time>2026-04-18T15:30:48.973Z</time></trkpt><trkpt lat="45.18981656529239" lon="8.148019915562427"><ele>149.0</ele><time>2026-04-18T15:30:49.97Z</time></trkpt><trkpt lat="45.18981932526467" lon="8.148289377406869"><ele>148.66666666666666</ele><time>2026-04-18T15:30:50.97Z</time></trkpt><trkpt lat="45.189823111298026" lon="8.148559872386452"><ele>148.33333333333334</ele><time>2026-04-18T15:30:51.97Z</time></trkpt><trkpt lat="45.18982833117285" lon="8.148835669699269"><ele>148.0</ele><time>2026-04-18T15:30:52.97Z</time></trkpt><trkpt lat="45.189832149748106" lon="8.149116262969025"><ele>148.0</ele><time>2026-04-18T15:30:53.969Z</time></trkpt><trkpt lat="45.18983320388283" lon="8.149403072340634"><ele>148.0</ele><time>2026-04-18T15:30:54.969Z</time></trkpt><trkpt lat="45.18983361699101" lon="8.149706217502157"><ele>148.0</ele><time>2026-04-18T15:30:55.97Z</time></trkpt><trkpt lat="45.18983492018668" lon="8.150025738185727"><ele>147.5</ele><time>2026-04-18T15:30:56.97Z</time></trkpt><trkpt lat="45.18983930952203" lon="8.150357318380504"><ele>147.0</ele><time>2026-04-18T15:30:57.97Z</time></trkpt><trkpt lat="45.18984556618465" lon="8.150703256305068"><ele>146.5</ele><time>2026-04-18T15:30:58.97Z</time></trkpt><trkpt lat="45.18984945752134" lon="8.15105763095839"><ele>146.0</ele><time>2026-04-18T15:30:59.969Z</time></trkpt><trkpt lat="45.18985390816188" lon="8.151418487498576"><ele>146.0</ele><time>2026-04-18T15:31:00.969Z</time></trkpt><trkpt lat="45.18985532218478" lon="8.151779174997287"><ele>146.0</ele><time>2026-04-18T15:31:01.97Z</time></trkpt><trkpt lat="45.18985800861623" lon="8.152143268141334"><ele>146.5</ele><time>2026-04-18T15:31:02.97Z</time></trkpt><trkpt lat="45.18986010779683" lon="8.152507522089648"><ele>147.0</ele><time>2026-04-18T15:31:03.97Z</time></trkpt><trkpt lat="45.189864859700876" lon="8.152869090113162"><ele>147.0</ele><time>2026-04-18T15:31:04.97Z</time></trkpt><trkpt lat="45.18987086614273" lon="8.153231818974788"><ele>147.0</ele><time>2026-04-18T15:31:05.97Z</time></trkpt><trkpt lat="45.18987518775889" lon="8.153592729981755"><ele>147.0</ele><time>2026-04-18T15:31:06.97Z</time></trkpt><trkpt lat="45.18987754154763" lon="8.15394736394298"><ele>147.0</ele><time>2026-04-18T15:31:07.97Z</time></trkpt><trkpt lat="45.189878833397465" lon="8.15429561341269"><ele>146.0</ele><time>2026-04-18T15:31:08.97Z</time></trkpt><trkpt lat="45.18988325101995" lon="8.154639512419934"><ele>145.0</ele><time>2026-04-18T15:31:09.97Z</time></trkpt><trkpt lat="45.189887635397" lon="8.154980926363448"><ele>145.0</ele><time>2026-04-18T15:31:10.97Z</time></trkpt><trkpt lat="45.18989214828679" lon="8.15531919773725"><ele>145.0</ele><time>2026-04-18T15:31:11.97Z</time></trkpt><trkpt lat="45.18989788733335" lon="8.155660602359164"><ele>145.5</ele><time>2026-04-18T15:31:12.97Z</time></trkpt><trkpt lat="45.189903392398826" lon="8.156000190885505"><ele>146.0</ele><time>2026-04-18T15:31:13.97Z</time></trkpt><trkpt lat="45.18990756700216" lon="8.156338911127689"><ele>146.5</ele><time>2026-04-18T15:31:14.97Z</time></trkpt><trkpt lat="45.189913323724966" lon="8.15667990052834"><ele>147.0</ele><time>2026-04-18T15:31:15.97Z</time></trkpt><trkpt lat="45.1899179182589" lon="8.157021620552063"><ele>147.0</ele><time>2026-04-18T15:31:16.97Z</time></trkpt><trkpt lat="45.18992051696083" lon="8.157363970847923"><ele>147.0</ele><time>2026-04-18T15:31:17.97Z</time></trkpt><trkpt lat="45.1899224105065" lon="8.157707121819508"><ele>146.5</ele><time>2026-04-18T15:31:18.97Z</time></trkpt><trkpt lat="45.18992915430638" lon="8.158050058411682"><ele>146.0</ele><time>2026-04-18T15:31:19.97Z</time></trkpt><trkpt lat="45.18993570526367" lon="8.158392830117206"><ele>145.0</ele><time>2026-04-18T15:31:20.97Z</time></trkpt><trkpt lat="45.189942372607156" lon="8.158738269142063"><ele>144.0</ele><time>2026-04-18T15:31:21.97Z</time></trkpt><trkpt lat="45.18994639744639" lon="8.159083204196438"><ele>144.0</ele><time>2026-04-18T15:31:22.97Z</time></trkpt><trkpt lat="45.189951440254596" lon="8.159427238005772"><ele>144.0</ele><time>2026-04-18T15:31:23.97Z</time></trkpt><trkpt lat="45.18995613332857" lon="8.159772826362838"><ele>144.5</ele><time>2026-04-18T15:31:24.97Z</time></trkpt><trkpt lat="45.18995982990416" lon="8.160118426919741"><ele>145.0</ele><time>2026-04-18T15:31:25.97Z</time></trkpt><trkpt lat="45.18996279505783" lon="8.16046643673329"><ele>145.0</ele><time>2026-04-18T15:31:26.97Z</time></trkpt><trkpt lat="45.18996346519311" lon="8.16081795801187"><ele>145.0</ele><time>2026-04-18T15:31:27.97Z</time></trkpt><trkpt lat="45.18996604678888" lon="8.16116955698546"><ele>145.0</ele><time>2026-04-18T15:31:28.97Z</time></trkpt><trkpt lat="45.18996790605826" lon="8.161523782311725"><ele>145.0</ele><time>2026-04-18T15:31:29.97Z</time></trkpt><trkpt lat="45.189972063575674" lon="8.161876792911642"><ele>144.5</ele><time>2026-04-18T15:31:30.97Z</time></trkpt><trkpt lat="45.189977067256905" lon="8.162232207836047"><ele>144.0</ele><time>2026-04-18T15:31:31.97Z</time></trkpt><trkpt lat="45.189980662852015" lon="8.162574052627283"><ele>143.66666666666666</ele><time>2026-04-18T15:31:32.97Z</time></trkpt><trkpt lat="45.18998264542304" lon="8.162880236607313"><ele>143.33333333333331</ele><time>2026-04-18T15:31:33.97Z</time></trkpt><trkpt lat="45.18998527427013" lon="8.1631520645535"><ele>143.0</ele><time>2026-04-18T15:31:34.97Z</time></trkpt><trkpt lat="45.18999297734151" lon="8.163411574383698"><ele>143.66666666666666</ele><time>2026-04-18T15:31:35.97Z</time></trkpt><trkpt lat="45.18999702198479" lon="8.163658413482455"><ele>144.33333333333334</ele><time>2026-04-18T15:31:36.97Z</time></trkpt><trkpt lat="45.18999948935855" lon="8.163902243337086"><ele>145.0</ele><time>2026-04-18T15:31:37.97Z</time></trkpt><trkpt lat="45.190004212655694" lon="8.164153881482095"><ele>145.0</ele><time>2026-04-18T15:31:38.971Z</time></trkpt><trkpt lat="45.190009584214856" lon="8.16441294382975"><ele>145.0</ele><time>2026-04-18T15:31:39.971Z</time></trkpt><trkpt lat="45.190013085681" lon="8.164686567017164"><ele>145.0</ele><time>2026-04-18T15:31:40.971Z</time></trkpt><trkpt lat="45.19001630912554" lon="8.16495974348121"><ele>145.0</ele><time>2026-04-18T15:31:41.971Z</time></trkpt><trkpt lat="45.1900180493703" lon="8.165235000688227"><ele>145.0</ele><time>2026-04-18T15:31:42.971Z</time></trkpt><trkpt lat="45.1900195157323" lon="8.165511977698733"><ele>145.0</ele><time>2026-04-18T15:31:43.971Z</time></trkpt><trkpt lat="45.19002236677207" lon="8.165790592020267"><ele>145.0</ele><time>2026-04-18T15:31:44.971Z</time></trkpt><trkpt lat="45.19002565710297" lon="8.16606874090074"><ele>145.0</ele><time>2026-04-18T15:31:45.971Z</time></trkpt><trkpt lat="45.19002807255683" lon="8.166346854659755"><ele>145.0</ele><time>2026-04-18T15:31:46.971Z</time></trkpt><trkpt lat="45.19002836655331" lon="8.16662361485387"><ele>145.0</ele><time>2026-04-18T15:31:47.971Z</time></trkpt><trkpt lat="45.190028423387346" lon="8.166901463394895"><ele>145.0</ele><time>2026-04-18T15:31:48.971Z</time></trkpt><trkpt lat="45.19002991106919" lon="8.167180612495367"><ele>145.0</ele><time>2026-04-18T15:31:49.971Z</time></trkpt><trkpt lat="45.190034028436024" lon="8.16745956814929"><ele>145.0</ele><time>2026-04-18T15:31:50.971Z</time></trkpt><trkpt lat="45.19003917615958" lon="8.16774562097778"><ele>145.0</ele><time>2026-04-18T15:31:51.971Z</time></trkpt><trkpt lat="45.19004272848128" lon="8.168034394358338"><ele>145.0</ele><time>2026-04-18T15:31:52.971Z</time></trkpt><trkpt lat="45.190046719297776" lon="8.168325590123324"><ele>144.66666666666669</ele><time>2026-04-18T15:31:53.971Z</time></trkpt><trkpt lat="45.1900499585994" lon="8.16861637207031"><ele>144.33333333333334</ele><time>2026-04-18T15:31:54.971Z</time></trkpt><trkpt lat="45.19005303995347" lon="8.168905472529664"><ele>144.0</ele><time>2026-04-18T15:31:55.971Z</time></trkpt><trkpt lat="45.19005673946026" lon="8.169196372248525"><ele>143.66666666666666</ele><time>2026-04-18T15:31:56.971Z</time></trkpt><trkpt lat="45.190064194966574" lon="8.169486328758385"><ele>143.33333333333331</ele><time>2026-04-18T15:31:57.971Z</time></trkpt><trkpt lat="45.190076110771194" lon="8.169775677293858"><ele>143.0</ele><time>2026-04-18T15:31:58.971Z</time></trkpt><trkpt lat="45.19009844970445" lon="8.170063520902277"><ele>143.0</ele><time>2026-04-18T15:31:59.971Z</time></trkpt><trkpt lat="45.19013181786143" lon="8.170347529907378"><ele>143.0</ele><time>2026-04-18T15:32:00.971Z</time></trkpt><trkpt lat="45.19017326915379" lon="8.170624560712083"><ele>143.0</ele><time>2026-04-18T15:32:01.971Z</time></trkpt><trkpt lat="45.190218583197925" lon="8.170898838394555"><ele>143.0</ele><time>2026-04-18T15:32:02.971Z</time></trkpt><trkpt lat="45.19026458259724" lon="8.171173344574266"><ele>143.0</ele><time>2026-04-18T15:32:03.971Z</time></trkpt><trkpt lat="45.19030975325615" lon="8.171450622856772"><ele>143.0</ele><time>2026-04-18T15:32:04.971Z</time></trkpt><trkpt lat="45.19035709384662" lon="8.17173125285416"><ele>143.0</ele><time>2026-04-18T15:32:05.971Z</time></trkpt><trkpt lat="45.19040733253181" lon="8.172010004391792"><ele>143.0</ele><time>2026-04-18T15:32:06.971Z</time></trkpt><trkpt lat="45.19045717029954" lon="8.172286074397368"><ele>143.0</ele><time>2026-04-18T15:32:07.971Z</time></trkpt><trkpt lat="45.19050997357737" lon="8.172563117212865"><ele>143.0</ele><time>2026-04-18T15:32:08.971Z</time></trkpt><trkpt lat="45.190560626466215" lon="8.172838342362594"><ele>143.0</ele><time>2026-04-18T15:32:09.971Z</time></trkpt><trkpt lat="45.190608067334374" lon="8.173100400208263"><ele>143.0</ele><time>2026-04-18T15:32:10.971Z</time></trkpt><trkpt lat="45.19065179534889" lon="8.173349816096644"><ele>143.0</ele><time>2026-04-18T15:32:11.971Z</time></trkpt><trkpt lat="45.190695015728146" lon="8.173588694111489"><ele>143.0</ele><time>2026-04-18T15:32:12.971Z</time></trkpt><trkpt lat="45.19073916194391" lon="8.173824653917213"><ele>143.0</ele><time>2026-04-18T15:32:13.971Z</time></trkpt><trkpt lat="45.19078531068706" lon="8.17406156837701"><ele>143.0</ele><time>2026-04-18T15:32:14.971Z</time></trkpt><trkpt lat="45.190832445171495" lon="8.174299405177102"><ele>143.0</ele><time>2026-04-18T15:32:15.971Z</time></trkpt><trkpt lat="45.190877531817755" lon="8.174540231145548"><ele>143.0</ele><time>2026-04-18T15:32:16.971Z</time></trkpt><trkpt lat="45.19092008237586" lon="8.174775218328762"><ele>143.33333333333331</ele><time>2026-04-18T15:32:17.971Z</time></trkpt><trkpt lat="45.19096000387089" lon="8.174998557288108"><ele>143.66666666666666</ele><time>2026-04-18T15:32:18.971Z</time></trkpt><trkpt lat="45.190999916116496" lon="8.175208474353651"><ele>144.0</ele><time>2026-04-18T15:32:19.971Z</time></trkpt><trkpt lat="45.1910393525301" lon="8.175407266829978"><ele>144.0</ele><time>2026-04-18T15:32:20.971Z</time></trkpt><trkpt lat="45.19107592244773" lon="8.175596282262838"><ele>144.0</ele><time>2026-04-18T15:32:21.971Z</time></trkpt><trkpt lat="45.19110770320269" lon="8.175778127076873"><ele>144.0</ele><time>2026-04-18T15:32:22.971Z</time></trkpt><trkpt lat="45.19113849632654" lon="8.175955307085347"><ele>144.0</ele><time>2026-04-18T15:32:23.971Z</time></trkpt><trkpt lat="45.19116972036934" lon="8.176134336191073"><ele>143.75</ele><time>2026-04-18T15:32:24.971Z</time></trkpt><trkpt lat="45.19120193379917" lon="8.176316079953372"><ele>143.5</ele><time>2026-04-18T15:32:25.971Z</time></trkpt><trkpt lat="45.191233130626486" lon="8.176500186328818"><ele>143.25</ele><time>2026-04-18T15:32:26.971Z</time></trkpt><trkpt lat="45.191263593364035" lon="8.176671111561722"><ele>143.0</ele><time>2026-04-18T15:32:27.971Z</time></trkpt><trkpt lat="45.191295967895776" lon="8.176834011836666"><ele>143.20000000000002</ele><time>2026-04-18T15:32:28.971Z</time></trkpt><trkpt lat="45.19132762269663" lon="8.176991100389621"><ele>143.4</ele><time>2026-04-18T15:32:29.971Z</time></trkpt><trkpt lat="45.19135378774262" lon="8.17713806207465"><ele>143.60000000000002</ele><time>2026-04-18T15:32:30.971Z</time></trkpt><trkpt lat="45.19137571441856" lon="8.177276049800922"><ele>143.8</ele><time>2026-04-18T15:32:31.971Z</time></trkpt><trkpt lat="45.19139323947721" lon="8.177407607897297"><ele>144.0</ele><time>2026-04-18T15:32:32.971Z</time></trkpt><trkpt lat="45.19140288082101" lon="8.177540333593656"><ele>144.0</ele><time>2026-04-18T15:32:33.971Z</time></trkpt><trkpt lat="45.19139361367916" lon="8.177670247929205"><ele>144.0</ele><time>2026-04-18T15:32:34.971Z</time></trkpt><trkpt lat="45.19135613367688" lon="8.177777485253543"><ele>144.0</ele><time>2026-04-18T15:32:35.971Z</time></trkpt><trkpt lat="45.191321456576205" lon="8.17786767937821"><ele>144.0</ele><time>2026-04-18T15:32:36.971Z</time></trkpt><trkpt lat="45.19130793392654" lon="8.177973062487812"><ele>144.0</ele><time>2026-04-18T15:32:37.971Z</time></trkpt><trkpt lat="45.19132343677608" lon="8.178082739681356"><ele>144.0</ele><time>2026-04-18T15:32:38.971Z</time></trkpt><trkpt lat="45.19136757937616" lon="8.178180006599954"><ele>144.0</ele><time>2026-04-18T15:32:39.971Z</time></trkpt><trkpt lat="45.19142233387679" lon="8.178267310389723"><ele>144.0</ele><time>2026-04-18T15:32:40.971Z</time></trkpt><trkpt lat="45.19146277786169" lon="8.178365762597577"><ele>144.0</ele><time>2026-04-18T15:32:41.971Z</time></trkpt><trkpt lat="45.191472845579824" lon="8.178484808503166"><ele>144.0</ele><time>2026-04-18T15:32:42.971Z</time></trkpt><trkpt lat="45.191470823886036" lon="8.178624770110977"><ele>144.0</ele><time>2026-04-18T15:32:43.971Z</time></trkpt><trkpt lat="45.19146010853184" lon="8.17877543653038"><ele>144.0</ele><time>2026-04-18T15:32:44.971Z</time></trkpt><trkpt lat="45.19144535211767" lon="8.178952767483768"><ele>144.0</ele><time>2026-04-18T15:32:45.971Z</time></trkpt><trkpt lat="45.19142708108434" lon="8.179164743728029"><ele>144.0</ele><time>2026-04-18T15:32:46.971Z</time></trkpt><trkpt lat="45.19140488075388" lon="8.179401730149802"><ele>144.0</ele><time>2026-04-18T15:32:47.971Z</time></trkpt><trkpt lat="45.191369855110345" lon="8.179658812087984"><ele>144.0</ele><time>2026-04-18T15:32:48.971Z</time></trkpt><trkpt lat="45.191302044907644" lon="8.179927663115627"><ele>144.0</ele><time>2026-04-18T15:32:49.972Z</time></trkpt><trkpt lat="45.191253541164315" lon="8.180198090225398"><ele>144.0</ele><time>2026-04-18T15:32:50.972Z</time></trkpt><trkpt lat="45.19117911557996" lon="8.180450467173756"><ele>144.0</ele><time>2026-04-18T15:32:51.972Z</time></trkpt><trkpt lat="45.191097952519826" lon="8.18071208813633"><ele>144.0</ele><time>2026-04-18T15:32:52.972Z</time></trkpt><trkpt lat="45.19101631558875" lon="8.180963633896221"><ele>144.0</ele><time>2026-04-18T15:32:53.972Z</time></trkpt><trkpt lat="45.19092487422117" lon="8.181202991383923"><ele>144.0</ele><time>2026-04-18T15:32:54.972Z</time></trkpt><trkpt lat="45.19082681353856" lon="8.181438940694905"><ele>144.0</ele><time>2026-04-18T15:32:55.969Z</time></trkpt><trkpt lat="45.19072720734653" lon="8.181675826937624"><ele>144.0</ele><time>2026-04-18T15:32:56.969Z</time></trkpt><trkpt lat="45.19062745405061" lon="8.181909841484043"><ele>143.0</ele><time>2026-04-18T15:32:57.969Z</time></trkpt><trkpt lat="45.19052783222063" lon="8.182146428701543"><ele>142.0</ele><time>2026-04-18T15:32:58.968Z</time></trkpt><trkpt lat="45.19042955105787" lon="8.1823864805874"><ele>141.0</ele><time>2026-04-18T15:32:59.968Z</time></trkpt><trkpt lat="45.19033654976814" lon="8.182629687435416"><ele>141.0</ele><time>2026-04-18T15:33:00.968Z</time></trkpt><trkpt lat="45.19025586913592" lon="8.182878521332562"><ele>141.0</ele><time>2026-04-18T15:33:01.969Z</time></trkpt><trkpt lat="45.190188738535966" lon="8.183128997456162"><ele>141.0</ele><time>2026-04-18T15:33:02.968Z</time></trkpt><trkpt lat="45.1901383004851" lon="8.183379871396976"><ele>141.33333333333334</ele><time>2026-04-18T15:33:03.968Z</time></trkpt><trkpt lat="45.19009821897383" lon="8.183633860538187"><ele>141.66666666666669</ele><time>2026-04-18T15:33:04.968Z</time></trkpt><trkpt lat="45.190067735184755" lon="8.183892422262105"><ele>142.0</ele><time>2026-04-18T15:33:05.969Z</time></trkpt><trkpt lat="45.19004804609868" lon="8.18415045929025"><ele>142.33333333333334</ele><time>2026-04-18T15:33:06.969Z</time></trkpt><trkpt lat="45.19003753554486" lon="8.184413700733648"><ele>142.66666666666666</ele><time>2026-04-18T15:33:07.968Z</time></trkpt><trkpt lat="45.19002549091881" lon="8.184676792734207"><ele>143.0</ele><time>2026-04-18T15:33:08.968Z</time></trkpt><trkpt lat="45.190012306881314" lon="8.184931336863157"><ele>143.0</ele><time>2026-04-18T15:33:09.968Z</time></trkpt><trkpt lat="45.19000137853327" lon="8.185179068301224"><ele>143.0</ele><time>2026-04-18T15:33:10.968Z</time></trkpt><trkpt lat="45.189992158994514" lon="8.185423783643579"><ele>143.0</ele><time>2026-04-18T15:33:11.968Z</time></trkpt><trkpt lat="45.18998372103503" lon="8.185667230957435"><ele>143.0</ele><time>2026-04-18T15:33:12.968Z</time></trkpt><trkpt lat="45.18997765222799" lon="8.185910381619248"><ele>143.0</ele><time>2026-04-18T15:33:13.968Z</time></trkpt><trkpt lat="45.18996999393914" lon="8.18615644029312"><ele>143.0</ele><time>2026-04-18T15:33:14.968Z</time></trkpt><trkpt lat="45.18995971086157" lon="8.186411017088176"><ele>143.66666666666666</ele><time>2026-04-18T15:33:15.968Z</time></trkpt><trkpt lat="45.18995177322966" lon="8.186664249013615"><ele>144.33333333333334</ele><time>2026-04-18T15:33:16.968Z</time></trkpt><trkpt lat="45.18994590631027" lon="8.186919671334548"><ele>145.0</ele><time>2026-04-18T15:33:17.968Z</time></trkpt><trkpt lat="45.18993788135351" lon="8.187171075811717"><ele>144.33333333333334</ele><time>2026-04-18T15:33:18.968Z</time></trkpt><trkpt lat="45.18992823698423" lon="8.187417774574664"><ele>143.66666666666666</ele><time>2026-04-18T15:33:19.968Z</time></trkpt><trkpt lat="45.18991893330163" lon="8.187656424468223"><ele>143.0</ele><time>2026-04-18T15:33:20.968Z</time></trkpt><trkpt lat="45.189910569552495" lon="8.187893424745"><ele>143.0</ele><time>2026-04-18T15:33:21.968Z</time></trkpt><trkpt lat="45.189904419242225" lon="8.188142054901826"><ele>143.0</ele><time>2026-04-18T15:33:22.968Z</time></trkpt><trkpt lat="45.189900123985154" lon="8.188403971556145"><ele>143.0</ele><time>2026-04-18T15:33:23.968Z</time></trkpt><trkpt lat="45.18988978030534" lon="8.188668292366954"><ele>143.0</ele><time>2026-04-18T15:33:24.968Z</time></trkpt><trkpt lat="45.18987453443812" lon="8.188920665807082"><ele>143.0</ele><time>2026-04-18T15:33:25.968Z</time></trkpt><trkpt lat="45.18986188340236" lon="8.189174901539351"><ele>143.0</ele><time>2026-04-18T15:33:26.968Z</time></trkpt><trkpt lat="45.1898516833856" lon="8.189432928983733"><ele>142.66666666666666</ele><time>2026-04-18T15:33:27.968Z</time></trkpt><trkpt lat="45.189840186381204" lon="8.189693288496443"><ele>142.33333333333334</ele><time>2026-04-18T15:33:28.968Z</time></trkpt><trkpt lat="45.189828887524556" lon="8.189952345893621"><ele>142.0</ele><time>2026-04-18T15:33:29.968Z</time></trkpt><trkpt lat="45.18982117780912" lon="8.190215627577341"><ele>141.66666666666669</ele><time>2026-04-18T15:33:30.968Z</time></trkpt><trkpt lat="45.18981221439567" lon="8.190475812252311"><ele>141.33333333333334</ele><time>2026-04-18T15:33:31.968Z</time></trkpt><trkpt lat="45.189798410978305" lon="8.190732741768764"><ele>141.0</ele><time>2026-04-18T15:33:32.968Z</time></trkpt><trkpt lat="45.18979251795799" lon="8.19099280498981"><ele>141.0</ele><time>2026-04-18T15:33:33.968Z</time></trkpt><trkpt lat="45.18978055338641" lon="8.191246770360841"><ele>141.0</ele><time>2026-04-18T15:33:34.968Z</time></trkpt><trkpt lat="45.189770649741014" lon="8.191505041355663"><ele>141.0</ele><time>2026-04-18T15:33:35.968Z</time></trkpt><trkpt lat="45.18975819444611" lon="8.19176230450128"><ele>141.33333333333334</ele><time>2026-04-18T15:33:36.968Z</time></trkpt><trkpt lat="45.18974381090886" lon="8.192022881507082"><ele>141.66666666666669</ele><time>2026-04-18T15:33:37.968Z</time></trkpt><trkpt lat="45.18973137465253" lon="8.192291332850601"><ele>142.0</ele><time>2026-04-18T15:33:38.968Z</time></trkpt><trkpt lat="45.1897224731842" lon="8.192563981770965"><ele>142.33333333333334</ele><time>2026-04-18T15:33:39.968Z</time></trkpt><trkpt lat="45.189717027963894" lon="8.192845783539713"><ele>142.66666666666666</ele><time>2026-04-18T15:33:40.968Z</time></trkpt><trkpt lat="45.18970857716365" lon="8.193135994574316"><ele>143.0</ele><time>2026-04-18T15:33:41.968Z</time></trkpt><trkpt lat="45.189698935328515" lon="8.193434374587735"><ele>142.66666666666666</ele><time>2026-04-18T15:33:42.968Z</time></trkpt><trkpt lat="45.18968844916728" lon="8.193734809264589"><ele>142.33333333333334</ele><time>2026-04-18T15:33:43.968Z</time></trkpt><trkpt lat="45.189674203297166" lon="8.194021096868427"><ele>142.0</ele><time>2026-04-18T15:33:44.968Z</time></trkpt><trkpt lat="45.189661575475405" lon="8.194294131887634"><ele>142.0</ele><time>2026-04-18T15:33:45.968Z</time></trkpt><trkpt lat="45.18965258940088" lon="8.194554675306183"><ele>142.0</ele><time>2026-04-18T15:33:46.968Z</time></trkpt><trkpt lat="45.189638952490704" lon="8.19481297505685"><ele>142.0</ele><time>2026-04-18T15:33:47.968Z</time></trkpt><trkpt lat="45.189628425485076" lon="8.195068866624302"><ele>141.66666666666669</ele><time>2026-04-18T15:33:48.968Z</time></trkpt><trkpt lat="45.1896191064928" lon="8.195326312456007"><ele>141.33333333333334</ele><time>2026-04-18T15:33:49.968Z</time></trkpt><trkpt lat="45.18961375735277" lon="8.195572879055495"><ele>141.0</ele><time>2026-04-18T15:33:50.968Z</time></trkpt><trkpt lat="45.189606901211256" lon="8.19581492426383"><ele>140.66666666666666</ele><time>2026-04-18T15:33:51.968Z</time></trkpt><trkpt lat="45.18959991144806" lon="8.196053598641763"><ele>140.33333333333331</ele><time>2026-04-18T15:33:52.968Z</time></trkpt><trkpt lat="45.1895946889236" lon="8.196286662918855"><ele>140.0</ele><time>2026-04-18T15:33:53.968Z</time></trkpt><trkpt lat="45.18958607185919" lon="8.196521729185905"><ele>140.66666666666666</ele><time>2026-04-18T15:33:54.968Z</time></trkpt><trkpt lat="45.18957635188238" lon="8.196761474585387"><ele>141.33333333333334</ele><time>2026-04-18T15:33:55.968Z</time></trkpt><trkpt lat="45.18956838567256" lon="8.197011020452132"><ele>142.0</ele><time>2026-04-18T15:33:56.968Z</time></trkpt><trkpt lat="45.189559911548024" lon="8.197278210895497"><ele>141.33333333333334</ele><time>2026-04-18T15:33:57.968Z</time></trkpt><trkpt lat="45.18955041771472" lon="8.197562257112848"><ele>140.66666666666666</ele><time>2026-04-18T15:33:58.968Z</time></trkpt><trkpt lat="45.189543796476485" lon="8.19785612751861"><ele>140.0</ele><time>2026-04-18T15:33:59.969Z</time></trkpt><trkpt lat="45.18953517267055" lon="8.198155632161493"><ele>140.33333333333331</ele><time>2026-04-18T15:34:00.969Z</time></trkpt><trkpt lat="45.18952127455022" lon="8.198468143429524"><ele>140.66666666666666</ele><time>2026-04-18T15:34:01.969Z</time></trkpt><trkpt lat="45.18950802131674" lon="8.198787653099636"><ele>141.0</ele><time>2026-04-18T15:34:02.969Z</time></trkpt><trkpt lat="45.189491729531994" lon="8.199112389253074"><ele>141.0</ele><time>2026-04-18T15:34:03.969Z</time></trkpt><trkpt lat="45.18947744633134" lon="8.199420299449152"><ele>141.0</ele><time>2026-04-18T15:34:04.969Z</time></trkpt><trkpt lat="45.18946313812926" lon="8.19975275635305"><ele>141.0</ele><time>2026-04-18T15:34:05.969Z</time></trkpt><trkpt lat="45.18944846724278" lon="8.200105631033791"><ele>141.0</ele><time>2026-04-18T15:34:06.969Z</time></trkpt><trkpt lat="45.18943236310042" lon="8.20046537315651"><ele>140.5</ele><time>2026-04-18T15:34:07.969Z</time></trkpt><trkpt lat="45.189416019100555" lon="8.200844153908717"><ele>140.0</ele><time>2026-04-18T15:34:08.969Z</time></trkpt><trkpt lat="45.189407372564546" lon="8.201240313248931"><ele>139.5</ele><time>2026-04-18T15:34:09.969Z</time></trkpt><trkpt lat="45.18940164945936" lon="8.201653476308783"><ele>139.0</ele><time>2026-04-18T15:34:10.969Z</time></trkpt><trkpt lat="45.18938487194904" lon="8.202080633464584"><ele>139.5</ele><time>2026-04-18T15:34:11.969Z</time></trkpt><trkpt lat="45.18936764203429" lon="8.20251965391362"><ele>140.0</ele><time>2026-04-18T15:34:12.969Z</time></trkpt><trkpt lat="45.18933070288705" lon="8.202950735812724"><ele>140.5</ele><time>2026-04-18T15:34:13.969Z</time></trkpt><trkpt lat="45.18928849303731" lon="8.203329446698996"><ele>141.0</ele><time>2026-04-18T15:34:14.969Z</time></trkpt><trkpt lat="45.18923825628204" lon="8.203687149577318"><ele>141.0</ele><time>2026-04-18T15:34:15.969Z</time></trkpt><trkpt lat="45.18919317592726" lon="8.20408598983406"><ele>141.0</ele><time>2026-04-18T15:34:16.969Z</time></trkpt><trkpt lat="45.189257292912416" lon="8.204762482342243"><ele>141.0</ele><time>2026-04-18T15:34:17.969Z</time></trkpt><trkpt lat="45.18924132138785" lon="8.205204100576546"><ele>141.0</ele><time>2026-04-18T15:34:18.969Z</time></trkpt><trkpt lat="45.189231826042096" lon="8.205612697141653"><ele>141.0</ele><time>2026-04-18T15:34:19.969Z</time></trkpt><trkpt lat="45.18921718865438" lon="8.206017882516356"><ele>141.0</ele><time>2026-04-18T15:34:20.969Z</time></trkpt><trkpt lat="45.189198949587706" lon="8.206418158720354"><ele>140.5</ele><time>2026-04-18T15:34:21.969Z</time></trkpt><trkpt lat="45.1891816770099" lon="8.2068158405211"><ele>140.0</ele><time>2026-04-18T15:34:22.969Z</time></trkpt><trkpt lat="45.189164282756785" lon="8.207209241394176"><ele>139.5</ele><time>2026-04-18T15:34:23.969Z</time></trkpt><trkpt lat="45.189150813737996" lon="8.207597672194854"><ele>139.0</ele><time>2026-04-18T15:34:24.969Z</time></trkpt><trkpt lat="45.18913622246165" lon="8.20798688930029"><ele>139.5</ele><time>2026-04-18T15:34:25.969Z</time></trkpt><trkpt lat="45.1891210385812" lon="8.20837071084257"><ele>140.0</ele><time>2026-04-18T15:34:26.969Z</time></trkpt><trkpt lat="45.18910869704463" lon="8.208754670773423"><ele>140.0</ele><time>2026-04-18T15:34:27.969Z</time></trkpt><trkpt lat="45.1890987746996" lon="8.209138037770053"><ele>140.0</ele><time>2026-04-18T15:34:28.969Z</time></trkpt><trkpt lat="45.189086358983054" lon="8.20951674936279"><ele>140.0</ele><time>2026-04-18T15:34:29.969Z</time></trkpt><trkpt lat="45.189071704295074" lon="8.209894974130123"><ele>140.0</ele><time>2026-04-18T15:34:30.969Z</time></trkpt><trkpt lat="45.18905647392527" lon="8.210269552883886"><ele>140.0</ele><time>2026-04-18T15:34:31.969Z</time></trkpt><trkpt lat="45.18904295912824" lon="8.210639873345318"><ele>140.0</ele><time>2026-04-18T15:34:32.969Z</time></trkpt><trkpt lat="45.189028833167384" lon="8.21100990983269"><ele>140.5</ele><time>2026-04-18T15:34:33.969Z</time></trkpt><trkpt lat="45.189016069057494" lon="8.211372135968459"><ele>141.0</ele><time>2026-04-18T15:34:34.969Z</time></trkpt><trkpt lat="45.18900313023731" lon="8.211709390580308"><ele>140.33333333333334</ele><time>2026-04-18T15:34:35.969Z</time></trkpt><trkpt lat="45.188984146766906" lon="8.212031551976981"><ele>139.66666666666669</ele><time>2026-04-18T15:34:36.969Z</time></trkpt><trkpt lat="45.188969708576884" lon="8.212327411923894"><ele>139.0</ele><time>2026-04-18T15:34:37.969Z</time></trkpt><trkpt lat="45.188954782373735" lon="8.212610614362882"><ele>139.0</ele><time>2026-04-18T15:34:38.969Z</time></trkpt><trkpt lat="45.188930377647175" lon="8.212872645726893"><ele>139.0</ele><time>2026-04-18T15:34:39.969Z</time></trkpt><trkpt lat="45.1888976881248" lon="8.213050906394432"><ele>139.0</ele><time>2026-04-18T15:34:40.969Z</time></trkpt><trkpt lat="45.18886259232893" lon="8.213255870898202"><ele>138.8</ele><time>2026-04-18T15:34:41.969Z</time></trkpt><trkpt lat="45.18882839127588" lon="8.213429789180251"><ele>138.60000000000002</ele><time>2026-04-18T15:34:42.969Z</time></trkpt><trkpt lat="45.18879866861665" lon="8.213591266808082"><ele>138.4</ele><time>2026-04-18T15:34:43.969Z</time></trkpt><trkpt lat="45.18877617266426" lon="8.213721746338193"><ele>138.20000000000002</ele><time>2026-04-18T15:34:44.969Z</time></trkpt><trkpt lat="45.18875154117216" lon="8.213820473886244"><ele>138.0</ele><time>2026-04-18T15:34:45.969Z</time></trkpt><trkpt lat="45.18888278093608" lon="8.213927872391555"><ele>138.0</ele><time>2026-04-18T15:34:46.969Z</time></trkpt><trkpt lat="45.188908610174614" lon="8.214437744970077"><ele>138.0</ele><time>2026-04-18T15:34:48.969Z</time></trkpt><trkpt lat="45.188886936576516" lon="8.214697605708297"><ele>138.33333333333334</ele><time>2026-04-18T15:34:49.969Z</time></trkpt><trkpt lat="45.18887350951061" lon="8.214985629124108"><ele>138.66666666666669</ele><time>2026-04-18T15:34:50.969Z</time></trkpt><trkpt lat="45.188865263718256" lon="8.215299759913846"><ele>139.0</ele><time>2026-04-18T15:34:51.969Z</time></trkpt><trkpt lat="45.18885352620399" lon="8.215596557833955"><ele>139.0</ele><time>2026-04-18T15:34:52.969Z</time></trkpt><trkpt lat="45.18883975962457" lon="8.215896880366339"><ele>139.0</ele><time>2026-04-18T15:34:53.969Z</time></trkpt><trkpt lat="45.188828493682905" lon="8.216220327663061"><ele>139.0</ele><time>2026-04-18T15:34:54.969Z</time></trkpt><trkpt lat="45.18881705115842" lon="8.216554717785193"><ele>138.5</ele><time>2026-04-18T15:34:55.969Z</time></trkpt><trkpt lat="45.188803888960535" lon="8.216902130237912"><ele>138.0</ele><time>2026-04-18T15:34:56.969Z</time></trkpt><trkpt lat="45.18878913186675" lon="8.217240924312577"><ele>138.0</ele><time>2026-04-18T15:34:57.969Z</time></trkpt><trkpt lat="45.18877444150528" lon="8.217561935833206"><ele>138.0</ele><time>2026-04-18T15:34:58.969Z</time></trkpt><trkpt lat="45.18876104480919" lon="8.217901051120371"><ele>138.0</ele><time>2026-04-18T15:34:59.969Z</time></trkpt><trkpt lat="45.188748585534434" lon="8.218252261414227"><ele>138.0</ele><time>2026-04-18T15:35:00.969Z</time></trkpt><trkpt lat="45.188735154836706" lon="8.218611959229328"><ele>138.0</ele><time>2026-04-18T15:35:01.968Z</time></trkpt><trkpt lat="45.18872248512302" lon="8.218946432851794"><ele>138.0</ele><time>2026-04-18T15:35:02.968Z</time></trkpt><trkpt lat="45.18871103476771" lon="8.219263092333774"><ele>138.0</ele><time>2026-04-18T15:35:03.968Z</time></trkpt><trkpt lat="45.18870223928345" lon="8.21956848727162"><ele>138.0</ele><time>2026-04-18T15:35:04.968Z</time></trkpt><trkpt lat="45.188694477078414" lon="8.219862639808486"><ele>138.0</ele><time>2026-04-18T15:35:05.967Z</time></trkpt><trkpt lat="45.1886854366661" lon="8.22016066193055"><ele>138.0</ele><time>2026-04-18T15:35:06.967Z</time></trkpt><trkpt lat="45.188672211589484" lon="8.22045928526023"><ele>138.0</ele><time>2026-04-18T15:35:07.968Z</time></trkpt><trkpt lat="45.1886596036912" lon="8.220769227197373"><ele>138.0</ele><time>2026-04-18T15:35:08.968Z</time></trkpt><trkpt lat="45.188640565521595" lon="8.221081949381395"><ele>138.0</ele><time>2026-04-18T15:35:09.968Z</time></trkpt><trkpt lat="45.18861567349412" lon="8.221400818303609"><ele>138.0</ele><time>2026-04-18T15:35:10.968Z</time></trkpt><trkpt lat="45.18855457557195" lon="8.221712216628418"><ele>138.5</ele><time>2026-04-18T15:35:11.968Z</time></trkpt><trkpt lat="45.188481573578166" lon="8.222030227984654"><ele>139.0</ele><time>2026-04-18T15:35:12.968Z</time></trkpt><trkpt lat="45.18837960265974" lon="8.222337226060924"><ele>139.0</ele><time>2026-04-18T15:35:13.968Z</time></trkpt><trkpt lat="45.18827937452574" lon="8.222649388810606"><ele>139.0</ele><time>2026-04-18T15:35:14.968Z</time></trkpt><trkpt lat="45.18820237314299" lon="8.222967660007626"><ele>138.5</ele><time>2026-04-18T15:35:15.968Z</time></trkpt><trkpt lat="45.18813148994858" lon="8.223294878746781"><ele>138.0</ele><time>2026-04-18T15:35:16.968Z</time></trkpt><trkpt lat="45.188053224076135" lon="8.223607840716372"><ele>138.0</ele><time>2026-04-18T15:35:17.968Z</time></trkpt><trkpt lat="45.18797844459282" lon="8.223896626888942"><ele>138.0</ele><time>2026-04-18T15:35:18.968Z</time></trkpt><trkpt lat="45.18791292796092" lon="8.224163112730139"><ele>138.0</ele><time>2026-04-18T15:35:19.968Z</time></trkpt><trkpt lat="45.18784642821928" lon="8.224411430978682"><ele>138.0</ele><time>2026-04-18T15:35:20.968Z</time></trkpt><trkpt lat="45.187777427913595" lon="8.224651291066865"><ele>138.0</ele><time>2026-04-18T15:35:21.968Z</time></trkpt><trkpt lat="45.18770813138547" lon="8.224911979912607"><ele>138.0</ele><time>2026-04-18T15:35:22.968Z</time></trkpt><trkpt lat="45.1876379047546" lon="8.225167300000672"><ele>138.0</ele><time>2026-04-18T15:35:23.968Z</time></trkpt><trkpt lat="45.187569061087814" lon="8.225413645253855"><ele>138.0</ele><time>2026-04-18T15:35:24.968Z</time></trkpt><trkpt lat="45.187504691910135" lon="8.22566324562241"><ele>138.0</ele><time>2026-04-18T15:35:25.968Z</time></trkpt><trkpt lat="45.18744049538312" lon="8.225907441021752"><ele>138.33333333333334</ele><time>2026-04-18T15:35:26.968Z</time></trkpt><trkpt lat="45.187383489149006" lon="8.226129634964217"><ele>138.66666666666669</ele><time>2026-04-18T15:35:27.968Z</time></trkpt><trkpt lat="45.18733310318242" lon="8.226320861454438"><ele>139.0</ele><time>2026-04-18T15:35:28.968Z</time></trkpt><trkpt lat="45.18728104390709" lon="8.226503707004298"><ele>139.0</ele><time>2026-04-18T15:35:29.968Z</time></trkpt><trkpt lat="45.18722286681629" lon="8.226681498380692"><ele>139.0</ele><time>2026-04-18T15:35:30.968Z</time></trkpt><trkpt lat="45.1871661432432" lon="8.22686714716291"><ele>139.0</ele><time>2026-04-18T15:35:31.968Z</time></trkpt><trkpt lat="45.1871197423885" lon="8.227062665412438"><ele>139.0</ele><time>2026-04-18T15:35:32.968Z</time></trkpt><trkpt lat="45.1870718773908" lon="8.227266272076372"><ele>139.33333333333334</ele><time>2026-04-18T15:35:33.968Z</time></trkpt><trkpt lat="45.18702410128685" lon="8.227470109504582"><ele>139.66666666666666</ele><time>2026-04-18T15:35:34.968Z</time></trkpt><trkpt lat="45.18697232946137" lon="8.22767618675663"><ele>140.0</ele><time>2026-04-18T15:35:35.968Z</time></trkpt><trkpt lat="45.18691498533589" lon="8.227886558190374"><ele>140.0</ele><time>2026-04-18T15:35:36.968Z</time></trkpt><trkpt lat="45.186859048820445" lon="8.22810147100291"><ele>140.0</ele><time>2026-04-18T15:35:37.968Z</time></trkpt><trkpt lat="45.18680376787275" lon="8.228319336595364"><ele>140.0</ele><time>2026-04-18T15:35:38.968Z</time></trkpt><trkpt lat="45.18674891031227" lon="8.228539313664617"><ele>140.0</ele><time>2026-04-18T15:35:39.968Z</time></trkpt><trkpt lat="45.18668605106899" lon="8.22876364620282"><ele>140.0</ele><time>2026-04-18T15:35:40.969Z</time></trkpt><trkpt lat="45.1866224976718" lon="8.228988417614874"><ele>140.0</ele><time>2026-04-18T15:35:41.969Z</time></trkpt><trkpt lat="45.18656142910621" lon="8.22920561711896"><ele>139.33333333333331</ele><time>2026-04-18T15:35:42.969Z</time></trkpt><trkpt lat="45.186502517805295" lon="8.22942066775866"><ele>138.66666666666666</ele><time>2026-04-18T15:35:43.969Z</time></trkpt><trkpt lat="45.186441294415694" lon="8.229633259528033"><ele>138.0</ele><time>2026-04-18T15:35:44.969Z</time></trkpt><trkpt lat="45.186382167316886" lon="8.229849103536017"><ele>138.0</ele><time>2026-04-18T15:35:45.969Z</time></trkpt><trkpt lat="45.18632579095754" lon="8.230068540839014"><ele>138.0</ele><time>2026-04-18T15:35:46.969Z</time></trkpt><trkpt lat="45.186270859021064" lon="8.23028688502902"><ele>138.0</ele><time>2026-04-18T15:35:47.969Z</time></trkpt><trkpt lat="45.186217758962556" lon="8.230500856043559"><ele>138.75</ele><time>2026-04-18T15:35:48.969Z</time></trkpt><trkpt lat="45.1861718229651" lon="8.230708058991791"><ele>139.5</ele><time>2026-04-18T15:35:49.969Z</time></trkpt><trkpt lat="45.18613149438383" lon="8.23091077005455"><ele>140.25</ele><time>2026-04-18T15:35:50.969Z</time></trkpt><trkpt lat="45.186119558811484" lon="8.231096341506982"><ele>141.0</ele><time>2026-04-18T15:35:51.969Z</time></trkpt><trkpt lat="45.18614541752351" lon="8.231300821252578"><ele>141.33333333333334</ele><time>2026-04-18T15:35:52.969Z</time></trkpt><trkpt lat="45.18620414037683" lon="8.231496202952474"><ele>141.66666666666669</ele><time>2026-04-18T15:35:53.969Z</time></trkpt><trkpt lat="45.18627166887126" lon="8.23169289165106"><ele>142.0</ele><time>2026-04-18T15:35:54.969Z</time></trkpt><trkpt lat="45.186326201071545" lon="8.231917819594202"><ele>142.0</ele><time>2026-04-18T15:35:55.969Z</time></trkpt><trkpt lat="45.18637140158197" lon="8.232145269482288"><ele>142.0</ele><time>2026-04-18T15:35:56.969Z</time></trkpt><trkpt lat="45.18641927944381" lon="8.23237625122792"><ele>142.0</ele><time>2026-04-18T15:35:57.969Z</time></trkpt><trkpt lat="45.186473102880726" lon="8.23260040880668"><ele>141.66666666666669</ele><time>2026-04-18T15:35:58.969Z</time></trkpt><trkpt lat="45.18652260190209" lon="8.232839013007819"><ele>141.33333333333334</ele><time>2026-04-18T15:35:59.969Z</time></trkpt><trkpt lat="45.18657625110019" lon="8.23307270109193"><ele>141.0</ele><time>2026-04-18T15:36:00.969Z</time></trkpt><trkpt lat="45.18662776653709" lon="8.233304040309788"><ele>140.33333333333334</ele><time>2026-04-18T15:36:01.969Z</time></trkpt><trkpt lat="45.186672474301005" lon="8.233530024275904"><ele>139.66666666666669</ele><time>2026-04-18T15:36:02.969Z</time></trkpt><trkpt lat="45.18671413237583" lon="8.233755226833747"><ele>139.0</ele><time>2026-04-18T15:36:03.969Z</time></trkpt><trkpt lat="45.18676054844849" lon="8.233969402267391"><ele>139.33333333333334</ele><time>2026-04-18T15:36:04.969Z</time></trkpt><trkpt lat="45.18680859707912" lon="8.234187589128574"><ele>139.66666666666666</ele><time>2026-04-18T15:36:05.969Z</time></trkpt><trkpt lat="45.18685814877484" lon="8.23440722257112"><ele>140.0</ele><time>2026-04-18T15:36:06.969Z</time></trkpt><trkpt lat="45.186906647758086" lon="8.234626309307643"><ele>140.0</ele><time>2026-04-18T15:36:07.969Z</time></trkpt><trkpt lat="45.18695594951619" lon="8.234848184694533"><ele>140.0</ele><time>2026-04-18T15:36:08.969Z</time></trkpt><trkpt lat="45.18700787212994" lon="8.235059475751019"><ele>140.0</ele><time>2026-04-18T15:36:09.969Z</time></trkpt><trkpt lat="45.18705106599728" lon="8.235276684250099"><ele>140.0</ele><time>2026-04-18T15:36:10.969Z</time></trkpt><trkpt lat="45.187097051757576" lon="8.235490569958477"><ele>140.0</ele><time>2026-04-18T15:36:11.969Z</time></trkpt><trkpt lat="45.187144739648744" lon="8.235705524281896"><ele>140.0</ele><time>2026-04-18T15:36:12.969Z</time></trkpt><trkpt lat="45.187195977782906" lon="8.235918903966665"><ele>139.66666666666666</ele><time>2026-04-18T15:36:13.969Z</time></trkpt><trkpt lat="45.18723809414122" lon="8.236141529471181"><ele>139.33333333333334</ele><time>2026-04-18T15:36:14.969Z</time></trkpt><trkpt lat="45.18728350227587" lon="8.236360472874638"><ele>139.0</ele><time>2026-04-18T15:36:15.969Z</time></trkpt><trkpt lat="45.18732686452207" lon="8.236583419082763"><ele>139.0</ele><time>2026-04-18T15:36:16.969Z</time></trkpt><trkpt lat="45.18738050243195" lon="8.236801624517389"><ele>139.0</ele><time>2026-04-18T15:36:17.969Z</time></trkpt><trkpt lat="45.18743023927437" lon="8.237025823313989"><ele>139.0</ele><time>2026-04-18T15:36:18.969Z</time></trkpt><trkpt lat="45.187474339663616" lon="8.237249924416444"><ele>139.33333333333334</ele><time>2026-04-18T15:36:19.969Z</time></trkpt><trkpt lat="45.18752407364255" lon="8.23747150574239"><ele>139.66666666666666</ele><time>2026-04-18T15:36:20.969Z</time></trkpt><trkpt lat="45.18756971848815" lon="8.237695311401266"><ele>140.0</ele><time>2026-04-18T15:36:21.969Z</time></trkpt><trkpt lat="45.18761103172411" lon="8.237922283354768"><ele>140.0</ele><time>2026-04-18T15:36:22.969Z</time></trkpt><trkpt lat="45.187664298320236" lon="8.238144750945864"><ele>140.0</ele><time>2026-04-18T15:36:23.969Z</time></trkpt><trkpt lat="45.18771437515634" lon="8.238371792451272"><ele>140.0</ele><time>2026-04-18T15:36:24.969Z</time></trkpt><trkpt lat="45.18776742893902" lon="8.238602540798702"><ele>140.0</ele><time>2026-04-18T15:36:25.969Z</time></trkpt><trkpt lat="45.187814116609545" lon="8.238839252588736"><ele>140.0</ele><time>2026-04-18T15:36:26.969Z</time></trkpt><trkpt lat="45.18786678154337" lon="8.239075782795304"><ele>140.0</ele><time>2026-04-18T15:36:27.969Z</time></trkpt><trkpt lat="45.18791949700094" lon="8.23931240188793"><ele>139.33333333333331</ele><time>2026-04-18T15:36:28.969Z</time></trkpt><trkpt lat="45.18796645704582" lon="8.239547415835716"><ele>138.66666666666666</ele><time>2026-04-18T15:36:29.969Z</time></trkpt><trkpt lat="45.18801332967233" lon="8.239792589234174"><ele>138.0</ele><time>2026-04-18T15:36:30.969Z</time></trkpt><trkpt lat="45.18806738412895" lon="8.240032732538825"><ele>138.0</ele><time>2026-04-18T15:36:31.969Z</time></trkpt><trkpt lat="45.18812026231518" lon="8.240278637856306"><ele>138.0</ele><time>2026-04-18T15:36:32.969Z</time></trkpt><trkpt lat="45.18817367746441" lon="8.240525051005502"><ele>138.0</ele><time>2026-04-18T15:36:33.969Z</time></trkpt><trkpt lat="45.18823155016777" lon="8.240770274775114"><ele>138.0</ele><time>2026-04-18T15:36:34.969Z</time></trkpt><trkpt lat="45.18828192244711" lon="8.241019739690485"><ele>138.0</ele><time>2026-04-18T15:36:35.969Z</time></trkpt><trkpt lat="45.18833831310604" lon="8.241269736607252"><ele>138.0</ele><time>2026-04-18T15:36:36.969Z</time></trkpt><trkpt lat="45.18839502232636" lon="8.241524062221291"><ele>138.0</ele><time>2026-04-18T15:36:37.969Z</time></trkpt><trkpt lat="45.188451736593734" lon="8.241778141526838"><ele>138.0</ele><time>2026-04-18T15:36:38.969Z</time></trkpt><trkpt lat="45.18850936309328" lon="8.24203492492236"><ele>138.0</ele><time>2026-04-18T15:36:39.969Z</time></trkpt><trkpt lat="45.18856322765445" lon="8.242296651122354"><ele>137.66666666666666</ele><time>2026-04-18T15:36:40.969Z</time></trkpt><trkpt lat="45.18861591262365" lon="8.242556470178059"><ele>137.33333333333331</ele><time>2026-04-18T15:36:41.969Z</time></trkpt><trkpt lat="45.18867656484499" lon="8.242812081784084"><ele>137.0</ele><time>2026-04-18T15:36:42.969Z</time></trkpt><trkpt lat="45.18872739444591" lon="8.243076240155927"><ele>136.0</ele><time>2026-04-18T15:36:43.969Z</time></trkpt><trkpt lat="45.18878243486104" lon="8.243345681050183"><ele>135.0</ele><time>2026-04-18T15:36:44.969Z</time></trkpt><trkpt lat="45.188836948525335" lon="8.243614273752394"><ele>134.0</ele><time>2026-04-18T15:36:45.969Z</time></trkpt><trkpt lat="45.18889134939752" lon="8.243889668374791"><ele>133.66666666666666</ele><time>2026-04-18T15:36:46.969Z</time></trkpt><trkpt lat="45.18895194081413" lon="8.244167078245564"><ele>133.33333333333334</ele><time>2026-04-18T15:36:47.969Z</time></trkpt><trkpt lat="45.189017092485734" lon="8.244448139754825"><ele>133.0</ele><time>2026-04-18T15:36:48.969Z</time></trkpt><trkpt lat="45.18907759027538" lon="8.244726366880943"><ele>134.66666666666669</ele><time>2026-04-18T15:36:49.969Z</time></trkpt><trkpt lat="45.189139083401116" lon="8.245004508818571"><ele>136.33333333333334</ele><time>2026-04-18T15:36:50.969Z</time></trkpt><trkpt lat="45.18919783249252" lon="8.245283939202853"><ele>138.0</ele><time>2026-04-18T15:36:51.97Z</time></trkpt><trkpt lat="45.18925675094159" lon="8.24556249433243"><ele>138.0</ele><time>2026-04-18T15:36:52.97Z</time></trkpt><trkpt lat="45.189315717295024" lon="8.245841411557771"><ele>138.0</ele><time>2026-04-18T15:36:53.97Z</time></trkpt><trkpt lat="45.189375270184854" lon="8.24612371674899"><ele>138.0</ele><time>2026-04-18T15:36:54.97Z</time></trkpt><trkpt lat="45.189434299915426" lon="8.246411948695558"><ele>137.66666666666666</ele><time>2026-04-18T15:36:55.97Z</time></trkpt><trkpt lat="45.18950063118582" lon="8.246710454889707"><ele>137.33333333333331</ele><time>2026-04-18T15:36:56.97Z</time></trkpt><trkpt lat="45.189569841636875" lon="8.24701329725317"><ele>137.0</ele><time>2026-04-18T15:36:57.97Z</time></trkpt><trkpt lat="45.189633784905894" lon="8.24731216821035"><ele>136.33333333333331</ele><time>2026-04-18T15:36:58.97Z</time></trkpt><trkpt lat="45.18969799495714" lon="8.247605865338192"><ele>135.66666666666666</ele><time>2026-04-18T15:36:59.97Z</time></trkpt><trkpt lat="45.18976408253341" lon="8.24790995608983"><ele>135.0</ele><time>2026-04-18T15:37:00.97Z</time></trkpt><trkpt lat="45.18983033637413" lon="8.248222886881317"><ele>135.5</ele><time>2026-04-18T15:37:01.97Z</time></trkpt><trkpt lat="45.18990003524596" lon="8.248539644825865"><ele>136.0</ele><time>2026-04-18T15:37:02.97Z</time></trkpt><trkpt lat="45.18997369323452" lon="8.248865686816979"><ele>135.5</ele><time>2026-04-18T15:37:03.97Z</time></trkpt><trkpt lat="45.190049307746975" lon="8.249195667839935"><ele>135.0</ele><time>2026-04-18T15:37:04.97Z</time></trkpt><trkpt lat="45.19012115428502" lon="8.249524631245043"><ele>134.5</ele><time>2026-04-18T15:37:05.97Z</time></trkpt><trkpt lat="45.190185356726964" lon="8.24986075965971"><ele>134.0</ele><time>2026-04-18T15:37:06.97Z</time></trkpt><trkpt lat="45.19024781494595" lon="8.25019086151553"><ele>134.0</ele><time>2026-04-18T15:37:07.968Z</time></trkpt><trkpt lat="45.1903095123227" lon="8.250517049700855"><ele>134.0</ele><time>2026-04-18T15:37:08.967Z</time></trkpt><trkpt lat="45.19037903697676" lon="8.250840486454429"><ele>134.5</ele><time>2026-04-18T15:37:09.967Z</time></trkpt><trkpt lat="45.190447497018006" lon="8.251163514994095"><ele>135.0</ele><time>2026-04-18T15:37:10.968Z</time></trkpt><trkpt lat="45.1905113594136" lon="8.251484856999108"><ele>135.0</ele><time>2026-04-18T15:37:11.968Z</time></trkpt><trkpt lat="45.19056745550487" lon="8.251808803138877"><ele>135.0</ele><time>2026-04-18T15:37:12.968Z</time></trkpt><trkpt lat="45.19061383833815" lon="8.252136163763659"><ele>134.5</ele><time>2026-04-18T15:37:13.967Z</time></trkpt><trkpt lat="45.19064426410938" lon="8.252467453097967"><ele>134.0</ele><time>2026-04-18T15:37:14.968Z</time></trkpt><trkpt lat="45.190654178650924" lon="8.252802492782374"><ele>134.0</ele><time>2026-04-18T15:37:15.968Z</time></trkpt><trkpt lat="45.19065300391839" lon="8.253136656597247"><ele>134.0</ele><time>2026-04-18T15:37:16.967Z</time></trkpt><trkpt lat="45.19065118429744" lon="8.253475148195841"><ele>134.0</ele><time>2026-04-18T15:37:17.968Z</time></trkpt><trkpt lat="45.19064290557404" lon="8.253815103940775"><ele>134.0</ele><time>2026-04-18T15:37:18.968Z</time></trkpt><trkpt lat="45.190631206781404" lon="8.254155394948153"><ele>133.5</ele><time>2026-04-18T15:37:19.968Z</time></trkpt><trkpt lat="45.19061483627836" lon="8.254498806987774"><ele>133.0</ele><time>2026-04-18T15:37:20.967Z</time></trkpt><trkpt lat="45.19060205262881" lon="8.254842716840946"><ele>134.0</ele><time>2026-04-18T15:37:21.967Z</time></trkpt><trkpt lat="45.19058734367093" lon="8.2551840168557"><ele>135.0</ele><time>2026-04-18T15:37:22.967Z</time></trkpt><trkpt lat="45.190572360548764" lon="8.255526516371182"><ele>134.33333333333334</ele><time>2026-04-18T15:37:23.967Z</time></trkpt><trkpt lat="45.190555937789696" lon="8.255849089874141"><ele>133.66666666666669</ele><time>2026-04-18T15:37:24.967Z</time></trkpt><trkpt lat="45.19054652497959" lon="8.25614611075588"><ele>133.0</ele><time>2026-04-18T15:37:25.967Z</time></trkpt><trkpt lat="45.190554639259304" lon="8.256421898895239"><ele>133.0</ele><time>2026-04-18T15:37:26.967Z</time></trkpt><trkpt lat="45.19059569767863" lon="8.256674478499605"><ele>133.0</ele><time>2026-04-18T15:37:27.967Z</time></trkpt><trkpt lat="45.190672643930725" lon="8.25691094227752"><ele>133.0</ele><time>2026-04-18T15:37:28.967Z</time></trkpt><trkpt lat="45.190779352661075" lon="8.257129490603479"><ele>133.33333333333334</ele><time>2026-04-18T15:37:29.967Z</time></trkpt><trkpt lat="45.19091725700944" lon="8.25731238841496"><ele>133.66666666666666</ele><time>2026-04-18T15:37:30.967Z</time></trkpt><trkpt lat="45.19108797651542" lon="8.257463902972031"><ele>134.0</ele><time>2026-04-18T15:37:31.967Z</time></trkpt><trkpt lat="45.19128435637003" lon="8.257578848118081"><ele>134.0</ele><time>2026-04-18T15:37:32.967Z</time></trkpt><trkpt lat="45.1914945486963" lon="8.25767815294641"><ele>134.0</ele><time>2026-04-18T15:37:33.967Z</time></trkpt><trkpt lat="45.1916938755783" lon="8.257802575519465"><ele>134.0</ele><time>2026-04-18T15:37:34.967Z</time></trkpt><trkpt lat="45.191877230178726" lon="8.257950305405073"><ele>134.33333333333331</ele><time>2026-04-18T15:37:35.967Z</time></trkpt><trkpt lat="45.19203490093888" lon="8.258132565556867"><ele>134.66666666666666</ele><time>2026-04-18T15:37:36.967Z</time></trkpt><trkpt lat="45.19216738138123" lon="8.258361578680567"><ele>135.0</ele><time>2026-04-18T15:37:37.967Z</time></trkpt><trkpt lat="45.19227145572443" lon="8.258631836621051"><ele>134.5</ele><time>2026-04-18T15:37:38.967Z</time></trkpt><trkpt lat="45.19235283374065" lon="8.258931056381384"><ele>134.0</ele><time>2026-04-18T15:37:39.967Z</time></trkpt><trkpt lat="45.19239982113732" lon="8.259268060400181"><ele>134.0</ele><time>2026-04-18T15:37:40.967Z</time></trkpt><trkpt lat="45.19243263143539" lon="8.259622645757059"><ele>134.0</ele><time>2026-04-18T15:37:41.967Z</time></trkpt><trkpt lat="45.192474319378945" lon="8.259989971109572"><ele>134.0</ele><time>2026-04-18T15:37:42.967Z</time></trkpt><trkpt lat="45.19251657436153" lon="8.260335385083925"><ele>134.0</ele><time>2026-04-18T15:37:43.968Z</time></trkpt><trkpt lat="45.19255772678789" lon="8.260683688471394"><ele>134.0</ele><time>2026-04-18T15:37:44.968Z</time></trkpt><trkpt lat="45.19260679218075" lon="8.26103809933564"><ele>134.0</ele><time>2026-04-18T15:37:45.968Z</time></trkpt><trkpt lat="45.19266786253335" lon="8.261395046695869"><ele>132.5</ele><time>2026-04-18T15:37:46.968Z</time></trkpt><trkpt lat="45.19273970950643" lon="8.261751882001175"><ele>131.0</ele><time>2026-04-18T15:37:47.968Z</time></trkpt><trkpt lat="45.19282034787109" lon="8.262109322109128"><ele>130.0</ele><time>2026-04-18T15:37:48.968Z</time></trkpt><trkpt lat="45.19289938724611" lon="8.262475212069937"><ele>129.0</ele><time>2026-04-18T15:37:49.968Z</time></trkpt><trkpt lat="45.192971547384936" lon="8.26284136479673"><ele>129.0</ele><time>2026-04-18T15:37:50.968Z</time></trkpt><trkpt lat="45.19303499419654" lon="8.263207804692028"><ele>129.0</ele><time>2026-04-18T15:37:51.968Z</time></trkpt><trkpt lat="45.19308917452822" lon="8.263566517186206"><ele>129.0</ele><time>2026-04-18T15:37:52.968Z</time></trkpt><trkpt lat="45.193126422318535" lon="8.26391782039491"><ele>129.0</ele><time>2026-04-18T15:37:53.968Z</time></trkpt><trkpt lat="45.19316340781047" lon="8.26426258119407"><ele>130.0</ele><time>2026-04-18T15:37:54.968Z</time></trkpt><trkpt lat="45.1932052634068" lon="8.264610554549833"><ele>131.0</ele><time>2026-04-18T15:37:55.968Z</time></trkpt><trkpt lat="45.1932371584879" lon="8.2649418337967"><ele>131.0</ele><time>2026-04-18T15:37:56.968Z</time></trkpt><trkpt lat="45.19327057269029" lon="8.265284449145385"><ele>131.0</ele><time>2026-04-18T15:37:57.968Z</time></trkpt><trkpt lat="45.19331225227577" lon="8.265633923171833"><ele>131.0</ele><time>2026-04-18T15:37:58.968Z</time></trkpt><trkpt lat="45.19336463010543" lon="8.265988769601728"><ele>131.0</ele><time>2026-04-18T15:37:59.968Z</time></trkpt><trkpt lat="45.193432691368635" lon="8.266354449341366"><ele>131.0</ele><time>2026-04-18T15:38:00.968Z</time></trkpt><trkpt lat="45.193519769068956" lon="8.266739974731776"><ele>131.0</ele><time>2026-04-18T15:38:01.968Z</time></trkpt><trkpt lat="45.1936232086314" lon="8.2671503426539"><ele>131.0</ele><time>2026-04-18T15:38:02.968Z</time></trkpt><trkpt lat="45.19376678034118" lon="8.267598302896852"><ele>131.0</ele><time>2026-04-18T15:38:03.968Z</time></trkpt><trkpt lat="45.194008975391455" lon="8.268112280654382"><ele>131.0</ele><time>2026-04-18T15:38:04.968Z</time></trkpt><trkpt lat="45.194120101511636" lon="8.268517660282985"><ele>131.0</ele><time>2026-04-18T15:38:05.968Z</time></trkpt><trkpt lat="45.19421855540544" lon="8.268904964433446"><ele>131.5</ele><time>2026-04-18T15:38:06.968Z</time></trkpt><trkpt lat="45.19433706785568" lon="8.2693008500227"><ele>132.0</ele><time>2026-04-18T15:38:07.968Z</time></trkpt><trkpt lat="45.19447040846585" lon="8.269698927338878"><ele>132.5</ele><time>2026-04-18T15:38:08.968Z</time></trkpt><trkpt lat="45.194611917620996" lon="8.270113168905104"><ele>133.0</ele><time>2026-04-18T15:38:09.968Z</time></trkpt><trkpt lat="45.194755264277696" lon="8.270528922121251"><ele>133.5</ele><time>2026-04-18T15:38:10.968Z</time></trkpt><trkpt lat="45.19490320713083" lon="8.270927089988984"><ele>134.0</ele><time>2026-04-18T15:38:11.968Z</time></trkpt><trkpt lat="45.194755011740256" lon="8.27112485445199"><ele>133.0</ele><time>2026-04-18T15:38:12.968Z</time></trkpt><trkpt lat="45.194828670476305" lon="8.27147172263856"><ele>132.0</ele><time>2026-04-18T15:38:13.968Z</time></trkpt><trkpt lat="45.19490327870506" lon="8.271815101646027"><ele>132.0</ele><time>2026-04-18T15:38:14.968Z</time></trkpt><trkpt lat="45.19497602380177" lon="8.272154901092305"><ele>132.0</ele><time>2026-04-18T15:38:15.968Z</time></trkpt><trkpt lat="45.19504998042344" lon="8.272494777963914"><ele>131.5</ele><time>2026-04-18T15:38:16.968Z</time></trkpt><trkpt lat="45.19512263907734" lon="8.272832560348638"><ele>131.0</ele><time>2026-04-18T15:38:17.968Z</time></trkpt><trkpt lat="45.19519629607609" lon="8.273169067903368"><ele>132.0</ele><time>2026-04-18T15:38:18.968Z</time></trkpt><trkpt lat="45.19526955227541" lon="8.273505429934145"><ele>133.0</ele><time>2026-04-18T15:38:19.968Z</time></trkpt><trkpt lat="45.19534178046536" lon="8.273839716316262"><ele>132.5</ele><time>2026-04-18T15:38:20.968Z</time></trkpt><trkpt lat="45.195413405070305" lon="8.27417485744626"><ele>132.0</ele><time>2026-04-18T15:38:21.968Z</time></trkpt><trkpt lat="45.195483298563616" lon="8.274511182433672"><ele>131.5</ele><time>2026-04-18T15:38:22.968Z</time></trkpt><trkpt lat="45.195556239952516" lon="8.274849330746795"><ele>131.0</ele><time>2026-04-18T15:38:23.968Z</time></trkpt><trkpt lat="45.19562982379322" lon="8.275186777946445"><ele>130.5</ele><time>2026-04-18T15:38:24.968Z</time></trkpt><trkpt lat="45.195702151866946" lon="8.27552587668847"><ele>130.0</ele><time>2026-04-18T15:38:25.968Z</time></trkpt><trkpt lat="45.19577775030406" lon="8.275862154108522"><ele>130.0</ele><time>2026-04-18T15:38:26.968Z</time></trkpt><trkpt lat="45.195851627130764" lon="8.276205134464314"><ele>130.0</ele><time>2026-04-18T15:38:27.968Z</time></trkpt><trkpt lat="45.19592576250547" lon="8.276546285249891"><ele>131.0</ele><time>2026-04-18T15:38:28.968Z</time></trkpt><trkpt lat="45.19599657397903" lon="8.276890409035325"><ele>132.0</ele><time>2026-04-18T15:38:29.968Z</time></trkpt><trkpt lat="45.196070278846676" lon="8.277235961912051"><ele>133.5</ele><time>2026-04-18T15:38:30.968Z</time></trkpt><trkpt lat="45.19614593832763" lon="8.277584181009935"><ele>135.0</ele><time>2026-04-18T15:38:31.968Z</time></trkpt><trkpt lat="45.19622392469519" lon="8.277932767571327"><ele>134.5</ele><time>2026-04-18T15:38:32.968Z</time></trkpt><trkpt lat="45.19629239205755" lon="8.278282512848602"><ele>134.0</ele><time>2026-04-18T15:38:33.968Z</time></trkpt><trkpt lat="45.19636457756631" lon="8.278618416703388"><ele>134.0</ele><time>2026-04-18T15:38:34.968Z</time></trkpt><trkpt lat="45.19642924744391" lon="8.2789339756973"><ele>134.0</ele><time>2026-04-18T15:38:35.968Z</time></trkpt><trkpt lat="45.19648759990663" lon="8.27920923742583"><ele>134.0</ele><time>2026-04-18T15:38:36.968Z</time></trkpt><trkpt lat="45.19652780824291" lon="8.279483159999105"><ele>133.33333333333331</ele><time>2026-04-18T15:38:37.968Z</time></trkpt><trkpt lat="45.196543101698346" lon="8.279755838810809"><ele>132.66666666666666</ele><time>2026-04-18T15:38:38.968Z</time></trkpt><trkpt lat="45.19653248156552" lon="8.28003215511319"><ele>132.0</ele><time>2026-04-18T15:38:39.968Z</time></trkpt><trkpt lat="45.19650420981919" lon="8.280309767446314"><ele>131.33333333333334</ele><time>2026-04-18T15:38:40.968Z</time></trkpt><trkpt lat="45.196461254442234" lon="8.280582618929637"><ele>130.66666666666669</ele><time>2026-04-18T15:38:41.968Z</time></trkpt><trkpt lat="45.19641709731053" lon="8.280863119195647"><ele>130.0</ele><time>2026-04-18T15:38:42.968Z</time></trkpt><trkpt lat="45.19637884628815" lon="8.281146422177514"><ele>130.0</ele><time>2026-04-18T15:38:43.968Z</time></trkpt><trkpt lat="45.19634322376366" lon="8.281427178093082"><ele>130.0</ele><time>2026-04-18T15:38:44.968Z</time></trkpt><trkpt lat="45.196308735771325" lon="8.28170098427905"><ele>130.0</ele><time>2026-04-18T15:38:45.968Z</time></trkpt><trkpt lat="45.1962684110254" lon="8.281968563447487"><ele>131.0</ele><time>2026-04-18T15:38:46.968Z</time></trkpt><trkpt lat="45.19622786827534" lon="8.28221568649577"><ele>132.0</ele><time>2026-04-18T15:38:47.968Z</time></trkpt><trkpt lat="45.19619241539" lon="8.282452186318972"><ele>133.0</ele><time>2026-04-18T15:38:48.968Z</time></trkpt><trkpt lat="45.19616185168265" lon="8.28269901537564"><ele>133.0</ele><time>2026-04-18T15:38:49.968Z</time></trkpt><trkpt lat="45.196135426018586" lon="8.28294523633697"><ele>133.0</ele><time>2026-04-18T15:38:50.968Z</time></trkpt><trkpt lat="45.19608778424457" lon="8.283190832161585"><ele>133.0</ele><time>2026-04-18T15:38:51.968Z</time></trkpt><trkpt lat="45.196054929697276" lon="8.283427612627307"><ele>132.33333333333334</ele><time>2026-04-18T15:38:52.968Z</time></trkpt><trkpt lat="45.196019807596876" lon="8.283665620697542"><ele>131.66666666666666</ele><time>2026-04-18T15:38:53.968Z</time></trkpt><trkpt lat="45.19598754345372" lon="8.28390257987291"><ele>131.0</ele><time>2026-04-18T15:38:54.969Z</time></trkpt><trkpt lat="45.195956525296225" lon="8.284138304586296"><ele>131.0</ele><time>2026-04-18T15:38:55.969Z</time></trkpt><trkpt lat="45.19592639934024" lon="8.284374706663828"><ele>131.0</ele><time>2026-04-18T15:38:56.969Z</time></trkpt><trkpt lat="45.195898622420465" lon="8.284609796208976"><ele>131.0</ele><time>2026-04-18T15:38:57.969Z</time></trkpt><trkpt lat="45.19586994068118" lon="8.284846739092501"><ele>131.0</ele><time>2026-04-18T15:38:58.969Z</time></trkpt><trkpt lat="45.19583758359955" lon="8.285081536462089"><ele>131.0</ele><time>2026-04-18T15:38:59.969Z</time></trkpt><trkpt lat="45.195805096243" lon="8.285317968773764"><ele>131.0</ele><time>2026-04-18T15:39:00.969Z</time></trkpt><trkpt lat="45.19576961143541" lon="8.285555055138333"><ele>131.0</ele><time>2026-04-18T15:39:01.969Z</time></trkpt><trkpt lat="45.195737620688014" lon="8.285792444952873"><ele>131.0</ele><time>2026-04-18T15:39:02.969Z</time></trkpt><trkpt lat="45.19570465513489" lon="8.286030958361454"><ele>131.0</ele><time>2026-04-18T15:39:03.969Z</time></trkpt><trkpt lat="45.19567411940427" lon="8.286273810240683"><ele>131.0</ele><time>2026-04-18T15:39:04.969Z</time></trkpt><trkpt lat="45.195646137326115" lon="8.286516837917977"><ele>131.0</ele><time>2026-04-18T15:39:05.969Z</time></trkpt><trkpt lat="45.19561431192012" lon="8.286758611102593"><ele>131.0</ele><time>2026-04-18T15:39:06.969Z</time></trkpt><trkpt lat="45.19558533794902" lon="8.286993189710024"><ele>131.0</ele><time>2026-04-18T15:39:07.969Z</time></trkpt><trkpt lat="45.19555669672494" lon="8.287210493107853"><ele>131.0</ele><time>2026-04-18T15:39:08.969Z</time></trkpt><trkpt lat="45.195530876552134" lon="8.287417731176529"><ele>131.0</ele><time>2026-04-18T15:39:09.969Z</time></trkpt><trkpt lat="45.19550532851799" lon="8.287612468669282"><ele>131.0</ele><time>2026-04-18T15:39:10.969Z</time></trkpt><trkpt lat="45.19548070692636" lon="8.287806052136874"><ele>131.0</ele><time>2026-04-18T15:39:11.969Z</time></trkpt><trkpt lat="45.19545682765012" lon="8.288012764727071"><ele>131.0</ele><time>2026-04-18T15:39:12.969Z</time></trkpt><trkpt lat="45.19542898814912" lon="8.288226647016094"><ele>131.0</ele><time>2026-04-18T15:39:13.968Z</time></trkpt><trkpt lat="45.195405007461936" lon="8.288450488509492"><ele>131.0</ele><time>2026-04-18T15:39:14.967Z</time></trkpt><trkpt lat="45.19537219059723" lon="8.2886782169718"><ele>131.0</ele><time>2026-04-18T15:39:15.967Z</time></trkpt><trkpt lat="45.19534378911485" lon="8.28890426121631"><ele>131.0</ele><time>2026-04-18T15:39:16.967Z</time></trkpt><trkpt lat="45.19531588336951" lon="8.28913194684317"><ele>131.0</ele><time>2026-04-18T15:39:17.968Z</time></trkpt><trkpt lat="45.19528763559" lon="8.289350761923036"><ele>131.0</ele><time>2026-04-18T15:39:18.968Z</time></trkpt><trkpt lat="45.19526160855796" lon="8.289563247098819"><ele>131.0</ele><time>2026-04-18T15:39:19.967Z</time></trkpt><trkpt lat="45.19521869079062" lon="8.289760970995887"><ele>131.75</ele><time>2026-04-18T15:39:20.967Z</time></trkpt><trkpt lat="45.195193654857945" lon="8.289950669239918"><ele>132.5</ele><time>2026-04-18T15:39:21.967Z</time></trkpt><trkpt lat="45.19516983330638" lon="8.290131166072154"><ele>133.25</ele><time>2026-04-18T15:39:22.967Z</time></trkpt><trkpt lat="45.195146766101175" lon="8.29030594759269"><ele>134.0</ele><time>2026-04-18T15:39:23.967Z</time></trkpt><trkpt lat="45.195125067997814" lon="8.29047078750721"><ele>134.0</ele><time>2026-04-18T15:39:24.967Z</time></trkpt><trkpt lat="45.19510563464745" lon="8.290618257552513"><ele>134.0</ele><time>2026-04-18T15:39:25.968Z</time></trkpt><trkpt lat="45.19508672467276" lon="8.290756980008094"><ele>134.0</ele><time>2026-04-18T15:39:26.968Z</time></trkpt><trkpt lat="45.19506714736155" lon="8.290896219897391"><ele>134.0</ele><time>2026-04-18T15:39:27.968Z</time></trkpt><trkpt lat="45.1950497394232" lon="8.29102003058853"><ele>134.0</ele><time>2026-04-18T15:39:28.968Z</time></trkpt><trkpt lat="45.195031233832864" lon="8.291151648102087"><ele>134.0</ele><time>2026-04-18T15:39:29.968Z</time></trkpt><trkpt lat="45.195029090518425" lon="8.291295242217934"><ele>134.0</ele><time>2026-04-18T15:39:30.968Z</time></trkpt><trkpt lat="45.19500757069235" lon="8.291439194319272"><ele>134.0</ele><time>2026-04-18T15:39:31.968Z</time></trkpt><trkpt lat="45.19497028674405" lon="8.291580448696457"><ele>134.0</ele><time>2026-04-18T15:39:32.968Z</time></trkpt><trkpt lat="45.194957309527624" lon="8.291722067625305"><ele>134.0</ele><time>2026-04-18T15:39:33.968Z</time></trkpt><trkpt lat="45.19495419703508" lon="8.291860428798348"><ele>134.0</ele><time>2026-04-18T15:39:34.968Z</time></trkpt><trkpt lat="45.19492295566957" lon="8.29198294706488"><ele>134.0</ele><time>2026-04-18T15:39:35.968Z</time></trkpt><trkpt lat="45.19490801886532" lon="8.292107008705397"><ele>134.0</ele><time>2026-04-18T15:39:36.968Z</time></trkpt><trkpt lat="45.19490771315967" lon="8.29223951857927"><ele>134.0</ele><time>2026-04-18T15:39:37.968Z</time></trkpt><trkpt lat="45.19489186419793" lon="8.292370841063354"><ele>134.0</ele><time>2026-04-18T15:39:38.968Z</time></trkpt><trkpt lat="45.19487481044575" lon="8.292501977917313"><ele>134.0</ele><time>2026-04-18T15:39:39.968Z</time></trkpt><trkpt lat="45.19486050445762" lon="8.292642831747692"><ele>134.0</ele><time>2026-04-18T15:39:40.968Z</time></trkpt><trkpt lat="45.19482818069882" lon="8.292780109653586"><ele>134.0</ele><time>2026-04-18T15:39:41.968Z</time></trkpt><trkpt lat="45.194811782610664" lon="8.292916203967735"><ele>134.0</ele><time>2026-04-18T15:39:42.968Z</time></trkpt><trkpt lat="45.19479561956554" lon="8.29305034754906"><ele>134.0</ele><time>2026-04-18T15:39:43.968Z</time></trkpt><trkpt lat="45.194778738254456" lon="8.29318518274796"><ele>134.0</ele><time>2026-04-18T15:39:44.968Z</time></trkpt><trkpt lat="45.194776618192115" lon="8.29332512786135"><ele>134.0</ele><time>2026-04-18T15:39:45.968Z</time></trkpt><trkpt lat="45.1947338749226" lon="8.293459712275503"><ele>134.0</ele><time>2026-04-18T15:39:46.968Z</time></trkpt><trkpt lat="45.19471158718081" lon="8.293609558353946"><ele>134.0</ele><time>2026-04-18T15:39:47.968Z</time></trkpt><trkpt lat="45.194692037796436" lon="8.293759648628749"><ele>134.0</ele><time>2026-04-18T15:39:48.968Z</time></trkpt><trkpt lat="45.19466776093893" lon="8.293914427521953"><ele>134.0</ele><time>2026-04-18T15:39:49.968Z</time></trkpt><trkpt lat="45.19465124861476" lon="8.29407467456877"><ele>134.0</ele><time>2026-04-18T15:39:50.968Z</time></trkpt><trkpt lat="45.194625990542725" lon="8.29423514536628"><ele>134.0</ele><time>2026-04-18T15:39:51.968Z</time></trkpt><trkpt lat="45.19460362736974" lon="8.294391729733219"><ele>134.0</ele><time>2026-04-18T15:39:52.968Z</time></trkpt><trkpt lat="45.19458521041658" lon="8.294546896075419"><ele>134.0</ele><time>2026-04-18T15:39:53.968Z</time></trkpt><trkpt lat="45.19457025457959" lon="8.294697731811862"><ele>134.0</ele><time>2026-04-18T15:39:54.968Z</time></trkpt><trkpt lat="45.19455251411898" lon="8.294847105181795"><ele>134.0</ele><time>2026-04-18T15:39:55.968Z</time></trkpt><trkpt lat="45.19452999793781" lon="8.294989292780247"><ele>134.0</ele><time>2026-04-18T15:39:56.968Z</time></trkpt><trkpt lat="45.19450503870083" lon="8.295124294342587"><ele>134.0</ele><time>2026-04-18T15:39:57.968Z</time></trkpt><trkpt lat="45.1944839821986" lon="8.295242529584911"><ele>134.5</ele><time>2026-04-18T15:39:58.968Z</time></trkpt><trkpt lat="45.19446556443034" lon="8.295360141075419"><ele>135.0</ele><time>2026-04-18T15:39:59.968Z</time></trkpt><trkpt lat="45.19445260868958" lon="8.295491221544228"><ele>135.5</ele><time>2026-04-18T15:40:00.968Z</time></trkpt><trkpt lat="45.19443342671422" lon="8.295619099625108"><ele>136.0</ele><time>2026-04-18T15:40:01.968Z</time></trkpt><trkpt lat="45.194410043931036" lon="8.295734345318277"><ele>136.5</ele><time>2026-04-18T15:40:02.968Z</time></trkpt><trkpt lat="45.19439071614398" lon="8.295841429586389"><ele>137.0</ele><time>2026-04-18T15:40:03.968Z</time></trkpt><trkpt lat="45.194380209098235" lon="8.295939038477893"><ele>137.33333333333331</ele><time>2026-04-18T15:40:04.968Z</time></trkpt><trkpt lat="45.19436639036027" lon="8.296027584006145"><ele>137.66666666666666</ele><time>2026-04-18T15:40:05.968Z</time></trkpt><trkpt lat="45.194338324649976" lon="8.296146460924383"><ele>138.0</ele><time>2026-04-18T15:40:07.968Z</time></trkpt><trkpt lat="45.19434470809783" lon="8.296246310674091"><ele>138.33333333333334</ele><time>2026-04-18T15:40:24.969Z</time></trkpt><trkpt lat="45.194330949597756" lon="8.296358991898074"><ele>138.66666666666669</ele><time>2026-04-18T15:40:27.969Z</time></trkpt><trkpt lat="45.19432581788048" lon="8.296482122138597"><ele>139.0</ele><time>2026-04-18T15:40:30.969Z</time></trkpt><trkpt lat="45.194310479377684" lon="8.29659546737011"><ele>139.0</ele><time>2026-04-18T15:40:32.969Z</time></trkpt><trkpt lat="45.19423739974167" lon="8.29663614770146"><ele>139.0</ele><time>2026-04-18T15:40:34.969Z</time></trkpt><trkpt lat="45.19415300208601" lon="8.29658650578194"><ele>139.0</ele><time>2026-04-18T15:40:35.969Z</time></trkpt><trkpt lat="45.194074985640945" lon="8.296575494993826"><ele>139.0</ele><time>2026-04-18T15:40:36.969Z</time></trkpt><trkpt lat="45.19399956730377" lon="8.296554877498117"><ele>139.0</ele><time>2026-04-18T15:40:37.969Z</time></trkpt><trkpt lat="45.19392051890672" lon="8.296527518985481"><ele>139.0</ele><time>2026-04-18T15:40:38.969Z</time></trkpt><trkpt lat="45.19384553371008" lon="8.296530567106139"><ele>136.0</ele><time>2026-04-18T15:40:39.969Z</time></trkpt><trkpt lat="45.19377316565606" lon="8.29651461671093"><ele>136.0</ele><time>2026-04-18T15:40:40.969Z</time></trkpt><trkpt lat="45.19369250036379" lon="8.296494044929231"><ele>136.0</ele><time>2026-04-18T15:40:41.969Z</time></trkpt><trkpt lat="45.19362040543036" lon="8.296482662237041"><ele>136.0</ele><time>2026-04-18T15:40:42.969Z</time></trkpt><trkpt lat="45.19350897510849" lon="8.296466248049502"><ele>136.0</ele><time>2026-04-18T15:40:44.969Z</time></trkpt><trkpt lat="45.193435196846096" lon="8.296407469145954"><ele>137.0</ele><time>2026-04-18T15:40:47.969Z</time></trkpt></trkseg></trk></gpx>